Time,TemperatureF,DewpointF,PressureIn,WindDirection,WindDirectionDegrees,WindSpeedMPH,WindSpeedGustMPH,Humidity,HourlyPrecipIn,Conditions,Clouds,dailyrainin,SoftwareType,DateUTC
2013-09-04 00:00:00,78.5,64.9,29.91,NE,34,0.0,0.0,63,0.00,,---,0.00,VWS V14.01,2013-09-04 05:00:00,
2013-09-04 00:01:00,78.5,64.9,29.91,NE,34,0.0,0.0,63,0.00,,---,0.00,VWS V14.01,2013-09-04 05:01:00,
2013-09-04 00:02:00,78.4,64.8,29.90,NE,34,0.0,0.0,63,0.00,,---,0.00,VWS V14.01,2013-09-04 05:02:00,
2013-09-04 00:03:00,78.2,64.6,29.90,NE,34,0.0,1.0,63,0.00,,---,0.00,VWS V14.01,2013-09-04 05:03:00,
2013-09-04 00:04:00,78.4,65.2,29.90,NE,34,0.0,0.0,64,0.00,,---,0.00,VWS V14.01,2013-09-04 05:04:00,
2013-09-04 00:05:00,78.4,64.8,29.90,NE,34,0.0,0.0,63,0.00,,---,0.00,VWS V14.01,2013-09-04 05:05:00,
2013-09-04 00:06:00,78.3,64.7,29.91,NE,34,0.0,0.0,63,0.00,,---,0.00,VWS V14.01,2013-09-04 05:06:00,
2013-09-04 00:07:00,78.3,64.7,29.90,NE,34,0.0,0.0,63,0.00,,---,0.00,VWS V14.01,2013-09-04 05:07:00,
2013-09-04 00:08:00,78.1,64.9,29.90,NE,34,0.0,0.0,64,0.00,,---,0.00,VWS V14.01,2013-09-04 05:08:00,
2013-09-04 00:09:00,78.2,64.6,29.90,NE,34,0.0,1.0,63,0.00,,---,0.00,VWS V14.01,2013-09-04 05:09:00,
2013-09-04 00:10:00,78.2,64.6,29.90,NE,34,0.0,1.0,63,0.00,,---,0.00,VWS V14.01,2013-09-04 05:10:00,
2013-09-04 00:11:00,78.2,64.6,29.90,NE,34,0.0,1.0,63,0.00,,---,0.00,VWS V14.01,2013-09-04 05:11:00,
2013-09-04 00:12:00,78.1,64.9,29.90,NE,34,0.0,1.0,64,0.00,,---,0.00,VWS V14.01,2013-09-04 05:12:00,
2013-09-04 00:13:00,78.1,64.9,29.90,NE,34,0.0,0.0,64,0.00,,---,0.00,VWS V14.01,2013-09-04 05:13:00,
2013-09-04 00:14:00,78.1,64.9,29.90,NE,34,0.0,0.0,64,0.00,,---,0.00,VWS V14.01,2013-09-04 05:14:00,
2013-09-04 00:15:00,78.1,64.9,29.90,NE,34,0.0,0.0,64,0.00,,---,0.00,VWS V14.01,2013-09-04 05:15:00,
2013-09-04 00:16:00,78.1,64.9,29.90,NE,34,0.0,0.0,64,0.00,,---,0.00,VWS V14.01,2013-09-04 05:16:00,
2013-09-04 00:18:00,78.2,65.0,29.91,NE,34,0.0,1.0,64,0.00,,---,0.00,VWS V14.01,2013-09-04 05:18:00,
2013-09-04 00:20:00,78.1,64.9,29.91,NE,34,0.0,0.0,64,0.00,,---,0.00,VWS V14.01,2013-09-04 05:20:00,
2013-09-04 00:21:00,78.1,64.9,29.90,NE,34,0.0,0.0,64,0.00,,---,0.00,VWS V14.01,2013-09-04 05:21:00,
2013-09-04 00:23:00,78.3,64.7,29.91,NE,34,2.0,4.0,63,0.00,,---,0.00,VWS V14.01,2013-09-04 05:23:00,
2013-09-04 00:24:00,78.2,65.0,29.91,NE,34,1.0,1.0,64,0.00,,---,0.00,VWS V14.01,2013-09-04 05:24:00,
2013-09-04 00:25:00,78.2,65.0,29.91,NE,34,0.0,3.0,64,0.00,,---,0.00,VWS V14.01,2013-09-04 05:25:00,
2013-09-04 00:26:00,78.2,65.0,29.91,NE,34,2.0,4.0,64,0.00,,---,0.00,VWS V14.01,2013-09-04 05:26:00,
2013-09-04 00:27:00,78.3,64.7,29.91,NE,34,0.0,4.0,63,0.00,,---,0.00,VWS V14.01,2013-09-04 05:27:00,
2013-09-04 00:28:00,78.5,64.9,29.91,NE,34,0.0,3.0,63,0.00,,---,0.00,VWS V14.01,2013-09-04 05:28:00,
2013-09-04 00:29:00,78.3,64.7,29.91,NE,34,2.0,4.0,63,0.00,,---,0.00,VWS V14.01,2013-09-04 05:29:00,
2013-09-04 00:30:00,78.4,64.8,29.91,NE,34,1.0,4.0,63,0.00,,---,0.00,VWS V14.01,2013-09-04 05:30:00,
2013-09-04 00:31:00,78.4,64.8,29.91,NE,34,0.0,4.0,63,0.00,,---,0.00,VWS V14.01,2013-09-04 05:31:00,
2013-09-04 00:32:00,78.4,64.8,29.91,NE,34,0.0,3.0,63,0.00,,---,0.00,VWS V14.01,2013-09-04 05:32:00,
2013-09-04 00:33:00,78.7,65.1,29.91,NE,34,4.0,4.0,63,0.00,,---,0.00,VWS V14.01,2013-09-04 05:33:00,
2013-09-04 00:34:00,78.5,64.9,29.91,NE,34,0.0,3.0,63,0.00,,---,0.00,VWS V14.01,2013-09-04 05:34:00,
2013-09-04 00:35:00,78.5,64.9,29.91,NE,34,0.0,2.0,63,0.00,,---,0.00,VWS V14.01,2013-09-04 05:35:00,
2013-09-04 00:36:00,78.6,65.0,29.91,NE,34,0.0,2.0,63,0.00,,---,0.00,VWS V14.01,2013-09-04 05:36:00,
2013-09-04 00:37:00,78.6,65.0,29.91,NE,34,0.0,2.0,63,0.00,,---,0.00,VWS V14.01,2013-09-04 05:37:00,
2013-09-04 00:38:00,78.9,64.8,29.91,NE,34,0.0,2.0,62,0.00,,---,0.00,VWS V14.01,2013-09-04 05:38:00,
2013-09-04 00:39:00,78.7,65.1,29.91,NE,34,2.0,4.0,63,0.00,,---,0.00,VWS V14.01,2013-09-04 05:39:00,
2013-09-04 00:40:00,78.7,65.1,29.91,NE,34,0.0,4.0,63,0.00,,---,0.00,VWS V14.01,2013-09-04 05:40:00,
2013-09-04 00:41:00,78.8,64.7,29.91,NE,34,0.0,4.0,62,0.00,,---,0.00,VWS V14.01,2013-09-04 05:41:00,
2013-09-04 00:42:00,78.9,65.2,29.91,NE,34,0.0,4.0,63,0.00,,---,0.00,VWS V14.01,2013-09-04 05:42:00,
2013-09-04 00:43:00,79.1,65.4,29.91,NE,34,0.0,2.0,63,0.00,,---,0.00,VWS V14.01,2013-09-04 05:43:00,
2013-09-04 00:44:00,78.9,64.8,29.91,NE,34,1.0,2.0,62,0.00,,---,0.00,VWS V14.01,2013-09-04 05:44:00,
2013-09-04 00:45:00,79.0,65.3,29.91,NE,34,0.0,1.0,63,0.00,,---,0.00,VWS V14.01,2013-09-04 05:45:00,
2013-09-04 00:46:00,79.0,65.3,29.91,NE,34,0.0,1.0,63,0.00,,---,0.00,VWS V14.01,2013-09-04 05:46:00,
2013-09-04 00:47:00,79.1,65.4,29.91,NE,34,0.0,2.0,63,0.00,,---,0.00,VWS V14.01,2013-09-04 05:47:00,
2013-09-04 00:48:00,79.3,65.2,29.91,NE,34,0.0,4.0,62,0.00,,---,0.00,VWS V14.01,2013-09-04 05:48:00,
2013-09-04 00:49:00,79.1,65.4,29.91,NE,34,0.0,2.0,63,0.00,,---,0.00,VWS V14.01,2013-09-04 05:49:00,
2013-09-04 00:50:00,79.2,65.1,29.91,NE,34,0.0,2.0,62,0.00,,---,0.00,VWS V14.01,2013-09-04 05:50:00,
2013-09-04 00:51:00,79.2,65.1,29.91,NE,34,0.0,4.0,62,0.00,,---,0.00,VWS V14.01,2013-09-04 05:51:00,
2013-09-04 00:52:00,79.3,65.2,29.91,NE,34,1.0,4.0,62,0.00,,---,0.00,VWS V14.01,2013-09-04 05:52:00,
2013-09-04 00:53:00,79.5,65.3,29.91,NE,34,1.0,2.0,62,0.00,,---,0.00,VWS V14.01,2013-09-04 05:53:00,
2013-09-04 00:54:00,79.3,65.2,29.91,NE,34,0.0,4.0,62,0.00,,---,0.00,VWS V14.01,2013-09-04 05:54:00,
2013-09-04 00:55:00,79.4,65.3,29.91,NNE,33,0.0,4.0,62,0.00,,---,0.00,VWS V14.01,2013-09-04 05:55:00,
2013-09-04 00:56:00,79.4,65.3,29.91,NE,34,0.0,2.0,62,0.00,,---,0.00,VWS V14.01,2013-09-04 05:56:00,
2013-09-04 00:57:00,79.4,65.3,29.91,NE,34,0.0,2.0,62,0.00,,---,0.00,VWS V14.01,2013-09-04 05:57:00,
2013-09-04 00:58:00,79.7,66.0,29.91,NE,34,1.0,1.0,63,0.00,,---,0.00,VWS V14.01,2013-09-04 05:58:00,
2013-09-04 00:59:00,79.5,65.3,29.91,NE,34,1.0,2.0,62,0.00,,---,0.00,VWS V14.01,2013-09-04 05:59:00,
2013-09-04 01:00:00,79.6,65.4,29.91,NE,34,0.0,2.0,62,0.00,,---,0.00,VWS V14.01,2013-09-04 06:00:00,
2013-09-04 01:01:00,79.6,65.9,29.91,NE,34,0.0,1.0,63,0.00,,---,0.00,VWS V14.01,2013-09-04 06:01:00,
2013-09-04 01:02:00,79.6,65.9,29.91,NE,34,1.0,1.0,63,0.00,,---,0.00,VWS V14.01,2013-09-04 06:02:00,
2013-09-04 01:03:00,79.7,66.0,29.91,NE,34,0.0,1.0,63,0.00,,---,0.00,VWS V14.01,2013-09-04 06:03:00,
2013-09-04 01:04:00,79.7,66.0,29.91,NE,34,1.0,1.0,63,0.00,,---,0.00,VWS V14.01,2013-09-04 06:04:00,
2013-09-04 01:05:00,79.7,66.0,29.91,NE,34,0.0,1.0,63,0.00,,---,0.00,VWS V14.01,2013-09-04 06:05:00,
2013-09-04 01:06:00,79.7,66.0,29.91,NE,34,0.0,1.0,63,0.00,,---,0.00,VWS V14.01,2013-09-04 06:06:00,
2013-09-04 01:07:00,79.7,66.0,29.91,NE,34,0.0,1.0,63,0.00,,---,0.00,VWS V14.01,2013-09-04 06:07:00,
2013-09-04 01:08:00,79.8,66.1,29.91,NNE,33,0.0,1.0,63,0.00,,---,0.00,VWS V14.01,2013-09-04 06:08:00,
2013-09-04 01:09:00,79.7,66.0,29.91,NE,34,0.0,1.0,63,0.00,,---,0.00,VWS V14.01,2013-09-04 06:09:00,
2013-09-04 01:10:00,79.7,66.0,29.91,NE,34,0.0,1.0,63,0.00,,---,0.00,VWS V14.01,2013-09-04 06:10:00,
2013-09-04 01:11:00,79.8,66.1,29.91,NNE,33,0.0,1.0,63,0.00,,---,0.00,VWS V14.01,2013-09-04 06:11:00,
2013-09-04 01:12:00,79.8,66.1,29.91,NE,34,0.0,0.0,63,0.00,,---,0.00,VWS V14.01,2013-09-04 06:12:00,
2013-09-04 01:13:00,79.8,66.1,29.91,NE,34,1.0,2.0,63,0.00,,---,0.00,VWS V14.01,2013-09-04 06:13:00,
2013-09-04 01:14:00,79.8,66.1,29.91,NNE,33,0.0,1.0,63,0.00,,---,0.00,VWS V14.01,2013-09-04 06:14:00,
2013-09-04 01:15:00,79.8,66.1,29.91,NE,34,0.0,1.0,63,0.00,,---,0.00,VWS V14.01,2013-09-04 06:15:00,
2013-09-04 01:16:00,79.8,66.1,29.91,NE,34,0.0,1.0,63,0.00,,---,0.00,VWS V14.01,2013-09-04 06:16:00,
2013-09-04 01:17:00,79.8,66.1,29.91,NE,34,0.0,2.0,63,0.00,,---,0.00,VWS V14.01,2013-09-04 06:17:00,
2013-09-04 01:18:00,79.7,66.0,29.91,NNE,33,0.0,2.0,63,0.00,,---,0.00,VWS V14.01,2013-09-04 06:18:00,
2013-09-04 01:19:00,79.8,66.1,29.91,NE,34,1.0,2.0,63,0.00,,---,0.00,VWS V14.01,2013-09-04 06:19:00,
2013-09-04 01:20:00,79.8,66.1,29.91,NNE,33,0.0,2.0,63,0.00,,---,0.00,VWS V14.01,2013-09-04 06:20:00,
2013-09-04 01:21:00,79.8,66.1,29.91,NE,34,0.0,2.0,63,0.00,,---,0.00,VWS V14.01,2013-09-04 06:21:00,
2013-09-04 01:22:00,79.8,66.1,29.91,NE,34,0.0,1.0,63,0.00,,---,0.00,VWS V14.01,2013-09-04 06:22:00,
2013-09-04 01:23:00,79.7,66.0,29.90,NE,34,0.0,3.0,63,0.00,,---,0.00,VWS V14.01,2013-09-04 06:23:00,
2013-09-04 01:24:00,79.7,66.0,29.91,NNE,33,0.0,2.0,63,0.00,,---,0.00,VWS V14.01,2013-09-04 06:24:00,
2013-09-04 01:25:00,79.7,65.5,29.91,NE,34,0.0,2.0,62,0.00,,---,0.00,VWS V14.01,2013-09-04 06:25:00,
2013-09-04 01:26:00,79.7,66.0,29.90,NE,34,0.0,2.0,63,0.00,,---,0.00,VWS V14.01,2013-09-04 06:26:00,
2013-09-04 01:27:00,79.7,66.0,29.90,NE,34,0.0,2.0,63,0.00,,---,0.00,VWS V14.01,2013-09-04 06:27:00,
2013-09-04 01:28:00,79.7,66.0,29.90,NNE,28,3.0,4.0,63,0.00,,---,0.00,VWS V14.01,2013-09-04 06:28:00,
2013-09-04 01:29:00,79.7,66.0,29.90,NE,34,0.0,3.0,63,0.00,,---,0.00,VWS V14.01,2013-09-04 06:29:00,
2013-09-04 01:30:00,79.7,66.0,29.90,NNE,33,0.0,3.0,63,0.00,,---,0.00,VWS V14.01,2013-09-04 06:30:00,
2013-09-04 01:31:00,79.7,66.0,29.90,NE,34,0.0,3.0,63,0.00,,---,0.00,VWS V14.01,2013-09-04 06:31:00,
2013-09-04 01:32:00,79.7,66.0,29.90,NNE,33,1.0,3.0,63,0.00,,---,0.00,VWS V14.01,2013-09-04 06:32:00,
2013-09-04 01:33:00,79.7,66.0,29.90,NNE,28,0.0,4.0,63,0.00,,---,0.00,VWS V14.01,2013-09-04 06:33:00,
2013-09-04 01:34:00,79.7,66.0,29.90,NNE,28,3.0,4.0,63,0.00,,---,0.00,VWS V14.01,2013-09-04 06:34:00,
2013-09-04 01:35:00,79.7,66.0,29.90,NNE,28,0.0,4.0,63,0.00,,---,0.00,VWS V14.01,2013-09-04 06:35:00,
2013-09-04 01:36:00,79.7,66.0,29.90,NNE,28,0.0,4.0,63,0.00,,---,0.00,VWS V14.01,2013-09-04 06:36:00,
2013-09-04 01:37:00,79.7,66.0,29.91,NNE,28,0.0,4.0,63,0.00,,---,0.00,VWS V14.01,2013-09-04 06:37:00,
2013-09-04 01:38:00,79.7,66.0,29.90,NNE,28,3.0,3.0,63,0.00,,---,0.00,VWS V14.01,2013-09-04 06:38:00,
2013-09-04 01:39:00,79.7,66.0,29.90,NNE,28,0.0,4.0,63,0.00,,---,0.00,VWS V14.01,2013-09-04 06:39:00,
2013-09-04 01:40:00,79.7,66.0,29.90,NNE,28,3.0,3.0,63,0.00,,---,0.00,VWS V14.01,2013-09-04 06:40:00,
2013-09-04 01:41:00,79.7,66.0,29.90,NNE,28,0.0,3.0,63,0.00,,---,0.00,VWS V14.01,2013-09-04 06:41:00,
2013-09-04 01:42:00,79.7,66.0,29.90,NNE,28,0.0,3.0,63,0.00,,---,0.00,VWS V14.01,2013-09-04 06:42:00,
2013-09-04 01:43:00,79.7,66.0,29.90,NNE,28,0.0,1.0,63,0.00,,---,0.00,VWS V14.01,2013-09-04 06:43:00,
2013-09-04 01:45:00,79.7,66.0,29.90,NNE,28,0.0,3.0,63,0.00,,---,0.00,VWS V14.01,2013-09-04 06:45:00,
2013-09-04 01:46:00,79.7,66.0,29.90,NNE,28,0.0,3.0,63,0.00,,---,0.00,VWS V14.01,2013-09-04 06:46:00,
2013-09-04 01:47:00,79.7,66.0,29.90,NNE,28,0.0,3.0,63,0.00,,---,0.00,VWS V14.01,2013-09-04 06:47:00,
2013-09-04 01:48:00,79.6,65.9,29.90,NNE,28,0.0,2.0,63,0.00,,---,0.00,VWS V14.01,2013-09-04 06:48:00,
2013-09-04 01:49:00,79.7,66.0,29.90,NNE,28,0.0,1.0,63,0.00,,---,0.00,VWS V14.01,2013-09-04 06:49:00,
2013-09-04 01:50:00,79.7,66.0,29.90,NNE,28,0.0,1.0,63,0.00,,---,0.00,VWS V14.01,2013-09-04 06:50:00,
2013-09-04 01:51:00,79.7,66.0,29.90,NNE,28,0.0,1.0,63,0.00,,---,0.00,VWS V14.01,2013-09-04 06:51:00,
2013-09-04 01:52:00,79.7,66.0,29.90,NNE,28,0.0,2.0,63,0.00,,---,0.00,VWS V14.01,2013-09-04 06:52:00,
2013-09-04 01:53:00,79.6,65.9,29.90,NNE,27,0.0,1.0,63,0.00,,---,0.00,VWS V14.01,2013-09-04 06:53:00,
2013-09-04 01:54:00,79.6,65.9,29.90,NNE,28,0.0,2.0,63,0.00,,---,0.00,VWS V14.01,2013-09-04 06:54:00,
2013-09-04 01:55:00,79.7,66.0,29.90,NNE,28,0.0,2.0,63,0.00,,---,0.00,VWS V14.01,2013-09-04 06:55:00,
2013-09-04 01:56:00,79.6,65.9,29.91,NNE,28,0.0,2.0,63,0.00,,---,0.00,VWS V14.01,2013-09-04 06:56:00,
2013-09-04 01:57:00,79.6,65.9,29.90,NNE,28,0.0,1.0,63,0.00,,---,0.00,VWS V14.01,2013-09-04 06:57:00,
2013-09-04 01:58:00,79.6,65.9,29.90,NNE,25,0.0,2.0,63,0.00,,---,0.00,VWS V14.01,2013-09-04 06:58:00,
2013-09-04 01:59:00,79.6,65.9,29.90,NNE,27,0.0,1.0,63,0.00,,---,0.00,VWS V14.01,2013-09-04 06:59:00,
2013-09-04 02:00:00,79.6,65.9,29.90,NNE,27,0.0,1.0,63,0.00,,---,0.00,VWS V14.01,2013-09-04 07:00:00,
2013-09-04 02:01:00,79.6,65.9,29.90,NNE,25,0.0,2.0,63,0.00,,---,0.00,VWS V14.01,2013-09-04 07:01:00,
2013-09-04 02:02:00,79.6,65.9,29.90,NNE,25,0.0,2.0,63,0.00,,---,0.00,VWS V14.01,2013-09-04 07:02:00,
2013-09-04 02:03:00,79.5,65.8,29.90,NNE,24,0.0,4.0,63,0.00,,---,0.00,VWS V14.01,2013-09-04 07:03:00,
2013-09-04 02:04:00,79.6,65.9,29.90,NNE,25,0.0,2.0,63,0.00,,---,0.00,VWS V14.01,2013-09-04 07:04:00,
2013-09-04 02:05:00,79.5,65.8,29.90,NNE,25,0.0,2.0,63,0.00,,---,0.00,VWS V14.01,2013-09-04 07:05:00,
2013-09-04 02:06:00,79.5,65.8,29.90,NNE,24,2.0,3.0,63,0.00,,---,0.00,VWS V14.01,2013-09-04 07:06:00,
2013-09-04 02:07:00,79.5,65.8,29.90,NNE,24,3.0,4.0,63,0.00,,---,0.00,VWS V14.01,2013-09-04 07:07:00,
2013-09-04 02:08:00,79.4,65.7,29.90,NNE,24,0.0,0.0,63,0.00,,---,0.00,VWS V14.01,2013-09-04 07:08:00,
2013-09-04 02:09:00,79.5,65.8,29.90,NNE,24,0.0,4.0,63,0.00,,---,0.00,VWS V14.01,2013-09-04 07:09:00,
2013-09-04 02:10:00,79.5,65.8,29.90,NNE,24,0.0,4.0,63,0.00,,---,0.00,VWS V14.01,2013-09-04 07:10:00,
2013-09-04 02:11:00,79.5,65.8,29.90,NNE,24,0.0,4.0,63,0.00,,---,0.00,VWS V14.01,2013-09-04 07:11:00,
2013-09-04 02:12:00,79.4,65.7,29.90,NNE,24,0.0,3.0,63,0.00,,---,0.00,VWS V14.01,2013-09-04 07:12:00,
2013-09-04 02:13:00,79.4,66.2,29.90,NNE,21,0.0,2.0,64,0.00,,---,0.00,VWS V14.01,2013-09-04 07:13:00,
2013-09-04 02:14:00,79.4,65.7,29.90,NNE,24,0.0,0.0,63,0.00,,---,0.00,VWS V14.01,2013-09-04 07:14:00,
2013-09-04 02:15:00,79.4,66.2,29.90,NNE,22,0.0,1.0,64,0.00,,---,0.00,VWS V14.01,2013-09-04 07:15:00,
2013-09-04 02:16:00,79.4,66.2,29.90,NNE,22,0.0,1.0,64,0.00,,---,0.00,VWS V14.01,2013-09-04 07:16:00,
2013-09-04 02:17:00,79.4,66.2,29.90,NNE,22,0.0,2.0,64,0.00,,---,0.00,VWS V14.01,2013-09-04 07:17:00,
2013-09-04 02:18:00,79.3,66.1,29.90,NNE,21,0.0,1.0,64,0.00,,---,0.00,VWS V14.01,2013-09-04 07:18:00,
2013-09-04 02:19:00,79.4,66.2,29.90,NNE,21,0.0,2.0,64,0.00,,---,0.00,VWS V14.01,2013-09-04 07:19:00,
2013-09-04 02:20:00,79.3,66.1,29.90,NNE,21,0.0,2.0,64,0.00,,---,0.00,VWS V14.01,2013-09-04 07:20:00,
2013-09-04 02:21:00,79.3,66.1,29.90,NNE,21,0.0,2.0,64,0.00,,---,0.00,VWS V14.01,2013-09-04 07:21:00,
2013-09-04 02:22:00,79.3,66.1,29.90,NNE,21,0.0,1.0,64,0.00,,---,0.00,VWS V14.01,2013-09-04 07:22:00,
2013-09-04 02:23:00,79.2,66.4,29.90,NNE,22,0.0,4.0,65,0.00,,---,0.00,VWS V14.01,2013-09-04 07:23:00,
2013-09-04 02:24:00,79.3,66.1,29.90,NNE,21,0.0,1.0,64,0.00,,---,0.00,VWS V14.01,2013-09-04 07:24:00,
2013-09-04 02:26:00,79.2,66.0,29.90,NNE,22,0.0,4.0,64,0.00,,---,0.00,VWS V14.01,2013-09-04 07:26:00,
2013-09-04 02:27:00,79.2,66.0,29.91,NNE,22,0.0,4.0,64,0.00,,---,0.00,VWS V14.01,2013-09-04 07:27:00,
2013-09-04 02:28:00,79.1,66.3,29.91,NNE,22,0.0,0.0,65,0.00,,---,0.00,VWS V14.01,2013-09-04 07:28:00,
2013-09-04 02:29:00,79.2,66.4,29.90,NNE,22,0.0,4.0,65,0.00,,---,0.00,VWS V14.01,2013-09-04 07:29:00,
2013-09-04 02:30:00,79.1,66.3,29.90,NNE,22,0.0,2.0,65,0.00,,---,0.00,VWS V14.01,2013-09-04 07:30:00,
2013-09-04 02:31:00,79.2,66.4,29.91,NNE,22,0.0,2.0,65,0.00,,---,0.00,VWS V14.01,2013-09-04 07:31:00,
2013-09-04 02:32:00,79.2,66.4,29.90,NNE,22,0.0,2.0,65,0.00,,---,0.00,VWS V14.01,2013-09-04 07:32:00,
2013-09-04 02:33:00,79.0,66.7,29.91,NNE,21,0.0,1.0,66,0.00,,---,0.00,VWS V14.01,2013-09-04 07:33:00,
2013-09-04 02:34:00,79.1,66.3,29.91,NNE,22,0.0,0.0,65,0.00,,---,0.00,VWS V14.01,2013-09-04 07:34:00,
2013-09-04 02:35:00,79.1,66.3,29.90,NNE,22,0.0,1.0,65,0.00,,---,0.00,VWS V14.01,2013-09-04 07:35:00,
2013-09-04 02:36:00,79.0,66.2,29.91,NNE,21,0.0,1.0,65,0.00,,---,0.00,VWS V14.01,2013-09-04 07:36:00,
2013-09-04 02:37:00,79.0,66.2,29.91,NNE,21,0.0,1.0,65,0.00,,---,0.00,VWS V14.01,2013-09-04 07:37:00,
2013-09-04 02:38:00,78.9,66.6,29.90,NNE,21,0.0,2.0,66,0.00,,---,0.00,VWS V14.01,2013-09-04 07:38:00,
2013-09-04 02:39:00,79.0,66.7,29.91,NNE,21,0.0,1.0,66,0.00,,---,0.00,VWS V14.01,2013-09-04 07:39:00,
2013-09-04 02:40:00,79.0,66.7,29.91,NNE,21,0.0,1.0,66,0.00,,---,0.00,VWS V14.01,2013-09-04 07:40:00,
2013-09-04 02:41:00,79.0,66.7,29.91,NNE,21,1.0,2.0,66,0.00,,---,0.00,VWS V14.01,2013-09-04 07:41:00,
2013-09-04 02:42:00,78.9,66.6,29.91,NNE,21,0.0,2.0,66,0.00,,---,0.00,VWS V14.01,2013-09-04 07:42:00,
2013-09-04 02:43:00,78.8,66.9,29.90,NNE,17,0.0,4.0,67,0.00,,---,0.00,VWS V14.01,2013-09-04 07:43:00,
2013-09-04 02:44:00,78.9,66.6,29.90,NNE,21,0.0,2.0,66,0.00,,---,0.00,VWS V14.01,2013-09-04 07:44:00,
2013-09-04 02:45:00,78.9,67.0,29.90,NNE,21,0.0,3.0,67,0.00,,---,0.00,VWS V14.01,2013-09-04 07:45:00,
2013-09-04 02:46:00,78.9,67.0,29.90,NNE,17,2.0,4.0,67,0.00,,---,0.00,VWS V14.01,2013-09-04 07:46:00,
2013-09-04 02:47:00,78.9,67.0,29.90,NNE,17,0.0,4.0,67,0.00,,---,0.00,VWS V14.01,2013-09-04 07:47:00,
2013-09-04 02:48:00,78.8,67.4,29.90,NNE,17,0.0,3.0,68,0.00,,---,0.00,VWS V14.01,2013-09-04 07:48:00,
2013-09-04 02:49:00,78.8,66.9,29.90,NNE,17,0.0,4.0,67,0.00,,---,0.00,VWS V14.01,2013-09-04 07:49:00,
2013-09-04 02:50:00,78.9,67.0,29.90,NNE,17,0.0,4.0,67,0.00,,---,0.00,VWS V14.01,2013-09-04 07:50:00,
2013-09-04 02:51:00,78.8,66.9,29.90,NNE,17,0.0,4.0,67,0.00,,---,0.00,VWS V14.01,2013-09-04 07:51:00,
2013-09-04 02:52:00,78.8,66.9,29.90,NNE,17,0.0,3.0,67,0.00,,---,0.00,VWS V14.01,2013-09-04 07:52:00,
2013-09-04 02:53:00,78.7,67.3,29.91,NNE,17,0.0,2.0,68,0.00,,---,0.00,VWS V14.01,2013-09-04 07:53:00,
2013-09-04 02:54:00,78.8,67.4,29.90,NNE,17,0.0,3.0,68,0.00,,---,0.00,VWS V14.01,2013-09-04 07:54:00,
2013-09-04 02:55:00,78.8,67.4,29.90,NNE,17,0.0,3.0,68,0.00,,---,0.00,VWS V14.01,2013-09-04 07:55:00,
2013-09-04 02:56:00,78.8,67.4,29.90,NNE,17,0.0,3.0,68,0.00,,---,0.00,VWS V14.01,2013-09-04 07:56:00,
2013-09-04 02:57:00,78.8,67.4,29.91,NNE,17,0.0,2.0,68,0.00,,---,0.00,VWS V14.01,2013-09-04 07:57:00,
2013-09-04 02:58:00,78.7,67.3,29.90,NNE,15,3.0,3.0,68,0.00,,---,0.00,VWS V14.01,2013-09-04 07:58:00,
2013-09-04 02:59:00,78.7,67.3,29.91,NNE,17,0.0,2.0,68,0.00,,---,0.00,VWS V14.01,2013-09-04 07:59:00,
2013-09-04 03:00:00,78.7,67.3,29.91,NNE,17,0.0,2.0,68,0.00,,---,0.00,VWS V14.01,2013-09-04 08:00:00,
2013-09-04 03:01:00,78.7,67.3,29.91,NNE,17,0.0,3.0,68,0.00,,---,0.00,VWS V14.01,2013-09-04 08:01:00,
2013-09-04 03:02:00,78.7,67.3,29.91,NNE,15,2.0,3.0,68,0.00,,---,0.00,VWS V14.01,2013-09-04 08:02:00,
2013-09-04 03:03:00,78.6,67.2,29.90,NNE,23,0.0,6.0,68,0.00,,---,0.00,VWS V14.01,2013-09-04 08:03:00,
2013-09-04 03:04:00,78.6,67.2,29.90,NNE,15,4.0,6.0,68,0.00,,---,0.00,VWS V14.01,2013-09-04 08:04:00,
2013-09-04 03:05:00,78.7,67.3,29.90,NNE,20,0.0,6.0,68,0.00,,---,0.00,VWS V14.01,2013-09-04 08:05:00,
2013-09-04 03:06:00,78.6,67.2,29.90,NNE,19,0.0,6.0,68,0.00,,---,0.00,VWS V14.01,2013-09-04 08:06:00,
2013-09-04 03:07:00,78.6,67.2,29.90,NNE,19,3.0,6.0,68,0.00,,---,0.00,VWS V14.01,2013-09-04 08:07:00,
2013-09-04 03:08:00,78.5,67.5,29.90,NNE,24,2.0,3.0,69,0.00,,---,0.00,VWS V14.01,2013-09-04 08:08:00,
2013-09-04 03:09:00,78.6,67.2,29.90,NNE,23,0.0,6.0,68,0.00,,---,0.00,VWS V14.01,2013-09-04 08:09:00,
2013-09-04 03:10:00,78.5,67.5,29.90,NNE,24,0.0,5.0,69,0.00,,---,0.00,VWS V14.01,2013-09-04 08:10:00,
2013-09-04 03:11:00,78.5,67.5,29.90,NNE,24,0.0,5.0,69,0.00,,---,0.00,VWS V14.01,2013-09-04 08:11:00,
2013-09-04 03:12:00,78.5,67.5,29.90,NNE,24,0.0,5.0,69,0.00,,---,0.00,VWS V14.01,2013-09-04 08:12:00,
2013-09-04 03:13:00,78.5,67.5,29.91,NNE,24,0.0,2.0,69,0.00,,---,0.00,VWS V14.01,2013-09-04 08:13:00,
2013-09-04 03:14:00,78.5,67.5,29.90,NNE,24,0.0,3.0,69,0.00,,---,0.00,VWS V14.01,2013-09-04 08:14:00,
2013-09-04 03:15:00,78.5,67.5,29.90,NNE,24,0.0,2.0,69,0.00,,---,0.00,VWS V14.01,2013-09-04 08:15:00,
2013-09-04 03:16:00,78.5,67.5,29.91,NNE,24,0.0,2.0,69,0.00,,---,0.00,VWS V14.01,2013-09-04 08:16:00,
2013-09-04 03:17:00,78.5,67.5,29.90,NNE,24,0.0,2.0,69,0.00,,---,0.00,VWS V14.01,2013-09-04 08:17:00,
2013-09-04 03:18:00,78.4,67.8,29.90,NNE,24,0.0,3.0,70,0.00,,---,0.00,VWS V14.01,2013-09-04 08:18:00,
2013-09-04 03:19:00,78.4,67.4,29.91,NNE,24,0.0,2.0,69,0.00,,---,0.00,VWS V14.01,2013-09-04 08:19:00,
2013-09-04 03:20:00,78.4,67.4,29.91,NNE,24,0.0,2.0,69,0.00,,---,0.00,VWS V14.01,2013-09-04 08:20:00,
2013-09-04 03:21:00,78.4,67.4,29.90,NNE,24,2.0,3.0,69,0.00,,---,0.00,VWS V14.01,2013-09-04 08:21:00,
2013-09-04 03:22:00,78.4,67.4,29.90,NNE,24,0.0,3.0,69,0.00,,---,0.00,VWS V14.01,2013-09-04 08:22:00,
2013-09-04 03:23:00,78.3,67.7,29.91,NNE,24,1.0,3.0,70,0.00,,---,0.00,VWS V14.01,2013-09-04 08:23:00,
2013-09-04 03:24:00,78.4,67.8,29.90,NNE,24,0.0,3.0,70,0.00,,---,0.00,VWS V14.01,2013-09-04 08:24:00,
2013-09-04 03:25:00,78.4,67.8,29.90,NNE,24,0.0,3.0,70,0.00,,---,0.00,VWS V14.01,2013-09-04 08:25:00,
2013-09-04 03:26:00,78.4,67.8,29.90,NNE,24,0.0,3.0,70,0.00,,---,0.00,VWS V14.01,2013-09-04 08:26:00,
2013-09-04 03:27:00,78.3,67.7,29.90,NNE,24,0.0,3.0,70,0.00,,---,0.00,VWS V14.01,2013-09-04 08:27:00,
2013-09-04 03:28:00,78.2,67.6,29.91,NNE,24,0.0,1.0,70,0.00,,---,0.00,VWS V14.01,2013-09-04 08:28:00,
2013-09-04 03:29:00,78.3,67.7,29.91,NNE,24,0.0,3.0,70,0.00,,---,0.00,VWS V14.01,2013-09-04 08:29:00,
2013-09-04 03:30:00,78.3,67.7,29.91,NNE,24,0.0,3.0,70,0.00,,---,0.00,VWS V14.01,2013-09-04 08:30:00,
2013-09-04 03:31:00,78.3,67.7,29.91,NNE,24,0.0,3.0,70,0.00,,---,0.00,VWS V14.01,2013-09-04 08:31:00,
2013-09-04 03:32:00,78.3,67.7,29.91,NNE,24,0.0,1.0,70,0.00,,---,0.00,VWS V14.01,2013-09-04 08:32:00,
2013-09-04 03:33:00,78.1,67.9,29.91,NNE,24,0.0,0.0,71,0.00,,---,0.00,VWS V14.01,2013-09-04 08:33:00,
2013-09-04 03:34:00,78.2,67.6,29.91,NNE,24,0.0,1.0,70,0.00,,---,0.00,VWS V14.01,2013-09-04 08:34:00,
2013-09-04 03:35:00,78.2,67.6,29.91,NNE,24,0.0,1.0,70,0.00,,---,0.00,VWS V14.01,2013-09-04 08:35:00,
2013-09-04 03:36:00,78.2,67.6,29.91,NNE,24,0.0,0.0,70,0.00,,---,0.00,VWS V14.01,2013-09-04 08:36:00,
2013-09-04 03:37:00,78.2,67.6,29.91,NNE,24,0.0,0.0,70,0.00,,---,0.00,VWS V14.01,2013-09-04 08:37:00,
2013-09-04 03:38:00,78.0,67.8,29.91,NNE,24,0.0,0.0,71,0.00,,---,0.00,VWS V14.01,2013-09-04 08:38:00,
2013-09-04 03:39:00,78.1,67.9,29.91,NNE,24,0.0,0.0,71,0.00,,---,0.00,VWS V14.01,2013-09-04 08:39:00,
2013-09-04 03:40:00,78.1,67.9,29.91,NNE,24,0.0,0.0,71,0.00,,---,0.00,VWS V14.01,2013-09-04 08:40:00,
2013-09-04 03:41:00,78.1,67.9,29.91,NNE,24,0.0,0.0,71,0.00,,---,0.00,VWS V14.01,2013-09-04 08:41:00,
2013-09-04 03:42:00,78.1,67.9,29.91,NNE,24,0.0,0.0,71,0.00,,---,0.00,VWS V14.01,2013-09-04 08:42:00,
2013-09-04 03:43:00,78.0,67.8,29.91,NNE,24,0.0,2.0,71,0.00,,---,0.00,VWS V14.01,2013-09-04 08:43:00,
2013-09-04 03:44:00,78.0,67.8,29.91,NNE,24,0.0,0.0,71,0.00,,---,0.00,VWS V14.01,2013-09-04 08:44:00,
2013-09-04 03:45:00,78.0,67.8,29.91,NNE,24,0.0,0.0,71,0.00,,---,0.00,VWS V14.01,2013-09-04 08:45:00,
2013-09-04 03:46:00,78.0,67.8,29.91,NNE,24,0.0,1.0,71,0.00,,---,0.00,VWS V14.01,2013-09-04 08:46:00,
2013-09-04 03:47:00,78.0,67.8,29.91,NNE,24,0.0,1.0,71,0.00,,---,0.00,VWS V14.01,2013-09-04 08:47:00,
2013-09-04 03:48:00,77.9,67.8,29.91,NNE,24,0.0,4.0,71,0.00,,---,0.00,VWS V14.01,2013-09-04 08:48:00,
2013-09-04 03:49:00,78.0,67.8,29.91,NNE,24,0.0,2.0,71,0.00,,---,0.00,VWS V14.01,2013-09-04 08:49:00,
2013-09-04 03:50:00,77.9,67.8,29.91,NNE,24,0.0,2.0,71,0.00,,---,0.00,VWS V14.01,2013-09-04 08:50:00,
2013-09-04 03:51:00,77.9,67.8,29.91,NNE,24,0.0,2.0,71,0.00,,---,0.00,VWS V14.01,2013-09-04 08:51:00,
2013-09-04 03:52:00,77.9,67.8,29.91,NNE,24,4.0,4.0,71,0.00,,---,0.00,VWS V14.01,2013-09-04 08:52:00,
2013-09-04 03:53:00,77.8,67.7,29.91,NNE,24,0.0,1.0,71,0.00,,---,0.00,VWS V14.01,2013-09-04 08:53:00,
2013-09-04 03:54:00,77.9,67.8,29.91,NNE,24,0.0,4.0,71,0.00,,---,0.00,VWS V14.01,2013-09-04 08:54:00,
2013-09-04 03:55:00,77.9,67.8,29.91,NNE,24,0.0,4.0,71,0.00,,---,0.00,VWS V14.01,2013-09-04 08:55:00,
2013-09-04 03:56:00,77.9,67.8,29.91,NNE,24,0.0,4.0,71,0.00,,---,0.00,VWS V14.01,2013-09-04 08:56:00,
2013-09-04 03:57:00,77.9,67.8,29.91,NNE,24,0.0,4.0,71,0.00,,---,0.00,VWS V14.01,2013-09-04 08:57:00,
2013-09-04 03:58:00,77.8,68.1,29.91,NNE,24,0.0,0.0,72,0.00,,---,0.00,VWS V14.01,2013-09-04 08:58:00,
2013-09-04 03:59:00,77.8,67.7,29.91,NNE,24,0.0,1.0,71,0.00,,---,0.00,VWS V14.01,2013-09-04 08:59:00,
2013-09-04 04:00:00,77.8,67.7,29.91,NNE,24,0.0,1.0,71,0.00,,---,0.00,VWS V14.01,2013-09-04 09:00:00,
2013-09-04 04:01:00,77.8,67.7,29.91,NNE,24,0.0,1.0,71,0.00,,---,0.00,VWS V14.01,2013-09-04 09:01:00,
2013-09-04 04:02:00,77.8,67.7,29.91,NNE,24,0.0,1.0,71,0.00,,---,0.00,VWS V14.01,2013-09-04 09:02:00,
2013-09-04 04:03:00,77.7,68.0,29.91,NNE,24,0.0,0.0,72,0.00,,---,0.00,VWS V14.01,2013-09-04 09:03:00,
2013-09-04 04:04:00,77.8,68.1,29.91,NNE,24,0.0,0.0,72,0.00,,---,0.00,VWS V14.01,2013-09-04 09:04:00,
2013-09-04 04:05:00,77.8,68.1,29.91,NNE,24,0.0,0.0,72,0.00,,---,0.00,VWS V14.01,2013-09-04 09:05:00,
2013-09-04 04:06:00,77.7,68.0,29.91,NNE,24,0.0,0.0,72,0.00,,---,0.00,VWS V14.01,2013-09-04 09:06:00,
2013-09-04 04:07:00,77.7,68.0,29.91,NNE,24,0.0,0.0,72,0.00,,---,0.00,VWS V14.01,2013-09-04 09:07:00,
2013-09-04 04:08:00,77.6,67.9,29.91,NNE,24,0.0,1.0,72,0.00,,---,0.00,VWS V14.01,2013-09-04 09:08:00,
2013-09-04 04:09:00,77.7,68.0,29.91,NNE,24,0.0,0.0,72,0.00,,---,0.00,VWS V14.01,2013-09-04 09:09:00,
2013-09-04 04:10:00,77.7,68.0,29.91,NNE,24,0.0,0.0,72,0.00,,---,0.00,VWS V14.01,2013-09-04 09:10:00,
2013-09-04 04:11:00,77.7,68.0,29.91,NNE,24,0.0,0.0,72,0.00,,---,0.00,VWS V14.01,2013-09-04 09:11:00,
2013-09-04 04:12:00,77.6,67.9,29.91,NNE,24,0.0,1.0,72,0.00,,---,0.00,VWS V14.01,2013-09-04 09:12:00,
2013-09-04 04:13:00,77.5,67.8,29.91,NNE,24,0.0,0.0,72,0.00,,---,0.00,VWS V14.01,2013-09-04 09:13:00,
2013-09-04 04:14:00,77.6,67.9,29.91,NNE,24,0.0,1.0,72,0.00,,---,0.00,VWS V14.01,2013-09-04 09:14:00,
2013-09-04 04:15:00,77.6,67.9,29.91,NNE,24,0.0,1.0,72,0.00,,---,0.00,VWS V14.01,2013-09-04 09:15:00,
2013-09-04 04:16:00,77.6,67.9,29.91,NNE,24,0.0,1.0,72,0.00,,---,0.00,VWS V14.01,2013-09-04 09:16:00,
2013-09-04 04:17:00,77.5,67.8,29.91,NNE,24,0.0,1.0,72,0.00,,---,0.00,VWS V14.01,2013-09-04 09:17:00,
2013-09-04 04:18:00,77.4,68.1,29.91,NNE,24,0.0,0.0,73,0.00,,---,0.00,VWS V14.01,2013-09-04 09:18:00,
2013-09-04 04:19:00,77.5,67.8,29.91,NNE,24,0.0,0.0,72,0.00,,---,0.00,VWS V14.01,2013-09-04 09:19:00,
2013-09-04 04:20:00,77.5,67.8,29.91,NNE,24,0.0,0.0,72,0.00,,---,0.00,VWS V14.01,2013-09-04 09:20:00,
2013-09-04 04:21:00,77.5,68.2,29.91,NNE,24,0.0,0.0,73,0.00,,---,0.00,VWS V14.01,2013-09-04 09:21:00,
2013-09-04 04:22:00,77.4,67.7,29.91,NNE,24,0.0,0.0,72,0.00,,---,0.00,VWS V14.01,2013-09-04 09:22:00,
2013-09-04 04:23:00,77.3,68.0,29.91,NNE,24,0.0,0.0,73,0.00,,---,0.00,VWS V14.01,2013-09-04 09:23:00,
2013-09-04 04:24:00,77.4,68.1,29.91,NNE,24,0.0,0.0,73,0.00,,---,0.00,VWS V14.01,2013-09-04 09:24:00,
2013-09-04 04:25:00,77.4,68.1,29.91,NNE,24,0.0,0.0,73,0.00,,---,0.00,VWS V14.01,2013-09-04 09:25:00,
2013-09-04 04:26:00,77.3,68.0,29.91,NNE,24,0.0,0.0,73,0.00,,---,0.00,VWS V14.01,2013-09-04 09:26:00,
2013-09-04 04:27:00,77.3,68.0,29.91,NNE,24,0.0,0.0,73,0.00,,---,0.00,VWS V14.01,2013-09-04 09:27:00,
2013-09-04 04:28:00,77.1,68.2,29.91,NNE,24,0.0,0.0,74,0.00,,---,0.00,VWS V14.01,2013-09-04 09:28:00,
2013-09-04 04:29:00,77.3,68.0,29.91,NNE,24,0.0,0.0,73,0.00,,---,0.00,VWS V14.01,2013-09-04 09:29:00,
2013-09-04 04:30:00,77.3,68.0,29.91,NNE,24,0.0,0.0,73,0.00,,---,0.00,VWS V14.01,2013-09-04 09:30:00,
2013-09-04 04:31:00,77.2,67.9,29.91,NNE,24,0.0,0.0,73,0.00,,---,0.00,VWS V14.01,2013-09-04 09:31:00,
2013-09-04 04:32:00,77.2,67.9,29.91,NNE,24,0.0,0.0,73,0.00,,---,0.00,VWS V14.01,2013-09-04 09:32:00,
2013-09-04 04:33:00,77.1,68.2,29.91,NNE,24,0.0,0.0,74,0.00,,---,0.00,VWS V14.01,2013-09-04 09:33:00,
2013-09-04 04:34:00,77.2,68.3,29.91,NNE,24,0.0,0.0,74,0.00,,---,0.00,VWS V14.01,2013-09-04 09:34:00,
2013-09-04 04:35:00,77.1,68.2,29.92,NNE,24,0.0,0.0,74,0.00,,---,0.00,VWS V14.01,2013-09-04 09:35:00,
2013-09-04 04:36:00,77.1,68.2,29.92,NNE,24,0.0,0.0,74,0.00,,---,0.00,VWS V14.01,2013-09-04 09:36:00,
2013-09-04 04:37:00,77.1,68.2,29.91,NNE,24,0.0,0.0,74,0.00,,---,0.00,VWS V14.01,2013-09-04 09:37:00,
2013-09-04 04:38:00,76.9,68.0,29.92,NNE,24,0.0,0.0,74,0.00,,---,0.00,VWS V14.01,2013-09-04 09:38:00,
2013-09-04 04:39:00,77.0,68.1,29.91,NNE,24,0.0,0.0,74,0.00,,---,0.00,VWS V14.01,2013-09-04 09:39:00,
2013-09-04 04:40:00,77.0,68.1,29.92,NNE,24,0.0,0.0,74,0.00,,---,0.00,VWS V14.01,2013-09-04 09:40:00,
2013-09-04 04:41:00,77.0,68.1,29.92,NNE,24,0.0,0.0,74,0.00,,---,0.00,VWS V14.01,2013-09-04 09:41:00,
2013-09-04 04:42:00,77.0,68.1,29.92,NNE,24,0.0,0.0,74,0.00,,---,0.00,VWS V14.01,2013-09-04 09:42:00,
2013-09-04 04:43:00,76.8,68.3,29.92,NNE,24,0.0,0.0,75,0.00,,---,0.00,VWS V14.01,2013-09-04 09:43:00,
2013-09-04 04:44:00,76.9,68.0,29.92,NNE,24,0.0,0.0,74,0.00,,---,0.00,VWS V14.01,2013-09-04 09:44:00,
2013-09-04 04:45:00,76.9,68.0,29.92,NNE,24,0.0,0.0,74,0.00,,---,0.00,VWS V14.01,2013-09-04 09:45:00,
2013-09-04 04:46:00,76.9,68.0,29.92,NNE,24,0.0,0.0,74,0.00,,---,0.00,VWS V14.01,2013-09-04 09:46:00,
2013-09-04 04:47:00,76.9,68.4,29.92,NNE,24,0.0,0.0,75,0.00,,---,0.00,VWS V14.01,2013-09-04 09:47:00,
2013-09-04 04:48:00,76.7,68.2,29.92,NNE,24,0.0,0.0,75,0.00,,---,0.00,VWS V14.01,2013-09-04 09:48:00,
2013-09-04 04:49:00,76.8,68.3,29.92,NNE,24,0.0,0.0,75,0.00,,---,0.00,VWS V14.01,2013-09-04 09:49:00,
2013-09-04 04:50:00,76.8,68.3,29.92,NNE,24,0.0,0.0,75,0.00,,---,0.00,VWS V14.01,2013-09-04 09:50:00,
2013-09-04 04:51:00,76.8,68.3,29.92,NNE,24,0.0,0.0,75,0.00,,---,0.00,VWS V14.01,2013-09-04 09:51:00,
2013-09-04 04:52:00,76.7,68.2,29.92,NNE,24,0.0,0.0,75,0.00,,---,0.00,VWS V14.01,2013-09-04 09:52:00,
2013-09-04 04:53:00,76.6,68.1,29.92,NNE,24,0.0,0.0,75,0.00,,---,0.00,VWS V14.01,2013-09-04 09:53:00,
2013-09-04 04:54:00,76.7,68.2,29.92,NNE,24,0.0,0.0,75,0.00,,---,0.00,VWS V14.01,2013-09-04 09:54:00,
2013-09-04 04:55:00,76.7,68.2,29.92,NNE,24,0.0,0.0,75,0.00,,---,0.00,VWS V14.01,2013-09-04 09:55:00,
2013-09-04 04:56:00,76.7,68.2,29.92,NNE,24,0.0,0.0,75,0.00,,---,0.00,VWS V14.01,2013-09-04 09:56:00,
2013-09-04 04:57:00,76.7,68.2,29.92,NNE,24,0.0,0.0,75,0.00,,---,0.00,VWS V14.01,2013-09-04 09:57:00,
2013-09-04 04:58:00,76.5,68.4,29.92,NNE,24,0.0,0.0,76,0.00,,---,0.00,VWS V14.01,2013-09-04 09:58:00,
2013-09-04 04:59:00,76.6,68.1,29.92,NNE,24,0.0,0.0,75,0.00,,---,0.00,VWS V14.01,2013-09-04 09:59:00,
2013-09-04 05:00:00,76.6,68.1,29.92,NNE,24,0.0,0.0,75,0.00,,---,0.00,VWS V14.01,2013-09-04 10:00:00,
2013-09-04 05:01:00,76.6,68.1,29.92,NNE,24,0.0,0.0,75,0.00,,---,0.00,VWS V14.01,2013-09-04 10:01:00,
2013-09-04 05:02:00,76.6,68.5,29.92,NNE,24,0.0,0.0,76,0.00,,---,0.00,VWS V14.01,2013-09-04 10:02:00,
2013-09-04 05:03:00,76.4,68.3,29.92,NNE,24,0.0,0.0,76,0.00,,---,0.00,VWS V14.01,2013-09-04 10:03:00,
2013-09-04 05:04:00,76.5,68.4,29.92,NNE,24,0.0,0.0,76,0.00,,---,0.00,VWS V14.01,2013-09-04 10:04:00,
2013-09-04 05:05:00,76.5,68.4,29.91,NNE,24,0.0,0.0,76,0.00,,---,0.00,VWS V14.01,2013-09-04 10:05:00,
2013-09-04 05:06:00,76.5,68.4,29.92,NNE,24,0.0,0.0,76,0.00,,---,0.00,VWS V14.01,2013-09-04 10:06:00,
2013-09-04 05:07:00,76.4,68.3,29.92,NNE,24,0.0,0.0,76,0.00,,---,0.00,VWS V14.01,2013-09-04 10:07:00,
2013-09-04 05:08:00,76.3,68.2,29.92,NNE,24,0.0,0.0,76,0.00,,---,0.00,VWS V14.01,2013-09-04 10:08:00,
2013-09-04 05:09:00,76.4,68.3,29.92,NNE,24,0.0,0.0,76,0.00,,---,0.00,VWS V14.01,2013-09-04 10:09:00,
2013-09-04 05:10:00,76.4,68.3,29.92,NNE,24,0.0,0.0,76,0.00,,---,0.00,VWS V14.01,2013-09-04 10:10:00,
2013-09-04 05:11:00,76.4,68.3,29.92,NNE,24,0.0,0.0,76,0.00,,---,0.00,VWS V14.01,2013-09-04 10:11:00,
2013-09-04 05:12:00,76.4,68.3,29.92,NNE,24,0.0,0.0,76,0.00,,---,0.00,VWS V14.01,2013-09-04 10:12:00,
2013-09-04 05:13:00,76.2,68.5,29.92,NNE,24,0.0,0.0,77,0.00,,---,0.00,VWS V14.01,2013-09-04 10:13:00,
2013-09-04 05:14:00,76.3,68.2,29.92,NNE,24,0.0,0.0,76,0.00,,---,0.00,VWS V14.01,2013-09-04 10:14:00,
2013-09-04 05:15:00,76.3,68.6,29.92,NNE,24,0.0,0.0,77,0.00,,---,0.00,VWS V14.01,2013-09-04 10:15:00,
2013-09-04 05:16:00,76.3,68.6,29.92,NNE,24,0.0,0.0,77,0.00,,---,0.00,VWS V14.01,2013-09-04 10:16:00,
2013-09-04 05:17:00,76.2,68.5,29.92,NNE,24,0.0,0.0,77,0.00,,---,0.00,VWS V14.01,2013-09-04 10:17:00,
2013-09-04 05:18:00,76.3,68.6,29.92,NNE,24,0.0,0.0,77,0.00,,---,0.00,VWS V14.01,2013-09-04 10:18:00,
2013-09-04 05:19:00,76.2,68.5,29.92,NNE,24,0.0,0.0,77,0.00,,---,0.00,VWS V14.01,2013-09-04 10:19:00,
2013-09-04 05:20:00,76.2,68.5,29.92,NNE,24,0.0,0.0,77,0.00,,---,0.00,VWS V14.01,2013-09-04 10:20:00,
2013-09-04 05:21:00,76.2,68.5,29.92,NNE,24,0.0,0.0,77,0.00,,---,0.00,VWS V14.01,2013-09-04 10:21:00,
2013-09-04 05:22:00,76.0,68.3,29.92,NNE,24,0.0,0.0,77,0.00,,---,0.00,VWS V14.01,2013-09-04 10:22:00,
2013-09-04 05:23:00,76.2,68.5,29.92,NNE,24,0.0,0.0,77,0.00,,---,0.00,VWS V14.01,2013-09-04 10:23:00,
2013-09-04 05:24:00,76.2,68.5,29.92,NNE,24,0.0,0.0,77,0.00,,---,0.00,VWS V14.01,2013-09-04 10:24:00,
2013-09-04 05:25:00,76.1,68.4,29.92,NNE,24,0.0,0.0,77,0.00,,---,0.00,VWS V14.01,2013-09-04 10:25:00,
2013-09-04 05:26:00,76.1,68.4,29.92,NNE,24,0.0,0.0,77,0.00,,---,0.00,VWS V14.01,2013-09-04 10:26:00,
2013-09-04 05:27:00,76.0,68.3,29.92,NNE,24,0.0,0.0,77,0.00,,---,0.00,VWS V14.01,2013-09-04 10:27:00,
2013-09-04 05:28:00,76.1,68.4,29.92,NNE,24,0.0,0.0,77,0.00,,---,0.00,VWS V14.01,2013-09-04 10:28:00,
2013-09-04 05:29:00,76.1,68.4,29.92,NNE,24,0.0,0.0,77,0.00,,---,0.00,VWS V14.01,2013-09-04 10:29:00,
2013-09-04 05:30:00,76.0,68.3,29.93,NNE,24,0.0,0.0,77,0.00,,---,0.00,VWS V14.01,2013-09-04 10:30:00,
2013-09-04 05:31:00,76.0,68.3,29.93,NNE,24,0.0,0.0,77,0.00,,---,0.00,VWS V14.01,2013-09-04 10:31:00,
2013-09-04 05:32:00,75.8,68.1,29.92,NNE,24,0.0,0.0,77,0.00,,---,0.00,VWS V14.01,2013-09-04 10:32:00,
2013-09-04 05:33:00,76.0,68.3,29.92,NNE,24,0.0,0.0,77,0.00,,---,0.00,VWS V14.01,2013-09-04 10:33:00,
2013-09-04 05:34:00,76.0,68.3,29.92,NNE,24,0.0,0.0,77,0.00,,---,0.00,VWS V14.01,2013-09-04 10:34:00,
2013-09-04 05:35:00,75.9,68.2,29.92,NNE,24,0.0,0.0,77,0.00,,---,0.00,VWS V14.01,2013-09-04 10:35:00,
2013-09-04 05:36:00,75.9,68.2,29.92,NNE,24,0.0,0.0,77,0.00,,---,0.00,VWS V14.01,2013-09-04 10:36:00,
2013-09-04 05:37:00,75.7,68.4,29.92,NNE,24,0.0,0.0,78,0.00,,---,0.00,VWS V14.01,2013-09-04 10:37:00,
2013-09-04 05:38:00,75.8,68.1,29.92,NNE,24,0.0,0.0,77,0.00,,---,0.00,VWS V14.01,2013-09-04 10:38:00,
2013-09-04 05:39:00,75.8,68.1,29.92,NNE,24,0.0,0.0,77,0.00,,---,0.00,VWS V14.01,2013-09-04 10:39:00,
2013-09-04 05:40:00,75.8,68.1,29.92,NNE,24,0.0,0.0,77,0.00,,---,0.00,VWS V14.01,2013-09-04 10:40:00,
2013-09-04 05:41:00,75.7,68.0,29.92,NNE,24,0.0,0.0,77,0.00,,---,0.00,VWS V14.01,2013-09-04 10:41:00,
2013-09-04 05:42:00,75.5,68.2,29.93,NNE,24,0.0,0.0,78,0.00,,---,0.00,VWS V14.01,2013-09-04 10:42:00,
2013-09-04 05:43:00,75.7,68.0,29.93,NNE,24,0.0,0.0,77,0.00,,---,0.00,VWS V14.01,2013-09-04 10:43:00,
2013-09-04 05:44:00,75.7,68.4,29.92,NNE,24,0.0,0.0,78,0.00,,---,0.00,VWS V14.01,2013-09-04 10:44:00,
2013-09-04 05:45:00,75.6,68.3,29.93,NNE,24,0.0,0.0,78,0.00,,---,0.00,VWS V14.01,2013-09-04 10:45:00,
2013-09-04 05:46:00,75.6,68.3,29.93,NNE,24,0.0,0.0,78,0.00,,---,0.00,VWS V14.01,2013-09-04 10:46:00,
2013-09-04 05:47:00,75.3,68.3,29.93,NNE,24,0.0,0.0,79,0.00,,---,0.00,VWS V14.01,2013-09-04 10:47:00,
2013-09-04 05:48:00,75.5,68.2,29.93,NNE,24,0.0,0.0,78,0.00,,---,0.00,VWS V14.01,2013-09-04 10:48:00,
2013-09-04 05:49:00,75.5,68.2,29.93,NNE,24,0.0,0.0,78,0.00,,---,0.00,VWS V14.01,2013-09-04 10:49:00,
2013-09-04 05:50:00,75.4,68.1,29.93,NNE,24,0.0,0.0,78,0.00,,---,0.00,VWS V14.01,2013-09-04 10:50:00,
2013-09-04 05:51:00,75.4,68.1,29.93,NNE,24,0.0,0.0,78,0.00,,---,0.00,VWS V14.01,2013-09-04 10:51:00,
2013-09-04 05:52:00,75.1,68.2,29.93,NNE,24,0.0,0.0,79,0.00,,---,0.00,VWS V14.01,2013-09-04 10:52:00,
2013-09-04 05:53:00,75.3,68.3,29.93,NNE,24,0.0,0.0,79,0.00,,---,0.00,VWS V14.01,2013-09-04 10:53:00,
2013-09-04 05:54:00,75.3,68.3,29.93,NNE,24,0.0,0.0,79,0.00,,---,0.00,VWS V14.01,2013-09-04 10:54:00,
2013-09-04 05:55:00,75.3,68.3,29.93,NNE,24,0.0,0.0,79,0.00,,---,0.00,VWS V14.01,2013-09-04 10:55:00,
2013-09-04 05:56:00,75.2,68.2,29.93,NNE,24,0.0,0.0,79,0.00,,---,0.00,VWS V14.01,2013-09-04 10:56:00,
2013-09-04 05:57:00,75.0,68.4,29.93,NNE,24,0.0,0.0,80,0.00,,---,0.00,VWS V14.01,2013-09-04 10:57:00,
2013-09-04 05:58:00,75.2,68.2,29.93,NNE,24,0.0,0.0,79,0.00,,---,0.00,VWS V14.01,2013-09-04 10:58:00,
2013-09-04 05:59:00,75.1,68.2,29.93,NNE,24,0.0,0.0,79,0.00,,---,0.00,VWS V14.01,2013-09-04 10:59:00,
2013-09-04 06:00:00,75.1,68.2,29.93,NNE,24,0.0,0.0,79,0.00,,---,0.00,VWS V14.01,2013-09-04 11:00:00,
2013-09-04 06:01:00,75.1,68.5,29.93,NNE,24,0.0,0.0,80,0.00,,---,0.00,VWS V14.01,2013-09-04 11:01:00,
2013-09-04 06:02:00,74.9,68.7,29.94,NNE,24,0.0,0.0,81,0.00,,---,0.00,VWS V14.01,2013-09-04 11:02:00,
2013-09-04 06:03:00,75.0,68.4,29.93,NNE,24,0.0,0.0,80,0.00,,---,0.00,VWS V14.01,2013-09-04 11:03:00,
2013-09-04 06:04:00,75.0,68.4,29.93,NNE,24,0.0,0.0,80,0.00,,---,0.00,VWS V14.01,2013-09-04 11:04:00,
2013-09-04 06:05:00,75.0,68.4,29.93,NNE,24,0.0,0.0,80,0.00,,---,0.00,VWS V14.01,2013-09-04 11:05:00,
2013-09-04 06:06:00,74.9,68.3,29.94,NNE,24,0.0,0.0,80,0.00,,---,0.00,VWS V14.01,2013-09-04 11:06:00,
2013-09-04 06:07:00,74.8,68.6,29.94,NNE,24,0.0,0.0,81,0.00,,---,0.00,VWS V14.01,2013-09-04 11:07:00,
2013-09-04 06:08:00,74.9,68.3,29.93,NNE,24,0.0,0.0,80,0.00,,---,0.00,VWS V14.01,2013-09-04 11:08:00,
2013-09-04 06:09:00,74.9,68.7,29.94,NNE,24,0.0,0.0,81,0.00,,---,0.00,VWS V14.01,2013-09-04 11:09:00,
2013-09-04 06:10:00,74.9,68.7,29.94,NNE,24,0.0,0.0,81,0.00,,---,0.00,VWS V14.01,2013-09-04 11:10:00,
2013-09-04 06:11:00,74.9,68.7,29.94,NNE,24,0.0,0.0,81,0.00,,---,0.00,VWS V14.01,2013-09-04 11:11:00,
2013-09-04 06:12:00,74.8,68.6,29.94,NNE,24,0.0,0.0,81,0.00,,---,0.00,VWS V14.01,2013-09-04 11:12:00,
2013-09-04 06:13:00,74.8,68.6,29.94,NNE,24,0.0,0.0,81,0.00,,---,0.00,VWS V14.01,2013-09-04 11:13:00,
2013-09-04 06:14:00,74.8,68.6,29.94,NNE,24,0.0,0.0,81,0.00,,---,0.00,VWS V14.01,2013-09-04 11:14:00,
2013-09-04 06:15:00,74.8,68.6,29.94,NNE,24,0.0,0.0,81,0.00,,---,0.00,VWS V14.01,2013-09-04 11:15:00,
2013-09-04 06:16:00,74.8,68.6,29.94,NNE,24,0.0,0.0,81,0.00,,---,0.00,VWS V14.01,2013-09-04 11:16:00,
2013-09-04 06:17:00,74.7,68.5,29.94,NNE,24,0.0,0.0,81,0.00,,---,0.00,VWS V14.01,2013-09-04 11:17:00,
2013-09-04 06:18:00,74.8,68.6,29.94,NNE,24,0.0,0.0,81,0.00,,---,0.00,VWS V14.01,2013-09-04 11:18:00,
2013-09-04 06:19:00,74.8,68.6,29.94,NNE,24,0.0,0.0,81,0.00,,---,0.00,VWS V14.01,2013-09-04 11:19:00,
2013-09-04 06:20:00,74.7,68.5,29.94,NNE,24,0.0,0.0,81,0.00,,---,0.00,VWS V14.01,2013-09-04 11:20:00,
2013-09-04 06:21:00,74.7,68.5,29.94,NNE,24,0.0,0.0,81,0.00,,---,0.00,VWS V14.01,2013-09-04 11:21:00,
2013-09-04 06:22:00,74.6,68.4,29.94,NNE,24,0.0,0.0,81,0.00,,---,0.00,VWS V14.01,2013-09-04 11:22:00,
2013-09-04 06:23:00,74.7,68.5,29.94,NNE,24,0.0,0.0,81,0.00,,---,0.00,VWS V14.01,2013-09-04 11:23:00,
2013-09-04 06:24:00,74.7,68.5,29.94,NNE,24,0.0,0.0,81,0.00,,---,0.00,VWS V14.01,2013-09-04 11:24:00,
2013-09-04 06:25:00,74.7,68.5,29.94,NNE,24,0.0,0.0,81,0.00,,---,0.00,VWS V14.01,2013-09-04 11:25:00,
2013-09-04 06:26:00,74.7,68.5,29.94,NNE,24,0.0,0.0,81,0.00,,---,0.00,VWS V14.01,2013-09-04 11:26:00,
2013-09-04 06:27:00,74.6,68.8,29.94,NNE,24,0.0,0.0,82,0.00,,---,0.00,VWS V14.01,2013-09-04 11:27:00,
2013-09-04 06:28:00,74.6,68.4,29.94,NNE,24,0.0,0.0,81,0.00,,---,0.00,VWS V14.01,2013-09-04 11:28:00,
2013-09-04 06:29:00,74.6,68.4,29.94,NNE,24,0.0,0.0,81,0.00,,---,0.00,VWS V14.01,2013-09-04 11:29:00,
2013-09-04 06:30:00,74.6,68.4,29.94,NNE,24,0.0,0.0,81,0.00,,---,0.00,VWS V14.01,2013-09-04 11:30:00,
2013-09-04 06:31:00,74.6,68.4,29.94,NNE,24,0.0,0.0,81,0.00,,---,0.00,VWS V14.01,2013-09-04 11:31:00,
2013-09-04 06:32:00,74.5,68.3,29.95,NNE,24,0.0,0.0,81,0.00,,---,0.00,VWS V14.01,2013-09-04 11:32:00,
2013-09-04 06:33:00,74.6,68.8,29.94,NNE,24,0.0,0.0,82,0.00,,---,0.00,VWS V14.01,2013-09-04 11:33:00,
2013-09-04 06:34:00,74.5,68.7,29.94,NNE,24,0.0,0.0,82,0.00,,---,0.00,VWS V14.01,2013-09-04 11:34:00,
2013-09-04 06:35:00,74.5,68.7,29.94,NNE,24,0.0,0.0,82,0.00,,---,0.00,VWS V14.01,2013-09-04 11:35:00,
2013-09-04 06:36:00,74.5,68.7,29.95,NNE,24,0.0,0.0,82,0.00,,---,0.00,VWS V14.01,2013-09-04 11:36:00,
2013-09-04 06:37:00,74.4,68.2,29.95,NNE,24,0.0,0.0,81,0.00,,---,0.00,VWS V14.01,2013-09-04 11:37:00,
2013-09-04 06:38:00,74.5,68.3,29.94,NNE,24,0.0,0.0,81,0.00,,---,0.00,VWS V14.01,2013-09-04 11:38:00,
2013-09-04 06:39:00,74.5,68.3,29.95,NNE,24,0.0,0.0,81,0.00,,---,0.00,VWS V14.01,2013-09-04 11:39:00,
2013-09-04 06:40:00,74.4,68.2,29.95,NNE,24,0.0,0.0,81,0.00,,---,0.00,VWS V14.01,2013-09-04 11:40:00,
2013-09-04 06:41:00,74.4,68.2,29.95,NNE,24,0.0,0.0,81,0.00,,---,0.00,VWS V14.01,2013-09-04 11:41:00,
2013-09-04 06:42:00,74.2,68.4,29.95,NNE,24,0.0,0.0,82,0.00,,---,0.00,VWS V14.01,2013-09-04 11:42:00,
2013-09-04 06:43:00,74.4,68.2,29.95,NNE,24,0.0,0.0,81,0.00,,---,0.00,VWS V14.01,2013-09-04 11:43:00,
2013-09-04 06:45:00,74.3,68.1,29.95,NNE,24,0.0,0.0,81,0.00,,---,0.00,VWS V14.01,2013-09-04 11:45:00,
2013-09-04 06:46:00,74.3,68.1,29.95,NNE,24,0.0,0.0,81,0.00,,---,0.00,VWS V14.01,2013-09-04 11:46:00,
2013-09-04 06:47:00,74.2,68.4,29.95,NNE,24,0.0,0.0,82,0.00,,---,0.00,VWS V14.01,2013-09-04 11:47:00,
2013-09-04 06:48:00,74.2,68.4,29.95,NNE,24,0.0,0.0,82,0.00,,---,0.00,VWS V14.01,2013-09-04 11:48:00,
2013-09-04 06:49:00,74.2,68.4,29.95,NNE,24,0.0,0.0,82,0.00,,---,0.00,VWS V14.01,2013-09-04 11:49:00,
2013-09-04 06:50:00,74.2,68.4,29.95,NNE,24,0.0,0.0,82,0.00,,---,0.00,VWS V14.01,2013-09-04 11:50:00,
2013-09-04 06:51:00,74.2,68.4,29.95,NNE,24,0.0,0.0,82,0.00,,---,0.00,VWS V14.01,2013-09-04 11:51:00,
2013-09-04 06:52:00,74.1,68.3,29.95,NNE,24,0.0,0.0,82,0.00,,---,0.00,VWS V14.01,2013-09-04 11:52:00,
2013-09-04 06:53:00,74.2,68.4,29.95,NNE,24,0.0,0.0,82,0.00,,---,0.00,VWS V14.01,2013-09-04 11:53:00,
2013-09-04 06:54:00,74.2,68.4,29.95,NNE,24,0.0,0.0,82,0.00,,---,0.00,VWS V14.01,2013-09-04 11:54:00,
2013-09-04 06:55:00,74.1,68.3,29.95,NNE,24,0.0,0.0,82,0.00,,---,0.00,VWS V14.01,2013-09-04 11:55:00,
2013-09-04 06:56:00,74.1,68.3,29.95,NNE,24,0.0,0.0,82,0.00,,---,0.00,VWS V14.01,2013-09-04 11:56:00,
2013-09-04 06:57:00,74.0,68.5,29.95,NNE,24,0.0,0.0,83,0.00,,---,0.00,VWS V14.01,2013-09-04 11:57:00,
2013-09-04 06:58:00,74.1,68.3,29.95,NNE,24,0.0,0.0,82,0.00,,---,0.00,VWS V14.01,2013-09-04 11:58:00,
2013-09-04 06:59:00,74.1,68.3,29.95,NNE,24,0.0,0.0,82,0.00,,---,0.00,VWS V14.01,2013-09-04 11:59:00,
2013-09-04 07:00:00,74.1,68.6,29.95,NNE,24,0.0,0.0,83,0.00,,---,0.00,VWS V14.01,2013-09-04 12:00:00,
2013-09-04 07:01:00,74.0,68.5,29.95,NNE,24,0.0,0.0,83,0.00,,---,0.00,VWS V14.01,2013-09-04 12:01:00,
2013-09-04 07:02:00,74.0,68.5,29.95,NNE,24,0.0,0.0,83,0.00,,---,0.00,VWS V14.01,2013-09-04 12:02:00,
2013-09-04 07:04:00,74.0,68.5,29.95,NNE,24,0.0,0.0,83,0.00,,---,0.00,VWS V14.01,2013-09-04 12:04:00,
2013-09-04 07:05:00,74.0,68.5,29.95,NNE,24,0.0,0.0,83,0.00,,---,0.00,VWS V14.01,2013-09-04 12:05:00,
2013-09-04 07:06:00,74.0,68.5,29.95,NNE,24,0.0,0.0,83,0.00,,---,0.00,VWS V14.01,2013-09-04 12:06:00,
2013-09-04 07:07:00,74.0,68.5,29.95,NNE,24,0.0,0.0,83,0.00,,---,0.00,VWS V14.01,2013-09-04 12:07:00,
2013-09-04 07:08:00,74.0,68.5,29.95,NNE,24,0.0,0.0,83,0.00,,---,0.00,VWS V14.01,2013-09-04 12:08:00,
2013-09-04 07:09:00,74.0,68.5,29.95,NNE,24,0.0,0.0,83,0.00,,---,0.00,VWS V14.01,2013-09-04 12:09:00,
2013-09-04 07:10:00,74.0,68.5,29.95,NNE,24,0.0,0.0,83,0.00,,---,0.00,VWS V14.01,2013-09-04 12:10:00,
2013-09-04 07:11:00,74.0,68.5,29.95,NNE,24,0.0,0.0,83,0.00,,---,0.00,VWS V14.01,2013-09-04 12:11:00,
2013-09-04 07:12:00,74.0,68.5,29.95,NNE,24,0.0,0.0,83,0.00,,---,0.00,VWS V14.01,2013-09-04 12:12:00,
2013-09-04 07:13:00,74.0,68.5,29.95,NNE,24,0.0,0.0,83,0.00,,---,0.00,VWS V14.01,2013-09-04 12:13:00,
2013-09-04 07:14:00,74.0,68.5,29.95,NNE,24,0.0,0.0,83,0.00,,---,0.00,VWS V14.01,2013-09-04 12:14:00,
2013-09-04 07:15:00,74.0,68.5,29.95,NNE,24,0.0,0.0,83,0.00,,---,0.00,VWS V14.01,2013-09-04 12:15:00,
2013-09-04 07:16:00,74.0,68.5,29.95,NNE,24,0.0,0.0,83,0.00,,---,0.00,VWS V14.01,2013-09-04 12:16:00,
2013-09-04 07:17:00,74.0,68.5,29.95,NNE,24,0.0,0.0,83,0.00,,---,0.00,VWS V14.01,2013-09-04 12:17:00,
2013-09-04 07:18:00,74.0,68.5,29.95,NNE,24,0.0,0.0,83,0.00,,---,0.00,VWS V14.01,2013-09-04 12:18:00,
2013-09-04 07:19:00,74.0,68.5,29.95,NNE,24,0.0,0.0,83,0.00,,---,0.00,VWS V14.01,2013-09-04 12:19:00,
2013-09-04 07:20:00,74.0,68.5,29.96,NNE,24,0.0,0.0,83,0.00,,---,0.00,VWS V14.01,2013-09-04 12:20:00,
2013-09-04 07:21:00,74.0,68.5,29.95,NNE,24,0.0,0.0,83,0.00,,---,0.00,VWS V14.01,2013-09-04 12:21:00,
2013-09-04 07:22:00,74.0,68.5,29.95,NNE,24,0.0,0.0,83,0.00,,---,0.00,VWS V14.01,2013-09-04 12:22:00,
2013-09-04 07:23:00,74.0,68.5,29.95,NNE,24,0.0,0.0,83,0.00,,---,0.00,VWS V14.01,2013-09-04 12:23:00,
2013-09-04 07:24:00,74.0,68.5,29.95,NNE,24,0.0,0.0,83,0.00,,---,0.00,VWS V14.01,2013-09-04 12:24:00,
2013-09-04 07:25:00,74.0,68.5,29.95,NNE,24,0.0,0.0,83,0.00,,---,0.00,VWS V14.01,2013-09-04 12:25:00,
2013-09-04 07:26:00,74.0,68.5,29.96,NNE,24,0.0,0.0,83,0.00,,---,0.00,VWS V14.01,2013-09-04 12:26:00,
2013-09-04 07:27:00,74.1,68.6,29.96,NNE,24,0.0,0.0,83,0.00,,---,0.00,VWS V14.01,2013-09-04 12:27:00,
2013-09-04 07:28:00,74.0,68.5,29.95,NNE,24,0.0,0.0,83,0.00,,---,0.00,VWS V14.01,2013-09-04 12:28:00,
2013-09-04 07:29:00,74.1,68.6,29.95,NNE,24,0.0,0.0,83,0.00,,---,0.00,VWS V14.01,2013-09-04 12:29:00,
2013-09-04 07:30:00,74.1,68.6,29.95,NNE,24,0.0,0.0,83,0.00,,---,0.00,VWS V14.01,2013-09-04 12:30:00,
2013-09-04 07:31:00,74.1,68.6,29.95,NNE,24,0.0,0.0,83,0.00,,---,0.00,VWS V14.01,2013-09-04 12:31:00,
2013-09-04 07:32:00,74.2,68.7,29.96,NNE,24,0.0,0.0,83,0.00,,---,0.00,VWS V14.01,2013-09-04 12:32:00,
2013-09-04 07:33:00,74.1,68.6,29.96,NNE,24,0.0,0.0,83,0.00,,---,0.00,VWS V14.01,2013-09-04 12:33:00,
2013-09-04 07:34:00,74.1,68.6,29.96,NNE,24,0.0,0.0,83,0.00,,---,0.00,VWS V14.01,2013-09-04 12:34:00,
2013-09-04 07:35:00,74.1,68.6,29.96,NNE,24,0.0,0.0,83,0.00,,---,0.00,VWS V14.01,2013-09-04 12:35:00,
2013-09-04 07:36:00,74.2,68.7,29.96,NNE,24,0.0,0.0,83,0.00,,---,0.00,VWS V14.01,2013-09-04 12:36:00,
2013-09-04 07:37:00,74.3,69.2,29.96,NNE,24,0.0,0.0,84,0.00,,---,0.00,VWS V14.01,2013-09-04 12:37:00,
2013-09-04 07:38:00,74.2,68.7,29.96,NNE,24,0.0,0.0,83,0.00,,---,0.00,VWS V14.01,2013-09-04 12:38:00,
2013-09-04 07:39:00,74.2,69.1,29.96,NNE,24,0.0,0.0,84,0.00,,---,0.00,VWS V14.01,2013-09-04 12:39:00,
2013-09-04 07:41:00,74.2,69.1,29.97,NNE,24,0.0,0.0,84,0.00,,---,0.00,VWS V14.01,2013-09-04 12:41:00,
2013-09-04 07:42:00,74.4,69.3,29.97,NNE,24,0.0,0.0,84,0.00,,---,0.00,VWS V14.01,2013-09-04 12:42:00,
2013-09-04 07:43:00,74.3,69.2,29.96,NNE,24,0.0,0.0,84,0.00,,---,0.00,VWS V14.01,2013-09-04 12:43:00,
2013-09-04 07:44:00,74.3,69.2,29.96,NNE,24,0.0,0.0,84,0.00,,---,0.00,VWS V14.01,2013-09-04 12:44:00,
2013-09-04 07:45:00,74.3,69.2,29.96,NNE,24,0.0,0.0,84,0.00,,---,0.00,VWS V14.01,2013-09-04 12:45:00,
2013-09-04 07:46:00,74.4,69.2,29.97,NNE,24,0.0,0.0,84,0.00,,---,0.00,VWS V14.01,2013-09-04 12:46:00,
2013-09-04 07:47:00,74.6,69.4,29.97,NNE,24,0.0,0.0,84,0.00,,---,0.00,VWS V14.01,2013-09-04 12:47:00,
2013-09-04 07:48:00,74.4,69.2,29.96,NNE,24,0.0,0.0,84,0.00,,---,0.00,VWS V14.01,2013-09-04 12:48:00,
2013-09-04 07:49:00,74.4,69.2,29.97,NNE,24,0.0,0.0,84,0.00,,---,0.00,VWS V14.01,2013-09-04 12:49:00,
2013-09-04 07:50:00,74.4,69.2,29.97,NNE,24,0.0,0.0,84,0.00,,---,0.00,VWS V14.01,2013-09-04 12:50:00,
2013-09-04 07:51:00,74.5,69.3,29.96,NNE,24,0.0,0.0,84,0.00,,---,0.00,VWS V14.01,2013-09-04 12:51:00,
2013-09-04 07:52:00,74.8,69.7,29.97,NNE,24,0.0,0.0,84,0.00,,---,0.00,VWS V14.01,2013-09-04 12:52:00,
2013-09-04 07:53:00,74.6,69.4,29.97,NNE,24,0.0,0.0,84,0.00,,---,0.00,VWS V14.01,2013-09-04 12:53:00,
2013-09-04 07:54:00,74.6,69.1,29.97,NNE,24,0.0,0.0,83,0.00,,---,0.00,VWS V14.01,2013-09-04 12:54:00,
2013-09-04 07:55:00,74.6,69.1,29.97,NNE,24,0.0,0.0,83,0.00,,---,0.00,VWS V14.01,2013-09-04 12:55:00,
2013-09-04 07:56:00,74.7,69.2,29.97,NNE,24,0.0,0.0,83,0.00,,---,0.00,VWS V14.01,2013-09-04 12:56:00,
2013-09-04 07:57:00,75.1,69.6,29.97,NNE,24,0.0,1.0,83,0.00,,---,0.00,VWS V14.01,2013-09-04 12:57:00,
2013-09-04 07:58:00,74.8,69.7,29.97,NNE,24,0.0,0.0,84,0.00,,---,0.00,VWS V14.01,2013-09-04 12:58:00,
2013-09-04 07:59:00,74.8,69.7,29.97,NNE,24,0.0,1.0,84,0.00,,---,0.00,VWS V14.01,2013-09-04 12:59:00,
2013-09-04 08:00:00,74.9,69.4,29.97,NNE,24,0.0,1.0,83,0.00,,---,0.00,VWS V14.01,2013-09-04 13:00:00,
2013-09-04 08:01:00,75.0,69.5,29.97,NNE,24,0.0,1.0,83,0.00,,---,0.00,VWS V14.01,2013-09-04 13:01:00,
2013-09-04 08:02:00,75.5,70.0,29.97,NNE,24,0.0,0.0,83,0.00,,---,0.00,VWS V14.01,2013-09-04 13:02:00,
2013-09-04 08:03:00,75.1,69.6,29.97,NNE,24,0.0,1.0,83,0.00,,---,0.00,VWS V14.01,2013-09-04 13:03:00,
2013-09-04 08:04:00,75.2,69.7,29.97,NNE,24,0.0,1.0,83,0.00,,---,0.00,VWS V14.01,2013-09-04 13:04:00,
2013-09-04 08:05:00,75.3,69.8,29.97,NNE,24,0.0,1.0,83,0.00,,---,0.00,VWS V14.01,2013-09-04 13:05:00,
2013-09-04 08:06:00,75.3,69.8,29.97,NNE,24,0.0,1.0,83,0.00,,---,0.00,VWS V14.01,2013-09-04 13:06:00,
2013-09-04 08:07:00,76.1,70.2,29.97,NNE,24,0.0,1.0,82,0.00,,---,0.00,VWS V14.01,2013-09-04 13:07:00,
2013-09-04 08:08:00,75.5,70.0,29.97,NNE,24,0.0,0.0,83,0.00,,---,0.00,VWS V14.01,2013-09-04 13:08:00,
2013-09-04 08:09:00,75.6,70.1,29.97,NNE,24,0.0,1.0,83,0.00,,---,0.00,VWS V14.01,2013-09-04 13:09:00,
2013-09-04 08:10:00,75.7,70.2,29.97,NNE,24,0.0,1.0,83,0.00,,---,0.00,VWS V14.01,2013-09-04 13:10:00,
2013-09-04 08:11:00,75.8,70.3,29.97,NNE,24,0.0,1.0,83,0.00,,---,0.00,VWS V14.01,2013-09-04 13:11:00,
2013-09-04 08:12:00,76.7,70.4,29.97,NNE,24,0.0,4.0,81,0.00,,---,0.00,VWS V14.01,2013-09-04 13:12:00,
2013-09-04 08:13:00,76.1,70.2,29.97,NNE,24,0.0,1.0,82,0.00,,---,0.00,VWS V14.01,2013-09-04 13:13:00,
2013-09-04 08:14:00,76.2,70.3,29.97,NNE,24,0.0,0.0,82,0.00,,---,0.00,VWS V14.01,2013-09-04 13:14:00,
2013-09-04 08:15:00,76.3,70.4,29.97,NNE,24,0.0,0.0,82,0.00,,---,0.00,VWS V14.01,2013-09-04 13:15:00,
2013-09-04 08:16:00,76.4,70.1,29.97,NNE,24,2.0,3.0,81,0.00,,---,0.00,VWS V14.01,2013-09-04 13:16:00,
2013-09-04 08:17:00,77.4,70.8,29.97,NNE,24,0.0,0.0,80,0.00,,---,0.00,VWS V14.01,2013-09-04 13:17:00,
2013-09-04 08:18:00,76.7,70.4,29.97,NNE,24,1.0,4.0,81,0.00,,---,0.00,VWS V14.01,2013-09-04 13:18:00,
2013-09-04 08:19:00,76.8,70.2,29.97,NNE,24,0.0,4.0,80,0.00,,---,0.00,VWS V14.01,2013-09-04 13:19:00,
2013-09-04 08:20:00,77.0,70.4,29.97,NNE,24,0.0,4.0,80,0.00,,---,0.00,VWS V14.01,2013-09-04 13:20:00,
2013-09-04 08:21:00,77.1,70.5,29.97,NNE,24,0.0,4.0,80,0.00,,---,0.00,VWS V14.01,2013-09-04 13:21:00,
2013-09-04 08:22:00,78.1,70.3,29.98,NNE,24,0.0,2.0,77,0.00,,---,0.00,VWS V14.01,2013-09-04 13:22:00,
2013-09-04 08:23:00,77.4,70.8,29.97,NNE,24,0.0,1.0,80,0.00,,---,0.00,VWS V14.01,2013-09-04 13:23:00,
2013-09-04 08:24:00,77.5,70.5,29.97,NNE,24,0.0,0.0,79,0.00,,---,0.00,VWS V14.01,2013-09-04 13:24:00,
2013-09-04 08:25:00,77.6,70.6,29.98,NNE,24,0.0,0.0,79,0.00,,---,0.00,VWS V14.01,2013-09-04 13:25:00,
2013-09-04 08:26:00,77.8,70.4,29.97,NNE,24,0.0,0.0,78,0.00,,---,0.00,VWS V14.01,2013-09-04 13:26:00,
2013-09-04 08:27:00,78.7,70.5,29.98,NNE,25,0.0,4.0,76,0.00,,---,0.00,VWS V14.01,2013-09-04 13:27:00,
2013-09-04 08:28:00,78.1,70.3,29.98,NNE,24,0.0,2.0,77,0.00,,---,0.00,VWS V14.01,2013-09-04 13:28:00,
2013-09-04 08:29:00,78.2,70.4,29.98,NNE,24,0.0,3.0,77,0.00,,---,0.00,VWS V14.01,2013-09-04 13:29:00,
2013-09-04 08:30:00,78.3,70.5,29.98,NNE,24,0.0,3.0,77,0.00,,---,0.00,VWS V14.01,2013-09-04 13:30:00,
2013-09-04 08:31:00,78.4,70.6,29.98,NNE,24,0.0,3.0,77,0.00,,---,0.00,VWS V14.01,2013-09-04 13:31:00,
2013-09-04 08:32:00,79.3,70.7,29.98,NNE,28,5.0,6.0,75,0.00,,---,0.00,VWS V14.01,2013-09-04 13:32:00,
2013-09-04 08:33:00,78.7,70.5,29.98,NNE,25,0.0,4.0,76,0.00,,---,0.00,VWS V14.01,2013-09-04 13:33:00,
2013-09-04 08:34:00,78.8,71.0,29.98,NNE,25,2.0,4.0,77,0.00,,---,0.00,VWS V14.01,2013-09-04 13:34:00,
2013-09-04 08:35:00,78.9,70.7,29.98,NNE,25,1.0,4.0,76,0.00,,---,0.00,VWS V14.01,2013-09-04 13:35:00,
2013-09-04 08:36:00,79.1,70.9,29.98,NNE,25,0.0,4.0,76,0.00,,---,0.00,VWS V14.01,2013-09-04 13:36:00,
2013-09-04 08:37:00,79.9,71.3,29.98,NNE,30,0.0,6.0,75,0.00,,---,0.00,VWS V14.01,2013-09-04 13:37:00,
2013-09-04 08:38:00,79.3,70.7,29.98,NNE,28,5.0,6.0,75,0.00,,---,0.00,VWS V14.01,2013-09-04 13:38:00,
2013-09-04 08:39:00,79.5,70.9,29.98,NNE,30,0.0,6.0,75,0.00,,---,0.00,VWS V14.01,2013-09-04 13:39:00,
2013-09-04 08:40:00,79.6,71.0,29.98,NNE,30,0.0,6.0,75,0.00,,---,0.00,VWS V14.01,2013-09-04 13:40:00,
2013-09-04 08:41:00,79.7,70.7,29.98,NNE,30,0.0,6.0,74,0.00,,---,0.00,VWS V14.01,2013-09-04 13:41:00,
2013-09-04 08:42:00,80.4,71.4,29.98,NNE,30,0.0,0.0,74,0.00,,---,0.00,VWS V14.01,2013-09-04 13:42:00,
2013-09-04 08:43:00,79.9,71.3,29.98,NNE,30,0.0,6.0,75,0.00,,---,0.00,VWS V14.01,2013-09-04 13:43:00,
2013-09-04 08:44:00,80.0,71.0,29.98,NNE,30,0.0,3.0,74,0.00,,---,0.00,VWS V14.01,2013-09-04 13:44:00,
2013-09-04 08:45:00,80.1,71.5,29.98,NNE,30,0.0,3.0,75,0.00,,---,0.00,VWS V14.01,2013-09-04 13:45:00,
2013-09-04 08:46:00,80.2,71.2,29.98,NNE,30,0.0,3.0,74,0.00,,---,0.00,VWS V14.01,2013-09-04 13:46:00,
2013-09-04 08:47:00,81.1,71.6,29.98,NNE,30,0.0,1.0,73,0.00,,---,0.00,VWS V14.01,2013-09-04 13:47:00,
2013-09-04 08:49:00,80.5,71.5,29.98,NNE,30,0.0,0.0,74,0.00,,---,0.00,VWS V14.01,2013-09-04 13:49:00,
2013-09-04 08:50:00,80.7,71.2,29.98,NNE,30,0.0,0.0,73,0.00,,---,0.00,VWS V14.01,2013-09-04 13:50:00,
2013-09-04 08:51:00,80.8,71.3,29.98,NNE,30,0.0,0.0,73,0.00,,---,0.00,VWS V14.01,2013-09-04 13:51:00,
2013-09-04 08:52:00,81.9,71.6,29.98,NNE,30,0.0,4.0,71,0.00,,---,0.00,VWS V14.01,2013-09-04 13:52:00,
2013-09-04 08:54:00,81.2,71.7,29.98,NNE,30,0.0,1.0,73,0.00,,---,0.00,VWS V14.01,2013-09-04 13:54:00,
2013-09-04 08:55:00,81.4,71.9,29.98,NNE,30,0.0,1.0,73,0.00,,---,0.00,VWS V14.01,2013-09-04 13:55:00,
2013-09-04 08:56:00,81.6,71.7,29.98,NNE,30,0.0,1.0,72,0.00,,---,0.00,VWS V14.01,2013-09-04 13:56:00,
2013-09-04 08:57:00,82.7,71.9,29.98,NNE,33,0.0,6.0,70,0.00,,---,0.00,VWS V14.01,2013-09-04 13:57:00,
2013-09-04 08:58:00,81.9,71.6,29.98,NNE,30,0.0,4.0,71,0.00,,---,0.00,VWS V14.01,2013-09-04 13:58:00,
2013-09-04 08:59:00,82.0,71.7,29.98,NNE,30,0.0,4.0,71,0.00,,---,0.00,VWS V14.01,2013-09-04 13:59:00,
2013-09-04 09:00:00,82.1,71.8,29.98,NNE,32,4.0,6.0,71,0.00,,---,0.00,VWS V14.01,2013-09-04 14:00:00,
2013-09-04 09:01:00,82.3,72.0,29.98,NNE,33,0.0,6.0,71,0.00,,---,0.00,VWS V14.01,2013-09-04 14:01:00,
2013-09-04 09:02:00,83.2,72.0,29.98,NE,34,0.0,4.0,69,0.00,,---,0.00,VWS V14.01,2013-09-04 14:02:00,
2013-09-04 09:03:00,82.7,71.9,29.98,NNE,33,0.0,6.0,70,0.00,,---,0.00,VWS V14.01,2013-09-04 14:03:00,
2013-09-04 09:04:00,82.8,71.6,29.98,NNE,33,0.0,6.0,69,0.00,,---,0.00,VWS V14.01,2013-09-04 14:04:00,
2013-09-04 09:05:00,82.9,72.1,29.98,NNE,33,0.0,4.0,70,0.00,,---,0.00,VWS V14.01,2013-09-04 14:05:00,
2013-09-04 09:06:00,83.0,71.8,29.98,NE,34,0.0,4.0,69,0.00,,---,0.00,VWS V14.01,2013-09-04 14:06:00,
2013-09-04 09:07:00,83.6,71.9,29.98,NE,34,0.0,1.0,68,0.00,,---,0.00,VWS V14.01,2013-09-04 14:07:00,
2013-09-04 09:08:00,83.2,72.0,29.98,NE,34,0.0,4.0,69,0.00,,---,0.00,VWS V14.01,2013-09-04 14:08:00,
2013-09-04 09:09:00,83.3,72.1,29.98,NE,34,1.0,4.0,69,0.00,,---,0.00,VWS V14.01,2013-09-04 14:09:00,
2013-09-04 09:10:00,83.4,72.2,29.98,NE,34,0.0,3.0,69,0.00,,---,0.00,VWS V14.01,2013-09-04 14:10:00,
2013-09-04 09:11:00,83.5,71.8,29.98,NE,34,0.0,3.0,68,0.00,,---,0.00,VWS V14.01,2013-09-04 14:11:00,
2013-09-04 09:12:00,83.8,72.1,29.99,NE,34,3.0,5.0,68,0.00,,---,0.00,VWS V14.01,2013-09-04 14:12:00,
2013-09-04 09:13:00,83.6,71.9,29.98,NE,34,0.0,1.0,68,0.00,,---,0.00,VWS V14.01,2013-09-04 14:13:00,
2013-09-04 09:14:00,83.6,71.9,29.98,NE,34,0.0,1.0,68,0.00,,---,0.00,VWS V14.01,2013-09-04 14:14:00,
2013-09-04 09:15:00,83.7,72.0,29.98,NE,34,0.0,1.0,68,0.00,,---,0.00,VWS V14.01,2013-09-04 14:15:00,
2013-09-04 09:16:00,83.7,71.6,29.98,NE,34,0.0,1.0,67,0.00,,---,0.00,VWS V14.01,2013-09-04 14:16:00,
2013-09-04 09:17:00,84.3,72.6,29.99,NE,35,0.0,5.0,68,0.00,,---,0.00,VWS V14.01,2013-09-04 14:17:00,
2013-09-04 09:18:00,83.8,72.1,29.99,NE,34,1.0,5.0,68,0.00,,---,0.00,VWS V14.01,2013-09-04 14:18:00,
2013-09-04 09:19:00,83.9,72.2,29.99,NE,35,1.0,5.0,68,0.00,,---,0.00,VWS V14.01,2013-09-04 14:19:00,
2013-09-04 09:20:00,84.0,71.9,29.99,NE,35,0.0,5.0,67,0.00,,---,0.00,VWS V14.01,2013-09-04 14:20:00,
2013-09-04 09:21:00,84.1,72.4,29.99,NE,35,0.0,5.0,68,0.00,,---,0.00,VWS V14.01,2013-09-04 14:21:00,
2013-09-04 09:22:00,84.8,72.2,29.99,NE,37,0.0,4.0,66,0.00,,---,0.00,VWS V14.01,2013-09-04 14:22:00,
2013-09-04 09:23:00,84.3,72.6,29.99,NE,35,0.0,5.0,68,0.00,,---,0.00,VWS V14.01,2013-09-04 14:23:00,
2013-09-04 09:24:00,84.4,72.2,29.99,NE,35,0.0,2.0,67,0.00,,---,0.00,VWS V14.01,2013-09-04 14:24:00,
2013-09-04 09:25:00,84.6,72.4,29.99,NE,35,0.0,0.0,67,0.00,,---,0.00,VWS V14.01,2013-09-04 14:25:00,
2013-09-04 09:27:00,85.2,72.6,29.99,NE,37,0.0,3.0,66,0.00,,---,0.00,VWS V14.01,2013-09-04 14:27:00,
2013-09-04 09:28:00,84.8,72.2,29.99,NE,37,0.0,4.0,66,0.00,,---,0.00,VWS V14.01,2013-09-04 14:28:00,
2013-09-04 09:29:00,84.9,72.3,29.99,NE,37,0.0,4.0,66,0.00,,---,0.00,VWS V14.01,2013-09-04 14:29:00,
2013-09-04 09:30:00,85.0,72.4,29.99,NE,37,0.0,4.0,66,0.00,,---,0.00,VWS V14.01,2013-09-04 14:30:00,
2013-09-04 09:31:00,85.1,72.5,29.99,NE,37,0.0,4.0,66,0.00,,---,0.00,VWS V14.01,2013-09-04 14:31:00,
2013-09-04 09:32:00,85.5,72.4,29.99,NE,37,0.0,1.0,65,0.00,,---,0.00,VWS V14.01,2013-09-04 14:32:00,
2013-09-04 09:33:00,85.2,72.6,29.99,NE,37,0.0,2.0,66,0.00,,---,0.00,VWS V14.01,2013-09-04 14:33:00,
2013-09-04 09:34:00,85.3,72.2,29.99,NE,37,0.0,1.0,65,0.00,,---,0.00,VWS V14.01,2013-09-04 14:34:00,
2013-09-04 09:35:00,85.4,72.3,29.99,NE,37,0.0,1.0,65,0.00,,---,0.00,VWS V14.01,2013-09-04 14:35:00,
2013-09-04 09:36:00,85.4,72.3,29.99,NE,37,0.0,1.0,65,0.00,,---,0.00,VWS V14.01,2013-09-04 14:36:00,
2013-09-04 09:37:00,85.5,72.4,29.99,NE,37,0.0,5.0,65,0.00,,---,0.00,VWS V14.01,2013-09-04 14:37:00,
2013-09-04 09:38:00,85.5,72.4,29.99,NE,37,1.0,1.0,65,0.00,,---,0.00,VWS V14.01,2013-09-04 14:38:00,
2013-09-04 09:39:00,85.5,72.4,29.99,NE,37,0.0,5.0,65,0.00,,---,0.00,VWS V14.01,2013-09-04 14:39:00,
2013-09-04 09:40:00,85.5,72.4,29.99,NE,37,0.0,5.0,65,0.00,,---,0.00,VWS V14.01,2013-09-04 14:40:00,
2013-09-04 09:41:00,85.5,72.4,29.99,NE,37,0.0,5.0,65,0.00,,---,0.00,VWS V14.01,2013-09-04 14:41:00,
2013-09-04 09:42:00,86.1,73.0,29.99,NE,37,0.0,2.0,65,0.00,,---,0.00,VWS V14.01,2013-09-04 14:42:00,
2013-09-04 09:43:00,85.6,72.5,29.99,NE,37,0.0,5.0,65,0.00,,---,0.00,VWS V14.01,2013-09-04 14:43:00,
2013-09-04 09:44:00,85.6,72.9,29.99,NE,37,0.0,0.0,66,0.00,,---,0.00,VWS V14.01,2013-09-04 14:44:00,
2013-09-04 09:45:00,85.7,73.0,29.99,NE,37,2.0,2.0,66,0.00,,---,0.00,VWS V14.01,2013-09-04 14:45:00,
2013-09-04 09:46:00,85.8,72.7,29.99,NE,37,0.0,2.0,65,0.00,,---,0.00,VWS V14.01,2013-09-04 14:46:00,
2013-09-04 09:47:00,86.7,73.5,29.99,NE,37,0.0,5.0,65,0.00,,---,0.00,VWS V14.01,2013-09-04 14:47:00,
2013-09-04 09:49:00,86.1,73.0,29.99,NE,37,0.0,5.0,65,0.00,,---,0.00,VWS V14.01,2013-09-04 14:49:00,
2013-09-04 09:50:00,86.3,73.2,29.99,NE,37,0.0,5.0,65,0.00,,---,0.00,VWS V14.01,2013-09-04 14:50:00,
2013-09-04 09:51:00,86.4,73.2,29.99,NE,37,0.0,5.0,65,0.00,,---,0.00,VWS V14.01,2013-09-04 14:51:00,
2013-09-04 09:52:00,87.5,72.9,29.99,NE,37,0.0,3.0,62,0.00,,---,0.00,VWS V14.01,2013-09-04 14:52:00,
2013-09-04 09:53:00,86.7,73.5,29.99,NE,37,0.0,5.0,65,0.00,,---,0.00,VWS V14.01,2013-09-04 14:53:00,
2013-09-04 09:54:00,86.9,73.7,29.99,NE,36,0.0,3.0,65,0.00,,---,0.00,VWS V14.01,2013-09-04 14:54:00,
2013-09-04 09:55:00,87.0,73.4,29.99,NE,36,1.0,3.0,64,0.00,,---,0.00,VWS V14.01,2013-09-04 14:55:00,
2013-09-04 09:56:00,87.2,73.6,29.99,NE,37,0.0,3.0,64,0.00,,---,0.00,VWS V14.01,2013-09-04 14:56:00,
2013-09-04 09:57:00,87.9,72.8,29.99,NE,37,0.0,1.0,61,0.00,,---,0.00,VWS V14.01,2013-09-04 14:57:00,
2013-09-04 09:58:00,87.5,72.9,29.99,NE,37,0.0,3.0,62,0.00,,---,0.00,VWS V14.01,2013-09-04 14:58:00,
2013-09-04 09:59:00,87.6,73.5,29.99,NE,37,0.0,3.0,63,0.00,,---,0.00,VWS V14.01,2013-09-04 14:59:00,
2013-09-04 10:00:00,87.7,73.1,29.99,NE,37,0.0,2.0,62,0.00,,---,0.00,VWS V14.01,2013-09-04 15:00:00,
2013-09-04 10:01:00,87.8,72.7,29.99,NE,37,0.0,1.0,61,0.00,,---,0.00,VWS V14.01,2013-09-04 15:01:00,
2013-09-04 10:02:00,88.1,73.0,29.99,NE,38,0.0,4.0,61,0.00,,---,0.00,VWS V14.01,2013-09-04 15:02:00,
2013-09-04 10:03:00,87.9,72.8,29.99,NE,37,0.0,1.0,61,0.00,,---,0.00,VWS V14.01,2013-09-04 15:03:00,
2013-09-04 10:04:00,88.0,73.4,29.99,NE,37,0.0,4.0,62,0.00,,---,0.00,VWS V14.01,2013-09-04 15:04:00,
2013-09-04 10:05:00,88.0,72.9,29.99,NE,37,0.0,4.0,61,0.00,,---,0.00,VWS V14.01,2013-09-04 15:05:00,
2013-09-04 10:06:00,88.1,73.0,29.99,NE,38,2.0,4.0,61,0.00,,---,0.00,VWS V14.01,2013-09-04 15:06:00,
2013-09-04 10:07:00,88.3,73.2,30.00,NE,38,0.0,3.0,61,0.00,,---,0.00,VWS V14.01,2013-09-04 15:07:00,
2013-09-04 10:08:00,88.1,73.0,29.99,NE,38,0.0,4.0,61,0.00,,---,0.00,VWS V14.01,2013-09-04 15:08:00,
2013-09-04 10:09:00,88.2,73.1,29.99,NE,38,0.0,4.0,61,0.00,,---,0.00,VWS V14.01,2013-09-04 15:09:00,
2013-09-04 10:10:00,88.2,73.1,29.99,NE,38,0.0,4.0,61,0.00,,---,0.00,VWS V14.01,2013-09-04 15:10:00,
2013-09-04 10:11:00,88.2,73.1,29.99,NE,38,0.0,4.0,61,0.00,,---,0.00,VWS V14.01,2013-09-04 15:11:00,
2013-09-04 10:12:00,88.8,73.1,30.00,NE,39,1.0,4.0,60,0.00,,---,0.00,VWS V14.01,2013-09-04 15:12:00,
2013-09-04 10:13:00,88.3,73.2,30.00,NE,38,1.0,3.0,61,0.00,,---,0.00,VWS V14.01,2013-09-04 15:13:00,
2013-09-04 10:14:00,88.3,73.6,29.99,NE,38,0.0,3.0,62,0.00,,---,0.00,VWS V14.01,2013-09-04 15:14:00,
2013-09-04 10:15:00,88.4,73.2,29.99,NE,38,2.0,4.0,61,0.00,,---,0.00,VWS V14.01,2013-09-04 15:15:00,
2013-09-04 10:16:00,88.6,73.4,29.99,NE,39,0.0,4.0,61,0.00,,---,0.00,VWS V14.01,2013-09-04 15:16:00,
2013-09-04 10:17:00,89.3,73.1,30.00,NE,39,0.0,5.0,59,0.00,,---,0.00,VWS V14.01,2013-09-04 15:17:00,
2013-09-04 10:18:00,88.8,73.1,30.00,NE,39,0.0,4.0,60,0.00,,---,0.00,VWS V14.01,2013-09-04 15:18:00,
2013-09-04 10:19:00,88.8,73.6,29.99,NE,39,2.0,4.0,61,0.00,,---,0.00,VWS V14.01,2013-09-04 15:19:00,
2013-09-04 10:20:00,89.0,73.8,30.00,NE,39,0.0,2.0,61,0.00,,---,0.00,VWS V14.01,2013-09-04 15:20:00,
2013-09-04 10:21:00,89.1,73.4,29.99,NE,39,0.0,3.0,60,0.00,,---,0.00,VWS V14.01,2013-09-04 15:21:00,
2013-09-04 10:22:00,90.4,73.6,30.00,NE,39,0.0,4.0,58,0.00,,---,0.00,VWS V14.01,2013-09-04 15:22:00,
2013-09-04 10:23:00,89.3,73.1,30.00,NE,39,0.0,5.0,59,0.00,,---,0.00,VWS V14.01,2013-09-04 15:23:00,
2013-09-04 10:24:00,89.5,73.3,30.00,NE,39,2.0,5.0,59,0.00,,---,0.00,VWS V14.01,2013-09-04 15:24:00,
2013-09-04 10:25:00,89.8,73.6,30.00,NE,39,0.0,5.0,59,0.00,,---,0.00,VWS V14.01,2013-09-04 15:25:00,
2013-09-04 10:26:00,90.0,73.2,30.00,NE,39,0.0,5.0,58,0.00,,---,0.00,VWS V14.01,2013-09-04 15:26:00,
2013-09-04 10:27:00,90.9,72.5,30.00,NE,39,0.0,3.0,55,0.00,,---,0.00,VWS V14.01,2013-09-04 15:27:00,
2013-09-04 10:28:00,90.4,73.6,30.00,NE,39,0.0,4.0,58,0.00,,---,0.00,VWS V14.01,2013-09-04 15:28:00,
2013-09-04 10:29:00,90.6,73.3,30.00,NE,39,0.0,3.0,57,0.00,,---,0.00,VWS V14.01,2013-09-04 15:29:00,
2013-09-04 10:30:00,90.8,72.9,30.00,NE,39,2.0,3.0,56,0.00,,---,0.00,VWS V14.01,2013-09-04 15:30:00,
2013-09-04 10:31:00,90.8,73.5,30.00,NE,39,0.0,3.0,57,0.00,,---,0.00,VWS V14.01,2013-09-04 15:31:00,
2013-09-04 10:32:00,90.9,72.0,30.00,NE,38,0.0,5.0,54,0.00,,---,0.00,VWS V14.01,2013-09-04 15:32:00,
2013-09-04 10:33:00,90.9,73.0,30.00,NE,39,0.0,3.0,56,0.00,,---,0.00,VWS V14.01,2013-09-04 15:33:00,
2013-09-04 10:34:00,91.0,73.1,30.00,NE,39,0.0,3.0,56,0.00,,---,0.00,VWS V14.01,2013-09-04 15:34:00,
2013-09-04 10:35:00,91.0,73.1,30.00,NE,39,0.0,2.0,56,0.00,,---,0.00,VWS V14.01,2013-09-04 15:35:00,
2013-09-04 10:36:00,90.9,73.0,30.00,NE,37,0.0,5.0,56,0.00,,---,0.00,VWS V14.01,2013-09-04 15:36:00,
2013-09-04 10:37:00,91.0,73.1,30.00,NE,38,0.0,2.0,56,0.00,,---,0.00,VWS V14.01,2013-09-04 15:37:00,
2013-09-04 10:38:00,90.9,72.0,30.00,NE,38,0.0,5.0,54,0.00,,---,0.00,VWS V14.01,2013-09-04 15:38:00,
2013-09-04 10:39:00,90.8,72.4,30.00,NE,38,0.0,5.0,55,0.00,,---,0.00,VWS V14.01,2013-09-04 15:39:00,
2013-09-04 10:40:00,90.9,72.5,30.00,NE,38,0.0,5.0,55,0.00,,---,0.00,VWS V14.01,2013-09-04 15:40:00,
2013-09-04 10:41:00,90.9,73.0,30.00,NE,38,0.0,1.0,56,0.00,,---,0.00,VWS V14.01,2013-09-04 15:41:00,
2013-09-04 10:42:00,91.4,73.0,30.00,NE,38,0.0,2.0,55,0.00,,---,0.00,VWS V14.01,2013-09-04 15:42:00,
2013-09-04 10:43:00,91.0,73.1,30.00,NE,38,0.0,2.0,56,0.00,,---,0.00,VWS V14.01,2013-09-04 15:43:00,
2013-09-04 10:44:00,91.0,73.1,30.00,NE,38,0.0,2.0,56,0.00,,---,0.00,VWS V14.01,2013-09-04 15:44:00,
2013-09-04 10:45:00,91.1,72.7,30.00,NE,38,0.0,2.0,55,0.00,,---,0.00,VWS V14.01,2013-09-04 15:45:00,
2013-09-04 10:46:00,91.2,73.3,30.00,NE,38,0.0,2.0,56,0.00,,---,0.00,VWS V14.01,2013-09-04 15:46:00,
2013-09-04 10:47:00,91.9,73.4,29.99,NE,38,0.0,5.0,55,0.00,,---,0.00,VWS V14.01,2013-09-04 15:47:00,
2013-09-04 10:48:00,91.4,73.0,30.00,NE,38,0.0,2.0,55,0.00,,---,0.00,VWS V14.01,2013-09-04 15:48:00,
2013-09-04 10:49:00,91.6,73.7,30.00,NE,37,0.0,5.0,56,0.00,,---,0.00,VWS V14.01,2013-09-04 15:49:00,
2013-09-04 10:50:00,91.7,73.8,30.00,NE,37,2.0,5.0,56,0.00,,---,0.00,VWS V14.01,2013-09-04 15:50:00,
2013-09-04 10:51:00,91.8,73.3,30.00,NE,38,1.0,5.0,55,0.00,,---,0.00,VWS V14.01,2013-09-04 15:51:00,
2013-09-04 10:52:00,92.2,73.7,30.00,NE,38,1.0,6.0,55,0.00,,---,0.00,VWS V14.01,2013-09-04 15:52:00,
2013-09-04 10:53:00,91.9,73.4,29.99,NE,38,0.0,5.0,55,0.00,,---,0.00,VWS V14.01,2013-09-04 15:53:00,
2013-09-04 10:54:00,91.9,74.0,30.00,NE,38,0.0,6.0,56,0.00,,---,0.00,VWS V14.01,2013-09-04 15:54:00,
2013-09-04 10:55:00,92.0,74.1,30.00,NE,39,0.0,6.0,56,0.00,,---,0.00,VWS V14.01,2013-09-04 15:55:00,
2013-09-04 10:56:00,92.1,73.1,30.00,NE,38,0.0,6.0,54,0.00,,---,0.00,VWS V14.01,2013-09-04 15:56:00,
2013-09-04 10:57:00,92.8,73.7,30.00,NE,38,0.0,4.0,54,0.00,,---,0.00,VWS V14.01,2013-09-04 15:57:00,
2013-09-04 10:58:00,92.2,73.7,30.00,NE,38,2.0,6.0,55,0.00,,---,0.00,VWS V14.01,2013-09-04 15:58:00,
2013-09-04 10:59:00,92.3,73.8,30.00,NE,39,1.0,4.0,55,0.00,,---,0.00,VWS V14.01,2013-09-04 15:59:00,
2013-09-04 11:00:00,92.4,73.9,30.00,NE,39,0.0,4.0,55,0.00,,---,0.00,VWS V14.01,2013-09-04 16:00:00,
2013-09-04 11:01:00,92.6,73.5,30.00,NE,38,2.0,4.0,54,0.00,,---,0.00,VWS V14.01,2013-09-04 16:01:00,
2013-09-04 11:02:00,93.3,73.6,30.00,NE,38,0.0,1.0,53,0.00,,---,0.00,VWS V14.01,2013-09-04 16:02:00,
2013-09-04 11:03:00,92.8,73.7,30.00,NE,38,0.0,4.0,54,0.00,,---,0.00,VWS V14.01,2013-09-04 16:03:00,
2013-09-04 11:04:00,93.0,73.9,30.00,NE,38,0.0,3.0,54,0.00,,---,0.00,VWS V14.01,2013-09-04 16:04:00,
2013-09-04 11:05:00,93.1,74.0,30.00,NE,38,0.0,3.0,54,0.00,,---,0.00,VWS V14.01,2013-09-04 16:05:00,
2013-09-04 11:06:00,93.2,74.1,30.00,NE,38,0.0,2.0,54,0.00,,---,0.00,VWS V14.01,2013-09-04 16:06:00,
2013-09-04 11:07:00,93.3,73.6,30.00,NE,41,0.0,1.0,53,0.00,,---,0.00,VWS V14.01,2013-09-04 16:07:00,
2013-09-04 11:08:00,93.3,74.2,30.00,NE,38,0.0,1.0,54,0.00,,---,0.00,VWS V14.01,2013-09-04 16:08:00,
2013-09-04 11:09:00,93.4,73.2,30.00,NE,38,0.0,1.0,52,0.00,,---,0.00,VWS V14.01,2013-09-04 16:09:00,
2013-09-04 11:10:00,93.3,73.1,30.00,NE,38,0.0,0.0,52,0.00,,---,0.00,VWS V14.01,2013-09-04 16:10:00,
2013-09-04 11:11:00,93.3,73.1,30.00,NE,38,0.0,0.0,52,0.00,,---,0.00,VWS V14.01,2013-09-04 16:11:00,
2013-09-04 11:12:00,93.3,73.1,30.00,NE,42,0.0,4.0,52,0.00,,---,0.00,VWS V14.01,2013-09-04 16:12:00,
2013-09-04 11:13:00,93.4,73.7,30.00,NE,41,1.0,1.0,53,0.00,,---,0.00,VWS V14.01,2013-09-04 16:13:00,
2013-09-04 11:14:00,93.4,73.7,30.00,NE,42,0.0,4.0,53,0.00,,---,0.00,VWS V14.01,2013-09-04 16:14:00,
2013-09-04 11:15:00,93.3,73.6,30.00,NE,42,0.0,4.0,53,0.00,,---,0.00,VWS V14.01,2013-09-04 16:15:00,
2013-09-04 11:16:00,93.3,73.6,30.00,NE,42,0.0,4.0,53,0.00,,---,0.00,VWS V14.01,2013-09-04 16:16:00,
2013-09-04 11:17:00,93.3,73.1,30.00,NE,42,3.0,4.0,52,0.00,,---,0.00,VWS V14.01,2013-09-04 16:17:00,
2013-09-04 11:18:00,93.3,73.1,30.00,NE,42,0.0,4.0,52,0.00,,---,0.00,VWS V14.01,2013-09-04 16:18:00,
2013-09-04 11:19:00,93.3,73.6,30.00,NE,42,0.0,2.0,53,0.00,,---,0.00,VWS V14.01,2013-09-04 16:19:00,
2013-09-04 11:20:00,93.3,73.1,30.00,NE,42,0.0,2.0,52,0.00,,---,0.00,VWS V14.01,2013-09-04 16:20:00,
2013-09-04 11:21:00,93.3,73.6,30.00,NE,42,1.0,2.0,53,0.00,,---,0.00,VWS V14.01,2013-09-04 16:21:00,
2013-09-04 11:22:00,93.5,74.4,30.00,NE,42,0.0,5.0,54,0.00,,---,0.00,VWS V14.01,2013-09-04 16:22:00,
2013-09-04 11:23:00,93.3,73.1,30.00,NE,42,1.0,5.0,52,0.00,,---,0.00,VWS V14.01,2013-09-04 16:23:00,
2013-09-04 11:24:00,93.4,73.2,30.00,NE,42,0.0,5.0,52,0.00,,---,0.00,VWS V14.01,2013-09-04 16:24:00,
2013-09-04 11:25:00,93.4,73.2,30.00,NE,42,0.0,5.0,52,0.00,,---,0.00,VWS V14.01,2013-09-04 16:25:00,
2013-09-04 11:26:00,93.5,72.7,30.00,NE,42,0.0,5.0,51,0.00,,---,0.00,VWS V14.01,2013-09-04 16:26:00,
2013-09-04 11:27:00,93.7,72.8,30.00,NE,47,1.0,1.0,51,0.00,,---,0.00,VWS V14.01,2013-09-04 16:27:00,
2013-09-04 11:28:00,93.5,74.4,30.00,NE,42,0.0,3.0,54,0.00,,---,0.00,VWS V14.01,2013-09-04 16:28:00,
2013-09-04 11:29:00,93.5,73.2,30.00,NE,42,0.0,3.0,52,0.00,,---,0.00,VWS V14.01,2013-09-04 16:29:00,
2013-09-04 11:30:00,93.5,73.2,30.00,NE,46,0.0,1.0,52,0.00,,---,0.00,VWS V14.01,2013-09-04 16:30:00,
2013-09-04 11:31:00,93.6,73.3,30.00,NE,47,0.0,1.0,52,0.00,,---,0.00,VWS V14.01,2013-09-04 16:31:00,
2013-09-04 11:32:00,94.0,73.7,30.00,NE,47,0.0,2.0,52,0.00,,---,0.00,VWS V14.01,2013-09-04 16:32:00,
2013-09-04 11:33:00,93.7,73.4,30.00,NE,47,0.0,1.0,52,0.00,,---,0.00,VWS V14.01,2013-09-04 16:33:00,
2013-09-04 11:34:00,93.8,73.5,30.00,NE,47,0.0,2.0,52,0.00,,---,0.00,VWS V14.01,2013-09-04 16:34:00,
2013-09-04 11:35:00,93.8,73.5,30.00,NE,47,0.0,2.0,52,0.00,,---,0.00,VWS V14.01,2013-09-04 16:35:00,
2013-09-04 11:36:00,93.9,73.0,30.00,NE,47,0.0,2.0,51,0.00,,---,0.00,VWS V14.01,2013-09-04 16:36:00,
2013-09-04 11:37:00,94.6,73.7,30.00,NE,49,0.0,3.0,51,0.00,,---,0.00,VWS V14.01,2013-09-04 16:37:00,
2013-09-04 11:38:00,94.0,74.8,30.00,NE,47,0.0,2.0,54,0.00,,---,0.00,VWS V14.01,2013-09-04 16:38:00,
2013-09-04 11:39:00,94.2,75.0,30.00,NE,47,0.0,0.0,54,0.00,,---,0.00,VWS V14.01,2013-09-04 16:39:00,
2013-09-04 11:40:00,94.3,75.1,30.00,NE,47,0.0,0.0,54,0.00,,---,0.00,VWS V14.01,2013-09-04 16:40:00,
2013-09-04 11:41:00,94.5,74.2,30.00,NE,47,0.0,0.0,52,0.00,,---,0.00,VWS V14.01,2013-09-04 16:41:00,
2013-09-04 11:42:00,94.7,73.8,30.00,NNE,32,4.0,5.0,51,0.00,,---,0.00,VWS V14.01,2013-09-04 16:42:00,
2013-09-04 11:43:00,94.6,73.7,30.00,NE,49,5.0,5.0,51,0.00,,---,0.00,VWS V14.01,2013-09-04 16:43:00,
2013-09-04 11:44:00,94.7,73.2,30.00,NE,48,4.0,5.0,50,0.00,,---,0.00,VWS V14.01,2013-09-04 16:44:00,
2013-09-04 11:45:00,94.7,73.2,30.00,NE,48,0.0,5.0,50,0.00,,---,0.00,VWS V14.01,2013-09-04 16:45:00,
2013-09-04 11:46:00,94.7,73.8,30.00,NE,48,0.0,5.0,51,0.00,,---,0.00,VWS V14.01,2013-09-04 16:46:00,
2013-09-04 11:47:00,94.9,73.4,30.00,NE,44,0.0,7.0,50,0.00,,---,0.00,VWS V14.01,2013-09-04 16:47:00,
2013-09-04 11:48:00,94.7,73.8,30.00,NNE,29,0.0,5.0,51,0.00,,---,0.00,VWS V14.01,2013-09-04 16:48:00,
2013-09-04 11:49:00,94.8,74.4,30.00,NE,38,4.0,7.0,52,0.00,,---,0.00,VWS V14.01,2013-09-04 16:49:00,
2013-09-04 11:50:00,94.9,74.0,30.00,NE,44,0.0,7.0,51,0.00,,---,0.00,VWS V14.01,2013-09-04 16:50:00,
2013-09-04 11:51:00,94.9,73.4,30.00,NE,44,0.0,7.0,50,0.00,,---,0.00,VWS V14.01,2013-09-04 16:51:00,
2013-09-04 11:52:00,94.9,75.1,30.00,NE,44,0.0,1.0,53,0.00,,---,0.00,VWS V14.01,2013-09-04 16:52:00,
2013-09-04 11:53:00,94.9,73.4,30.00,NE,44,0.0,7.0,50,0.00,,---,0.00,VWS V14.01,2013-09-04 16:53:00,
2013-09-04 11:54:00,94.9,72.8,30.00,NE,44,0.0,7.0,49,0.00,,---,0.00,VWS V14.01,2013-09-04 16:54:00,
2013-09-04 11:55:00,94.9,73.4,30.00,NE,44,0.0,2.0,50,0.00,,---,0.00,VWS V14.01,2013-09-04 16:55:00,
2013-09-04 11:56:00,94.9,74.0,30.00,NE,44,0.0,1.0,51,0.00,,---,0.00,VWS V14.01,2013-09-04 16:56:00,
2013-09-04 11:57:00,95.1,72.9,30.00,NE,49,0.0,5.0,49,0.00,,---,0.00,VWS V14.01,2013-09-04 16:57:00,
2013-09-04 11:58:00,95.0,75.2,30.00,NE,44,0.0,3.0,53,0.00,,---,0.00,VWS V14.01,2013-09-04 16:58:00,
2013-09-04 11:59:00,95.0,74.1,30.00,NE,44,1.0,5.0,51,0.00,,---,0.00,VWS V14.01,2013-09-04 16:59:00,
2013-09-04 12:00:00,95.1,74.1,30.00,NE,44,0.0,5.0,51,0.00,,---,0.00,VWS V14.01,2013-09-04 17:00:00,
2013-09-04 12:01:00,95.1,73.6,30.00,NE,49,0.0,5.0,50,0.00,,---,0.00,VWS V14.01,2013-09-04 17:01:00,
2013-09-04 12:02:00,95.3,74.3,30.00,NE,47,0.0,5.0,51,0.00,,---,0.00,VWS V14.01,2013-09-04 17:02:00,
2013-09-04 12:03:00,95.1,73.6,30.00,NE,49,0.0,5.0,50,0.00,,---,0.00,VWS V14.01,2013-09-04 17:03:00,
2013-09-04 12:04:00,95.1,74.1,30.00,NE,47,4.0,5.0,51,0.00,,---,0.00,VWS V14.01,2013-09-04 17:04:00,
2013-09-04 12:05:00,95.2,73.6,30.00,NE,47,0.0,5.0,50,0.00,,---,0.00,VWS V14.01,2013-09-04 17:05:00,
2013-09-04 12:06:00,95.2,73.6,30.00,NE,47,0.0,5.0,50,0.00,,---,0.00,VWS V14.01,2013-09-04 17:06:00,
2013-09-04 12:07:00,95.5,73.3,30.00,ENE,78,0.0,1.0,49,0.00,,---,0.00,VWS V14.01,2013-09-04 17:07:00,
2013-09-04 12:08:00,95.4,75.6,30.00,NE,47,0.0,5.0,53,0.00,,---,0.00,VWS V14.01,2013-09-04 17:08:00,
2013-09-04 12:09:00,95.5,75.1,30.00,NE,47,0.0,5.0,52,0.00,,---,0.00,VWS V14.01,2013-09-04 17:09:00,
2013-09-04 12:10:00,95.5,73.3,30.00,ENE,71,0.0,1.0,49,0.00,,---,0.00,VWS V14.01,2013-09-04 17:10:00,
2013-09-04 12:11:00,95.5,73.3,30.00,ENE,71,0.0,1.0,49,0.00,,---,0.00,VWS V14.01,2013-09-04 17:11:00,
2013-09-04 12:12:00,95.6,74.0,30.00,ENE,76,3.0,3.0,50,0.00,,---,0.00,VWS V14.01,2013-09-04 17:12:00,
2013-09-04 12:13:00,95.5,73.3,30.00,ENE,78,0.0,1.0,49,0.00,,---,0.00,VWS V14.01,2013-09-04 17:13:00,
2013-09-04 12:14:00,95.5,73.3,30.00,East,82,0.0,1.0,49,0.00,,---,0.00,VWS V14.01,2013-09-04 17:14:00,
2013-09-04 12:15:00,95.5,73.3,30.00,East,82,0.0,1.0,49,0.00,,---,0.00,VWS V14.01,2013-09-04 17:15:00,
2013-09-04 12:16:00,95.5,73.3,30.00,East,82,0.0,1.0,49,0.00,,---,0.00,VWS V14.01,2013-09-04 17:16:00,
2013-09-04 12:17:00,96.2,73.9,30.00,ENE,76,0.0,3.0,49,0.00,,---,0.00,VWS V14.01,2013-09-04 17:17:00,
2013-09-04 12:18:00,95.7,74.1,30.00,ENE,76,0.0,3.0,50,0.00,,---,0.00,VWS V14.01,2013-09-04 17:18:00,
2013-09-04 12:19:00,95.8,74.2,30.00,ENE,76,0.0,3.0,50,0.00,,---,0.00,VWS V14.01,2013-09-04 17:19:00,
2013-09-04 12:20:00,96.0,75.0,30.00,ENE,76,0.0,3.0,51,0.00,,---,0.00,VWS V14.01,2013-09-04 17:20:00,
2013-09-04 12:21:00,96.1,73.9,30.00,ENE,76,0.0,3.0,49,0.00,,---,0.00,VWS V14.01,2013-09-04 17:21:00,
2013-09-04 12:22:00,96.4,72.9,29.99,ENE,76,0.0,1.0,47,0.00,,---,0.00,VWS V14.01,2013-09-04 17:22:00,
2013-09-04 12:23:00,96.2,73.9,30.00,ENE,76,0.0,1.0,49,0.00,,---,0.00,VWS V14.01,2013-09-04 17:23:00,
2013-09-04 12:24:00,96.3,74.0,30.00,ENE,76,0.0,1.0,49,0.00,,---,0.00,VWS V14.01,2013-09-04 17:24:00,
2013-09-04 12:25:00,96.3,73.4,30.00,ENE,76,0.0,1.0,48,0.00,,---,0.00,VWS V14.01,2013-09-04 17:25:00,
2013-09-04 12:26:00,96.4,72.9,29.99,East,79,0.0,1.0,47,0.00,,---,0.00,VWS V14.01,2013-09-04 17:26:00,
2013-09-04 12:27:00,96.4,73.5,30.00,ENE,76,0.0,1.0,48,0.00,,---,0.00,VWS V14.01,2013-09-04 17:27:00,
2013-09-04 12:28:00,96.4,72.9,29.99,ENE,76,0.0,1.0,47,0.00,,---,0.00,VWS V14.01,2013-09-04 17:28:00,
2013-09-04 12:29:00,96.5,73.6,29.99,ENE,76,0.0,1.0,48,0.00,,---,0.00,VWS V14.01,2013-09-04 17:29:00,
2013-09-04 12:30:00,96.5,73.6,29.99,ENE,76,1.0,1.0,48,0.00,,---,0.00,VWS V14.01,2013-09-04 17:30:00,
2013-09-04 12:31:00,96.3,72.8,29.99,East,85,0.0,1.0,47,0.00,,---,0.00,VWS V14.01,2013-09-04 17:31:00,
2013-09-04 12:32:00,96.4,72.9,29.99,East,79,0.0,1.0,47,0.00,,---,0.00,VWS V14.01,2013-09-04 17:32:00,
2013-09-04 12:33:00,96.4,73.5,29.99,East,79,0.0,1.0,48,0.00,,---,0.00,VWS V14.01,2013-09-04 17:33:00,
2013-09-04 12:34:00,96.4,73.5,29.99,East,79,0.0,1.0,48,0.00,,---,0.00,VWS V14.01,2013-09-04 17:34:00,
2013-09-04 12:35:00,96.3,73.4,29.99,East,79,0.0,1.0,48,0.00,,---,0.00,VWS V14.01,2013-09-04 17:35:00,
2013-09-04 12:36:00,96.4,73.5,29.99,ENE,76,0.0,3.0,48,0.00,,---,0.00,VWS V14.01,2013-09-04 17:36:00,
2013-09-04 12:37:00,96.3,72.8,29.99,East,85,0.0,1.0,47,0.00,,---,0.00,VWS V14.01,2013-09-04 17:37:00,
2013-09-04 12:38:00,96.3,73.4,29.99,East,81,3.0,3.0,48,0.00,,---,0.00,VWS V14.01,2013-09-04 17:38:00,
2013-09-04 12:39:00,96.3,72.8,29.99,ENE,76,3.0,3.0,47,0.00,,---,0.00,VWS V14.01,2013-09-04 17:39:00,
2013-09-04 12:40:00,96.3,73.4,29.99,ENE,76,0.0,3.0,48,0.00,,---,0.00,VWS V14.01,2013-09-04 17:40:00,
2013-09-04 12:41:00,96.7,74.4,29.99,ENE,63,0.0,4.0,49,0.00,,---,0.00,VWS V14.01,2013-09-04 17:41:00,
2013-09-04 12:42:00,96.4,73.5,29.99,ENE,76,0.0,3.0,48,0.00,,---,0.00,VWS V14.01,2013-09-04 17:42:00,
2013-09-04 12:43:00,96.4,73.5,29.99,ENE,67,2.0,4.0,48,0.00,,---,0.00,VWS V14.01,2013-09-04 17:43:00,
2013-09-04 12:44:00,96.4,73.5,29.99,ENE,66,0.0,4.0,48,0.00,,---,0.00,VWS V14.01,2013-09-04 17:44:00,
2013-09-04 12:45:00,96.5,74.2,29.99,ENE,63,0.0,4.0,49,0.00,,---,0.00,VWS V14.01,2013-09-04 17:45:00,
2013-09-04 12:46:00,96.9,73.3,29.99,NE,53,0.0,6.0,47,0.00,,---,0.00,VWS V14.01,2013-09-04 17:46:00,
2013-09-04 12:47:00,96.7,75.0,29.99,ENE,63,0.0,4.0,50,0.00,,---,0.00,VWS V14.01,2013-09-04 17:47:00,
2013-09-04 12:48:00,96.7,75.0,29.99,ENE,63,0.0,3.0,50,0.00,,---,0.00,VWS V14.01,2013-09-04 17:48:00,
2013-09-04 12:49:00,96.8,73.9,29.99,ENE,63,0.0,2.0,48,0.00,,---,0.00,VWS V14.01,2013-09-04 17:49:00,
2013-09-04 12:50:00,96.9,73.3,29.99,ENE,63,1.0,2.0,47,0.00,,---,0.00,VWS V14.01,2013-09-04 17:50:00,
2013-09-04 12:51:00,97.1,72.9,29.99,NE,51,0.0,6.0,46,0.00,,---,0.00,VWS V14.01,2013-09-04 17:51:00,
2013-09-04 12:52:00,96.9,73.3,29.99,NE,53,0.0,6.0,47,0.00,,---,0.00,VWS V14.01,2013-09-04 17:52:00,
2013-09-04 12:53:00,96.9,73.3,29.99,NE,53,4.0,6.0,47,0.00,,---,0.00,VWS V14.01,2013-09-04 17:53:00,
2013-09-04 12:54:00,96.9,73.3,29.99,NE,52,0.0,6.0,47,0.00,,---,0.00,VWS V14.01,2013-09-04 17:54:00,
2013-09-04 12:55:00,97.0,74.1,29.99,NE,51,1.0,6.0,48,0.00,,---,0.00,VWS V14.01,2013-09-04 17:55:00,
2013-09-04 12:56:00,97.2,74.9,29.99,NE,51,0.0,3.0,49,0.00,,---,0.00,VWS V14.01,2013-09-04 17:56:00,
2013-09-04 12:57:00,97.1,73.5,29.99,NE,51,0.0,6.0,47,0.00,,---,0.00,VWS V14.01,2013-09-04 17:57:00,
2013-09-04 12:58:00,97.1,72.9,29.99,NE,51,0.0,6.0,46,0.00,,---,0.00,VWS V14.01,2013-09-04 17:58:00,
2013-09-04 12:59:00,97.1,73.5,29.99,NE,51,0.0,4.0,47,0.00,,---,0.00,VWS V14.01,2013-09-04 17:59:00,
2013-09-04 13:00:00,97.1,73.5,29.99,NE,51,0.0,3.0,47,0.00,,---,0.00,VWS V14.01,2013-09-04 18:00:00,
2013-09-04 13:01:00,97.1,73.5,29.98,NE,51,0.0,2.0,47,0.00,,---,0.00,VWS V14.01,2013-09-04 18:01:00,
2013-09-04 13:03:00,97.2,73.6,29.99,NE,51,0.0,2.0,47,0.00,,---,0.00,VWS V14.01,2013-09-04 18:03:00,
2013-09-04 13:04:00,97.2,73.6,29.99,NE,51,0.0,1.0,47,0.00,,---,0.00,VWS V14.01,2013-09-04 18:04:00,
2013-09-04 13:05:00,97.2,73.6,29.99,NE,51,0.0,1.0,47,0.00,,---,0.00,VWS V14.01,2013-09-04 18:05:00,
2013-09-04 13:06:00,97.2,73.0,29.99,NE,48,0.0,7.0,46,0.00,,---,0.00,VWS V14.01,2013-09-04 18:06:00,
2013-09-04 13:07:00,97.1,73.5,29.99,NE,51,0.0,2.0,47,0.00,,---,0.00,VWS V14.01,2013-09-04 18:07:00,
2013-09-04 13:08:00,97.1,74.2,29.98,NE,51,0.0,2.0,48,0.00,,---,0.00,VWS V14.01,2013-09-04 18:08:00,
2013-09-04 13:09:00,97.1,74.2,29.99,NE,47,6.0,7.0,48,0.00,,---,0.00,VWS V14.01,2013-09-04 18:09:00,
2013-09-04 13:11:00,97.5,73.2,29.98,NE,54,0.0,2.0,46,0.00,,---,0.00,VWS V14.01,2013-09-04 18:11:00,
2013-09-04 13:12:00,97.2,73.0,29.98,NE,48,0.0,7.0,46,0.00,,---,0.00,VWS V14.01,2013-09-04 18:12:00,
2013-09-04 13:13:00,97.3,73.1,29.99,NE,48,0.0,7.0,46,0.00,,---,0.00,VWS V14.01,2013-09-04 18:13:00,
2013-09-04 13:14:00,97.3,73.1,29.99,NE,48,0.0,5.0,46,0.00,,---,0.00,VWS V14.01,2013-09-04 18:14:00,
2013-09-04 13:15:00,97.3,73.7,29.98,NE,54,0.0,3.0,47,0.00,,---,0.00,VWS V14.01,2013-09-04 18:15:00,
2013-09-04 13:16:00,97.8,72.9,29.98,NE,54,0.0,0.0,45,0.00,,---,0.00,VWS V14.01,2013-09-04 18:16:00,
2013-09-04 13:17:00,97.4,73.2,29.98,NE,54,0.0,3.0,46,0.00,,---,0.00,VWS V14.01,2013-09-04 18:17:00,
2013-09-04 13:18:00,97.5,73.9,29.98,NE,54,0.0,2.0,47,0.00,,---,0.00,VWS V14.01,2013-09-04 18:18:00,
2013-09-04 13:19:00,97.6,74.0,29.98,NE,54,0.0,2.0,47,0.00,,---,0.00,VWS V14.01,2013-09-04 18:19:00,
2013-09-04 13:20:00,97.6,73.3,29.98,NE,54,0.0,0.0,46,0.00,,---,0.00,VWS V14.01,2013-09-04 18:20:00,
2013-09-04 13:21:00,98.0,73.1,29.98,ENE,59,0.0,1.0,45,0.00,,---,0.00,VWS V14.01,2013-09-04 18:21:00,
2013-09-04 13:22:00,97.8,73.5,29.98,NE,54,0.0,0.0,46,0.00,,---,0.00,VWS V14.01,2013-09-04 18:22:00,
2013-09-04 13:23:00,97.8,72.9,29.98,NE,54,0.0,0.0,45,0.00,,---,0.00,VWS V14.01,2013-09-04 18:23:00,
2013-09-04 13:24:00,97.9,73.6,29.98,NE,54,0.0,0.0,46,0.00,,---,0.00,VWS V14.01,2013-09-04 18:24:00,
2013-09-04 13:25:00,97.9,73.0,29.98,ENE,59,0.0,0.0,45,0.00,,---,0.00,VWS V14.01,2013-09-04 18:25:00,
2013-09-04 13:26:00,98.2,73.9,29.97,ENE,60,0.0,1.0,46,0.00,,---,0.00,VWS V14.01,2013-09-04 18:26:00,
2013-09-04 13:27:00,98.0,73.1,29.98,ENE,59,0.0,1.0,45,0.00,,---,0.00,VWS V14.01,2013-09-04 18:27:00,
2013-09-04 13:28:00,98.0,73.1,29.98,ENE,59,0.0,1.0,45,0.00,,---,0.00,VWS V14.01,2013-09-04 18:28:00,
2013-09-04 13:29:00,98.1,73.1,29.98,ENE,60,0.0,1.0,45,0.00,,---,0.00,VWS V14.01,2013-09-04 18:29:00,
2013-09-04 13:30:00,98.2,73.2,29.98,ENE,60,0.0,1.0,45,0.00,,---,0.00,VWS V14.01,2013-09-04 18:30:00,
2013-09-04 13:31:00,98.5,73.5,29.97,ENE,62,0.0,3.0,45,0.00,,---,0.00,VWS V14.01,2013-09-04 18:31:00,
2013-09-04 13:32:00,98.2,73.2,29.98,ENE,60,0.0,1.0,45,0.00,,---,0.00,VWS V14.01,2013-09-04 18:32:00,
2013-09-04 13:33:00,98.2,73.9,29.97,ENE,60,0.0,1.0,46,0.00,,---,0.00,VWS V14.01,2013-09-04 18:33:00,
2013-09-04 13:34:00,98.2,73.2,29.97,ENE,60,0.0,0.0,45,0.00,,---,0.00,VWS V14.01,2013-09-04 18:34:00,
2013-09-04 13:35:00,98.3,74.6,29.97,ENE,60,0.0,0.0,47,0.00,,---,0.00,VWS V14.01,2013-09-04 18:35:00,
2013-09-04 13:36:00,98.9,73.2,29.97,NE,53,0.0,5.0,44,0.00,,---,0.00,VWS V14.01,2013-09-04 18:36:00,
2013-09-04 13:37:00,98.5,73.5,29.97,ENE,62,0.0,3.0,45,0.00,,---,0.00,VWS V14.01,2013-09-04 18:37:00,
2013-09-04 13:38:00,98.6,73.6,29.97,ENE,61,0.0,3.0,45,0.00,,---,0.00,VWS V14.01,2013-09-04 18:38:00,
2013-09-04 13:39:00,98.7,73.7,29.97,ENE,62,0.0,3.0,45,0.00,,---,0.00,VWS V14.01,2013-09-04 18:39:00,
2013-09-04 13:40:00,98.8,73.1,29.97,NE,55,4.0,5.0,44,0.00,,---,0.00,VWS V14.01,2013-09-04 18:40:00,
2013-09-04 13:41:00,99.0,72.6,29.97,NE,49,4.0,5.0,43,0.00,,---,0.00,VWS V14.01,2013-09-04 18:41:00,
2013-09-04 13:42:00,98.9,73.2,29.97,NE,53,0.0,5.0,44,0.00,,---,0.00,VWS V14.01,2013-09-04 18:42:00,
2013-09-04 13:43:00,98.9,73.2,29.97,NE,50,4.0,5.0,44,0.00,,---,0.00,VWS V14.01,2013-09-04 18:43:00,
2013-09-04 13:44:00,98.9,73.2,29.97,NE,50,0.0,5.0,44,0.00,,---,0.00,VWS V14.01,2013-09-04 18:44:00,
2013-09-04 13:45:00,99.0,72.6,29.97,NE,50,1.0,5.0,43,0.00,,---,0.00,VWS V14.01,2013-09-04 18:45:00,
2013-09-04 13:46:00,99.0,72.6,29.97,NE,53,1.0,7.0,43,0.00,,---,0.00,VWS V14.01,2013-09-04 18:46:00,
2013-09-04 13:47:00,99.0,72.6,29.97,NE,51,0.0,5.0,43,0.00,,---,0.00,VWS V14.01,2013-09-04 18:47:00,
2013-09-04 13:48:00,99.0,72.6,29.97,NE,49,1.0,7.0,43,0.00,,---,0.00,VWS V14.01,2013-09-04 18:48:00,
2013-09-04 13:49:00,99.0,73.3,29.97,NE,49,0.0,7.0,44,0.00,,---,0.00,VWS V14.01,2013-09-04 18:49:00,
2013-09-04 13:50:00,99.0,72.6,29.97,NE,53,1.0,7.0,43,0.00,,---,0.00,VWS V14.01,2013-09-04 18:50:00,
2013-09-04 13:51:00,99.4,73.0,29.97,ENE,63,0.0,1.0,43,0.00,,---,0.00,VWS V14.01,2013-09-04 18:51:00,
2013-09-04 13:52:00,99.0,72.6,29.97,NE,53,0.0,7.0,43,0.00,,---,0.00,VWS V14.01,2013-09-04 18:52:00,
2013-09-04 13:53:00,99.0,72.6,29.97,NE,53,0.0,1.0,43,0.00,,---,0.00,VWS V14.01,2013-09-04 18:53:00,
2013-09-04 13:54:00,99.1,72.7,29.97,NE,54,0.0,1.0,43,0.00,,---,0.00,VWS V14.01,2013-09-04 18:54:00,
2013-09-04 13:55:00,99.2,72.8,29.97,NE,55,0.0,1.0,43,0.00,,---,0.00,VWS V14.01,2013-09-04 18:55:00,
2013-09-04 13:56:00,99.8,69.7,29.97,East,88,0.0,2.0,38,0.00,,---,0.00,VWS V14.01,2013-09-04 18:56:00,
2013-09-04 13:57:00,99.4,71.6,29.97,ENE,63,0.0,1.0,41,0.00,,---,0.00,VWS V14.01,2013-09-04 18:57:00,
2013-09-04 13:58:00,99.5,72.4,29.97,ENE,68,1.0,1.0,42,0.00,,---,0.00,VWS V14.01,2013-09-04 18:58:00,
2013-09-04 13:59:00,99.6,71.7,29.97,East,86,0.0,2.0,41,0.00,,---,0.00,VWS V14.01,2013-09-04 18:59:00,
2013-09-04 14:00:00,99.7,71.1,29.97,East,92,1.0,2.0,40,0.00,,---,0.00,VWS V14.01,2013-09-04 19:00:00,
2013-09-04 14:01:00,99.9,70.5,29.97,East,91,0.0,1.0,39,0.00,,---,0.00,VWS V14.01,2013-09-04 19:01:00,
2013-09-04 14:02:00,99.8,70.4,29.97,East,90,0.0,2.0,39,0.00,,---,0.00,VWS V14.01,2013-09-04 19:02:00,
2013-09-04 14:03:00,99.8,69.7,29.97,East,89,1.0,2.0,38,0.00,,---,0.00,VWS V14.01,2013-09-04 19:03:00,
2013-09-04 14:04:00,99.8,68.9,29.97,East,89,0.0,1.0,37,0.00,,---,0.00,VWS V14.01,2013-09-04 19:04:00,
2013-09-04 14:05:00,99.8,68.9,29.97,East,91,0.0,1.0,37,0.00,,---,0.00,VWS V14.01,2013-09-04 19:05:00,
2013-09-04 14:06:00,100.3,70.9,29.96,East,86,0.0,2.0,39,0.00,,---,0.00,VWS V14.01,2013-09-04 19:06:00,
2013-09-04 14:07:00,99.9,70.5,29.97,East,91,0.0,1.0,39,0.00,,---,0.00,VWS V14.01,2013-09-04 19:07:00,
2013-09-04 14:08:00,99.9,70.5,29.97,East,86,0.0,2.0,39,0.00,,---,0.00,VWS V14.01,2013-09-04 19:08:00,
2013-09-04 14:09:00,100.0,71.4,29.97,East,86,0.0,2.0,40,0.00,,---,0.00,VWS V14.01,2013-09-04 19:09:00,
2013-09-04 14:10:00,100.1,72.2,29.97,East,86,0.0,2.0,41,0.00,,---,0.00,VWS V14.01,2013-09-04 19:10:00,
2013-09-04 14:11:00,100.8,72.1,29.96,ENE,77,0.0,3.0,40,0.00,,---,0.00,VWS V14.01,2013-09-04 19:11:00,
2013-09-04 14:12:00,100.3,70.9,29.96,East,86,0.0,2.0,39,0.00,,---,0.00,VWS V14.01,2013-09-04 19:12:00,
2013-09-04 14:13:00,100.3,70.9,29.96,East,86,0.0,1.0,39,0.00,,---,0.00,VWS V14.01,2013-09-04 19:13:00,
2013-09-04 14:14:00,100.5,69.5,29.96,East,86,0.0,0.0,37,0.00,,---,0.00,VWS V14.01,2013-09-04 19:14:00,
2013-09-04 14:15:00,100.6,70.4,29.96,East,86,0.0,1.0,38,0.00,,---,0.00,VWS V14.01,2013-09-04 19:15:00,
2013-09-04 14:16:00,100.9,71.4,29.96,ENE,77,0.0,1.0,39,0.00,,---,0.00,VWS V14.01,2013-09-04 19:16:00,
2013-09-04 14:17:00,100.8,72.1,29.97,ENE,77,0.0,3.0,40,0.00,,---,0.00,VWS V14.01,2013-09-04 19:17:00,
2013-09-04 14:18:00,100.8,72.8,29.96,ENE,77,0.0,3.0,41,0.00,,---,0.00,VWS V14.01,2013-09-04 19:18:00,
2013-09-04 14:19:00,100.9,71.4,29.96,ENE,77,0.0,3.0,39,0.00,,---,0.00,VWS V14.01,2013-09-04 19:19:00,
2013-09-04 14:20:00,100.9,72.2,29.96,ENE,77,0.0,3.0,40,0.00,,---,0.00,VWS V14.01,2013-09-04 19:20:00,
2013-09-04 14:21:00,100.9,73.6,29.96,ENE,75,0.0,3.0,42,0.00,,---,0.00,VWS V14.01,2013-09-04 19:21:00,
2013-09-04 14:22:00,100.9,71.4,29.96,ENE,77,0.0,0.0,39,0.00,,---,0.00,VWS V14.01,2013-09-04 19:22:00,
2013-09-04 14:23:00,100.9,70.7,29.96,ENE,77,0.0,1.0,38,0.00,,---,0.00,VWS V14.01,2013-09-04 19:23:00,
2013-09-04 14:24:00,100.8,71.3,29.96,ENE,77,0.0,1.0,39,0.00,,---,0.00,VWS V14.01,2013-09-04 19:24:00,
2013-09-04 14:25:00,100.8,70.6,29.96,ENE,77,0.0,1.0,38,0.00,,---,0.00,VWS V14.01,2013-09-04 19:25:00,
2013-09-04 14:26:00,100.9,69.9,29.96,ENE,74,0.0,3.0,37,0.00,,---,0.00,VWS V14.01,2013-09-04 19:26:00,
2013-09-04 14:27:00,100.8,71.3,29.96,ENE,75,0.0,3.0,39,0.00,,---,0.00,VWS V14.01,2013-09-04 19:27:00,
2013-09-04 14:28:00,100.9,71.4,29.96,ENE,75,0.0,3.0,39,0.00,,---,0.00,VWS V14.01,2013-09-04 19:28:00,
2013-09-04 14:29:00,100.9,70.7,29.96,ENE,65,1.0,3.0,38,0.00,,---,0.00,VWS V14.01,2013-09-04 19:29:00,
2013-09-04 14:30:00,101.0,69.9,29.96,ENE,65,0.0,3.0,37,0.00,,---,0.00,VWS V14.01,2013-09-04 19:30:00,
2013-09-04 14:31:00,100.7,68.9,29.96,NE,49,0.0,9.0,36,0.00,,---,0.00,VWS V14.01,2013-09-04 19:31:00,
2013-09-04 14:32:00,100.9,70.7,29.96,ENE,74,0.0,3.0,38,0.00,,---,0.00,VWS V14.01,2013-09-04 19:32:00,
2013-09-04 14:33:00,100.9,69.9,29.96,ENE,57,6.0,11.0,37,0.00,,---,0.00,VWS V14.01,2013-09-04 19:33:00,
2013-09-04 14:34:00,100.9,69.9,29.96,NE,46,3.0,9.0,37,0.00,,---,0.00,VWS V14.01,2013-09-04 19:34:00,
2013-09-04 14:35:00,100.9,69.9,29.96,NE,46,0.0,9.0,37,0.00,,---,0.00,VWS V14.01,2013-09-04 19:35:00,
2013-09-04 14:36:00,100.4,70.2,29.96,NE,49,1.0,1.0,38,0.00,,---,0.00,VWS V14.01,2013-09-04 19:36:00,
2013-09-04 14:37:00,100.7,68.1,29.96,NE,49,0.0,9.0,35,0.00,,---,0.00,VWS V14.01,2013-09-04 19:37:00,
2013-09-04 14:38:00,100.6,68.8,29.96,NE,49,0.0,9.0,36,0.00,,---,0.00,VWS V14.01,2013-09-04 19:38:00,
2013-09-04 14:39:00,100.5,69.5,29.96,NE,49,0.0,3.0,37,0.00,,---,0.00,VWS V14.01,2013-09-04 19:39:00,
2013-09-04 14:40:00,100.4,68.6,29.96,NE,49,0.0,1.0,36,0.00,,---,0.00,VWS V14.01,2013-09-04 19:40:00,
2013-09-04 14:41:00,100.3,69.3,29.95,ENE,62,0.0,2.0,37,0.00,,---,0.00,VWS V14.01,2013-09-04 19:41:00,
2013-09-04 14:42:00,100.4,71.7,29.96,NE,49,0.0,1.0,40,0.00,,---,0.00,VWS V14.01,2013-09-04 19:42:00,
2013-09-04 14:43:00,100.4,70.2,29.96,NE,49,0.0,2.0,38,0.00,,---,0.00,VWS V14.01,2013-09-04 19:43:00,
2013-09-04 14:44:00,100.4,70.2,29.96,NE,49,0.0,2.0,38,0.00,,---,0.00,VWS V14.01,2013-09-04 19:44:00,
2013-09-04 14:45:00,100.3,69.3,29.96,NE,49,1.0,2.0,37,0.00,,---,0.00,VWS V14.01,2013-09-04 19:45:00,
2013-09-04 14:46:00,100.5,68.7,29.96,SE,126,0.0,4.0,36,0.00,,---,0.00,VWS V14.01,2013-09-04 19:46:00,
2013-09-04 14:47:00,100.3,68.5,29.95,ENE,62,0.0,2.0,36,0.00,,---,0.00,VWS V14.01,2013-09-04 19:47:00,
2013-09-04 14:48:00,100.3,69.3,29.95,ENE,74,2.0,2.0,37,0.00,,---,0.00,VWS V14.01,2013-09-04 19:48:00,
2013-09-04 14:49:00,100.3,68.5,29.96,SE,131,1.0,4.0,36,0.00,,---,0.00,VWS V14.01,2013-09-04 19:49:00,
2013-09-04 14:50:00,100.4,68.6,29.96,SE,131,0.0,4.0,36,0.00,,---,0.00,VWS V14.01,2013-09-04 19:50:00,
2013-09-04 14:51:00,100.4,67.8,29.96,SE,125,0.0,4.0,35,0.00,,---,0.00,VWS V14.01,2013-09-04 19:51:00,
2013-09-04 14:52:00,100.8,69.0,29.95,SE,133,1.0,3.0,36,0.00,,---,0.00,VWS V14.01,2013-09-04 19:52:00,
2013-09-04 14:53:00,100.5,68.7,29.96,SE,126,0.0,4.0,36,0.00,,---,0.00,VWS V14.01,2013-09-04 19:53:00,
2013-09-04 14:54:00,100.5,68.7,29.96,SE,126,0.0,3.0,36,0.00,,---,0.00,VWS V14.01,2013-09-04 19:54:00,
2013-09-04 14:55:00,100.6,68.8,29.95,SE,134,0.0,2.0,36,0.00,,---,0.00,VWS V14.01,2013-09-04 19:55:00,
2013-09-04 14:56:00,100.7,69.7,29.96,SE,134,0.0,2.0,37,0.00,,---,0.00,VWS V14.01,2013-09-04 19:56:00,
2013-09-04 14:57:00,101.2,70.1,29.95,SE,132,0.0,2.0,37,0.00,,---,0.00,VWS V14.01,2013-09-04 19:57:00,
2013-09-04 14:58:00,100.8,69.0,29.95,SE,133,0.0,3.0,36,0.00,,---,0.00,VWS V14.01,2013-09-04 19:58:00,
2013-09-04 14:59:00,100.9,69.1,29.95,SE,133,0.0,3.0,36,0.00,,---,0.00,VWS V14.01,2013-09-04 19:59:00,
2013-09-04 15:00:00,100.9,69.9,29.95,SE,133,0.0,3.0,37,0.00,,---,0.00,VWS V14.01,2013-09-04 20:00:00,
2013-09-04 15:02:00,101.5,67.9,29.95,ESE,118,0.0,1.0,34,0.00,,---,0.00,VWS V14.01,2013-09-04 20:02:00,
2013-09-04 15:03:00,101.2,69.3,29.95,SE,132,0.0,2.0,36,0.00,,---,0.00,VWS V14.01,2013-09-04 20:03:00,
2013-09-04 15:04:00,101.3,67.8,29.95,ESE,117,0.0,2.0,34,0.00,,---,0.00,VWS V14.01,2013-09-04 20:04:00,
2013-09-04 15:05:00,101.3,67.8,29.95,ESE,118,0.0,2.0,34,0.00,,---,0.00,VWS V14.01,2013-09-04 20:05:00,
2013-09-04 15:06:00,101.4,68.7,29.95,ESE,118,0.0,1.0,35,0.00,,---,0.00,VWS V14.01,2013-09-04 20:06:00,
2013-09-04 15:07:00,101.8,69.0,29.94,SE,136,1.0,5.0,35,0.00,,---,0.00,VWS V14.01,2013-09-04 20:07:00,
2013-09-04 15:08:00,101.5,67.1,29.95,ESE,118,0.0,1.0,33,0.00,,---,0.00,VWS V14.01,2013-09-04 20:08:00,
2013-09-04 15:09:00,101.6,68.0,29.95,ESE,118,0.0,1.0,34,0.00,,---,0.00,VWS V14.01,2013-09-04 20:09:00,
2013-09-04 15:10:00,101.6,68.9,29.95,SE,136,0.0,5.0,35,0.00,,---,0.00,VWS V14.01,2013-09-04 20:10:00,
2013-09-04 15:11:00,101.7,68.9,29.95,SE,136,0.0,5.0,35,0.00,,---,0.00,VWS V14.01,2013-09-04 20:11:00,
2013-09-04 15:12:00,102.2,69.4,29.94,SE,137,0.0,3.0,35,0.00,,---,0.00,VWS V14.01,2013-09-04 20:12:00,
2013-09-04 15:13:00,101.9,69.1,29.94,SE,136,3.0,5.0,35,0.00,,---,0.00,VWS V14.01,2013-09-04 20:13:00,
2013-09-04 15:14:00,101.9,69.1,29.94,SE,137,0.0,5.0,35,0.00,,---,0.00,VWS V14.01,2013-09-04 20:14:00,
2013-09-04 15:15:00,102.0,70.8,29.94,SE,137,0.0,3.0,37,0.00,,---,0.00,VWS V14.01,2013-09-04 20:15:00,
2013-09-04 15:16:00,102.1,70.9,29.94,SE,137,1.0,3.0,37,0.00,,---,0.00,VWS V14.01,2013-09-04 20:16:00,
2013-09-04 15:17:00,102.5,69.6,29.93,SE,141,1.0,4.0,35,0.00,,---,0.00,VWS V14.01,2013-09-04 20:17:00,
2013-09-04 15:18:00,102.2,69.4,29.94,SE,137,1.0,3.0,35,0.00,,---,0.00,VWS V14.01,2013-09-04 20:18:00,
2013-09-04 15:19:00,102.2,69.4,29.94,SE,137,0.0,2.0,35,0.00,,---,0.00,VWS V14.01,2013-09-04 20:19:00,
2013-09-04 15:20:00,102.3,70.3,29.94,SE,137,0.0,2.0,36,0.00,,---,0.00,VWS V14.01,2013-09-04 20:20:00,
2013-09-04 15:21:00,102.4,68.7,29.94,SE,140,2.0,3.0,34,0.00,,---,0.00,VWS V14.01,2013-09-04 20:21:00,
2013-09-04 15:22:00,102.8,69.1,29.93,SE,126,0.0,4.0,34,0.00,,---,0.00,VWS V14.01,2013-09-04 20:22:00,
2013-09-04 15:23:00,102.5,69.6,29.93,SE,141,0.0,4.0,35,0.00,,---,0.00,VWS V14.01,2013-09-04 20:23:00,
2013-09-04 15:24:00,102.6,69.7,29.93,SE,141,0.0,4.0,35,0.00,,---,0.00,VWS V14.01,2013-09-04 20:24:00,
2013-09-04 15:25:00,102.7,69.8,29.93,SE,142,2.0,4.0,35,0.00,,---,0.00,VWS V14.01,2013-09-04 20:25:00,
2013-09-04 15:26:00,102.8,69.1,29.93,SE,142,0.0,4.0,34,0.00,,---,0.00,VWS V14.01,2013-09-04 20:26:00,
2013-09-04 15:27:00,102.9,70.8,29.93,ESE,113,0.0,3.0,36,0.00,,---,0.00,VWS V14.01,2013-09-04 20:27:00,
2013-09-04 15:28:00,102.8,69.1,29.93,SE,126,0.0,4.0,34,0.00,,---,0.00,VWS V14.01,2013-09-04 20:28:00,
2013-09-04 15:29:00,102.8,70.7,29.93,ESE,113,3.0,4.0,36,0.00,,---,0.00,VWS V14.01,2013-09-04 20:29:00,
2013-09-04 15:30:00,102.8,70.7,29.93,ESE,113,0.0,3.0,36,0.00,,---,0.00,VWS V14.01,2013-09-04 20:30:00,
2013-09-04 15:31:00,102.9,70.0,29.93,ESE,113,0.0,3.0,35,0.00,,---,0.00,VWS V14.01,2013-09-04 20:31:00,
2013-09-04 15:32:00,103.0,69.2,29.93,SE,127,0.0,3.0,34,0.00,,---,0.00,VWS V14.01,2013-09-04 20:32:00,
2013-09-04 15:33:00,102.9,70.8,29.93,ESE,113,1.0,3.0,36,0.00,,---,0.00,VWS V14.01,2013-09-04 20:33:00,
2013-09-04 15:34:00,103.0,70.9,29.93,ESE,114,0.0,3.0,36,0.00,,---,0.00,VWS V14.01,2013-09-04 20:34:00,
2013-09-04 15:35:00,103.0,70.1,29.93,ESE,113,0.0,1.0,35,0.00,,---,0.00,VWS V14.01,2013-09-04 20:35:00,
2013-09-04 15:36:00,103.0,69.2,29.93,ESE,123,0.0,2.0,34,0.00,,---,0.00,VWS V14.01,2013-09-04 20:36:00,
2013-09-04 15:37:00,102.9,69.1,29.93,ESE,119,0.0,4.0,34,0.00,,---,0.00,VWS V14.01,2013-09-04 20:37:00,
2013-09-04 15:38:00,103.0,69.2,29.93,SE,127,1.0,3.0,34,0.00,,---,0.00,VWS V14.01,2013-09-04 20:38:00,
2013-09-04 15:39:00,103.1,69.3,29.93,SE,130,4.0,4.0,34,0.00,,---,0.00,VWS V14.01,2013-09-04 20:39:00,
2013-09-04 15:40:00,103.1,68.4,29.93,SE,130,0.0,4.0,33,0.00,,---,0.00,VWS V14.01,2013-09-04 20:40:00,
2013-09-04 15:41:00,103.0,68.4,29.93,ESE,120,0.0,4.0,33,0.00,,---,0.00,VWS V14.01,2013-09-04 20:41:00,
2013-09-04 15:42:00,102.5,68.8,29.93,ESE,108,0.0,1.0,34,0.00,,---,0.00,VWS V14.01,2013-09-04 20:42:00,
2013-09-04 15:43:00,102.9,69.1,29.93,ESE,112,1.0,4.0,34,0.00,,---,0.00,VWS V14.01,2013-09-04 20:43:00,
2013-09-04 15:44:00,102.9,69.1,29.93,ESE,108,0.0,4.0,34,0.00,,---,0.00,VWS V14.01,2013-09-04 20:44:00,
2013-09-04 15:45:00,102.8,69.1,29.93,ESE,108,0.0,2.0,34,0.00,,---,0.00,VWS V14.01,2013-09-04 20:45:00,
2013-09-04 15:46:00,102.7,69.0,29.93,ESE,108,0.0,2.0,34,0.00,,---,0.00,VWS V14.01,2013-09-04 20:46:00,
2013-09-04 15:47:00,102.1,69.3,29.93,SE,142,0.0,4.0,35,0.00,,---,0.00,VWS V14.01,2013-09-04 20:47:00,
2013-09-04 15:48:00,102.4,68.7,29.93,ESE,108,0.0,1.0,34,0.00,,---,0.00,VWS V14.01,2013-09-04 20:48:00,
2013-09-04 15:49:00,102.3,69.5,29.93,ESE,111,0.0,3.0,35,0.00,,---,0.00,VWS V14.01,2013-09-04 20:49:00,
2013-09-04 15:50:00,102.3,68.6,29.93,ESE,114,1.0,3.0,34,0.00,,---,0.00,VWS V14.01,2013-09-04 20:50:00,
2013-09-04 15:51:00,102.2,70.2,29.93,ESE,123,3.0,3.0,36,0.00,,---,0.00,VWS V14.01,2013-09-04 20:51:00,
2013-09-04 15:52:00,102.2,68.5,29.92,South,175,0.0,8.0,34,0.00,,---,0.00,VWS V14.01,2013-09-04 20:52:00,
2013-09-04 15:53:00,102.1,69.3,29.93,SE,142,0.0,4.0,35,0.00,,---,0.00,VWS V14.01,2013-09-04 20:53:00,
2013-09-04 15:54:00,102.1,69.3,29.92,SE,142,0.0,4.0,35,0.00,,---,0.00,VWS V14.01,2013-09-04 20:54:00,
2013-09-04 15:55:00,102.1,69.3,29.92,SE,142,0.0,4.0,35,0.00,,---,0.00,VWS V14.01,2013-09-04 20:55:00,
2013-09-04 15:56:00,102.2,68.5,29.92,SE,142,1.0,4.0,34,0.00,,---,0.00,VWS V14.01,2013-09-04 20:56:00,
2013-09-04 15:57:00,102.3,68.6,29.93,SSE,150,0.0,2.0,34,0.00,,---,0.00,VWS V14.01,2013-09-04 20:57:00,
2013-09-04 15:58:00,102.2,68.5,29.92,South,175,0.0,8.0,34,0.00,,---,0.00,VWS V14.01,2013-09-04 20:58:00,
2013-09-04 15:59:00,102.3,68.6,29.92,SSE,163,0.0,8.0,34,0.00,,---,0.00,VWS V14.01,2013-09-04 20:59:00,
2013-09-04 16:00:00,102.3,68.6,29.92,SSE,151,1.0,8.0,34,0.00,,---,0.00,VWS V14.01,2013-09-04 21:00:00,
2013-09-04 16:01:00,102.3,68.6,29.92,SSE,150,0.0,8.0,34,0.00,,---,0.00,VWS V14.01,2013-09-04 21:01:00,
2013-09-04 16:02:00,102.3,69.5,29.92,SSE,150,0.0,2.0,35,0.00,,---,0.00,VWS V14.01,2013-09-04 21:02:00,
2013-09-04 16:03:00,102.3,68.6,29.93,SSE,150,0.0,2.0,34,0.00,,---,0.00,VWS V14.01,2013-09-04 21:03:00,
2013-09-04 16:04:00,102.3,69.5,29.92,SSE,150,0.0,2.0,35,0.00,,---,0.00,VWS V14.01,2013-09-04 21:04:00,
2013-09-04 16:05:00,102.3,69.5,29.92,SSE,150,0.0,2.0,35,0.00,,---,0.00,VWS V14.01,2013-09-04 21:05:00,
2013-09-04 16:06:00,102.3,70.3,29.92,SSE,150,0.0,0.0,36,0.00,,---,0.00,VWS V14.01,2013-09-04 21:06:00,
2013-09-04 16:07:00,102.0,68.4,29.92,SSE,147,0.0,2.0,34,0.00,,---,0.00,VWS V14.01,2013-09-04 21:07:00,
2013-09-04 16:08:00,102.3,69.5,29.92,SSE,150,0.0,2.0,35,0.00,,---,0.00,VWS V14.01,2013-09-04 21:08:00,
2013-09-04 16:09:00,102.2,68.5,29.92,SSE,147,0.0,2.0,34,0.00,,---,0.00,VWS V14.01,2013-09-04 21:09:00,
2013-09-04 16:10:00,102.2,68.5,29.92,SSE,147,0.0,2.0,34,0.00,,---,0.00,VWS V14.01,2013-09-04 21:10:00,
2013-09-04 16:11:00,102.1,68.4,29.92,SSE,147,0.0,2.0,34,0.00,,---,0.00,VWS V14.01,2013-09-04 21:11:00,
2013-09-04 16:12:00,101.9,69.1,29.92,ESE,115,0.0,3.0,35,0.00,,---,0.00,VWS V14.01,2013-09-04 21:12:00,
2013-09-04 16:13:00,102.0,68.4,29.92,SSE,147,1.0,2.0,34,0.00,,---,0.00,VWS V14.01,2013-09-04 21:13:00,
2013-09-04 16:14:00,102.0,68.4,29.92,SSE,147,0.0,2.0,34,0.00,,---,0.00,VWS V14.01,2013-09-04 21:14:00,
2013-09-04 16:15:00,101.9,68.3,29.92,SSE,147,0.0,1.0,34,0.00,,---,0.00,VWS V14.01,2013-09-04 21:15:00,
2013-09-04 16:16:00,101.9,69.1,29.92,SE,131,0.0,1.0,35,0.00,,---,0.00,VWS V14.01,2013-09-04 21:16:00,
2013-09-04 16:17:00,101.8,69.8,29.92,ESE,107,0.0,2.0,36,0.00,,---,0.00,VWS V14.01,2013-09-04 21:17:00,
2013-09-04 16:18:00,101.9,69.1,29.92,ESE,115,0.0,3.0,35,0.00,,---,0.00,VWS V14.01,2013-09-04 21:18:00,
2013-09-04 16:19:00,101.9,69.9,29.92,ESE,105,1.0,3.0,36,0.00,,---,0.00,VWS V14.01,2013-09-04 21:19:00,
2013-09-04 16:20:00,101.9,69.1,29.92,ESE,108,0.0,3.0,35,0.00,,---,0.00,VWS V14.01,2013-09-04 21:20:00,
2013-09-04 16:22:00,101.4,69.5,29.92,NE,52,0.0,7.0,36,0.00,,---,0.00,VWS V14.01,2013-09-04 21:22:00,
2013-09-04 16:23:00,101.8,69.8,29.92,ESE,107,0.0,2.0,36,0.00,,---,0.00,VWS V14.01,2013-09-04 21:23:00,
2013-09-04 16:24:00,101.7,69.8,29.92,ESE,107,0.0,2.0,36,0.00,,---,0.00,VWS V14.01,2013-09-04 21:24:00,
2013-09-04 16:25:00,101.6,69.7,29.92,East,86,5.0,5.0,36,0.00,,---,0.00,VWS V14.01,2013-09-04 21:25:00,
2013-09-04 16:26:00,101.6,69.7,29.92,ENE,66,0.0,6.0,36,0.00,,---,0.00,VWS V14.01,2013-09-04 21:26:00,
2013-09-04 16:27:00,100.9,69.9,29.91,NE,52,0.0,1.0,37,0.00,,---,0.00,VWS V14.01,2013-09-04 21:27:00,
2013-09-04 16:28:00,101.4,69.5,29.92,NE,52,0.0,7.0,36,0.00,,---,0.00,VWS V14.01,2013-09-04 21:28:00,
2013-09-04 16:29:00,101.3,69.4,29.91,NE,52,0.0,7.0,36,0.00,,---,0.00,VWS V14.01,2013-09-04 21:29:00,
2013-09-04 16:30:00,101.2,69.3,29.92,NE,52,0.0,7.0,36,0.00,,---,0.00,VWS V14.01,2013-09-04 21:30:00,
2013-09-04 16:31:00,101.0,69.2,29.91,NE,52,0.0,7.0,36,0.00,,---,0.00,VWS V14.01,2013-09-04 21:31:00,
2013-09-04 16:32:00,100.5,68.7,29.91,ENE,57,0.0,5.0,36,0.00,,---,0.00,VWS V14.01,2013-09-04 21:32:00,
2013-09-04 16:33:00,100.9,69.9,29.91,NE,52,0.0,1.0,37,0.00,,---,0.00,VWS V14.01,2013-09-04 21:33:00,
2013-09-04 16:34:00,100.8,69.8,29.91,NE,52,0.0,1.0,37,0.00,,---,0.00,VWS V14.01,2013-09-04 21:34:00,
2013-09-04 16:35:00,100.7,69.7,29.91,ESE,111,1.0,3.0,37,0.00,,---,0.00,VWS V14.01,2013-09-04 21:35:00,
2013-09-04 16:37:00,100.3,68.5,29.91,East,92,1.0,7.0,36,0.00,,---,0.00,VWS V14.01,2013-09-04 21:37:00,
2013-09-04 16:38:00,100.5,68.7,29.91,ENE,57,0.0,5.0,36,0.00,,---,0.00,VWS V14.01,2013-09-04 21:38:00,
2013-09-04 16:39:00,100.5,68.7,29.91,NE,51,2.0,7.0,36,0.00,,---,0.00,VWS V14.01,2013-09-04 21:39:00,
2013-09-04 16:40:00,100.4,68.6,29.91,NE,51,0.0,7.0,36,0.00,,---,0.00,VWS V14.01,2013-09-04 21:40:00,
2013-09-04 16:41:00,100.3,68.5,29.91,NE,51,0.0,7.0,36,0.00,,---,0.00,VWS V14.01,2013-09-04 21:41:00,
2013-09-04 16:42:00,100.2,68.4,29.91,East,85,0.0,2.0,36,0.00,,---,0.00,VWS V14.01,2013-09-04 21:42:00,
2013-09-04 16:43:00,100.3,68.5,29.91,East,92,1.0,7.0,36,0.00,,---,0.00,VWS V14.01,2013-09-04 21:43:00,
2013-09-04 16:44:00,100.3,68.5,29.91,East,101,0.0,2.0,36,0.00,,---,0.00,VWS V14.01,2013-09-04 21:44:00,
2013-09-04 16:45:00,100.3,68.5,29.92,East,88,0.0,2.0,36,0.00,,---,0.00,VWS V14.01,2013-09-04 21:45:00,
2013-09-04 16:46:00,100.3,68.5,29.92,East,87,0.0,2.0,36,0.00,,---,0.00,VWS V14.01,2013-09-04 21:46:00,
2013-09-04 16:47:00,100.1,68.4,29.91,East,84,0.0,2.0,36,0.00,,---,0.00,VWS V14.01,2013-09-04 21:47:00,
2013-09-04 16:48:00,100.2,68.4,29.91,East,85,0.0,2.0,36,0.00,,---,0.00,VWS V14.01,2013-09-04 21:48:00,
2013-09-04 16:49:00,100.2,68.4,29.91,East,90,1.0,2.0,36,0.00,,---,0.00,VWS V14.01,2013-09-04 21:49:00,
2013-09-04 16:50:00,100.2,68.4,29.91,ESE,111,1.0,2.0,36,0.00,,---,0.00,VWS V14.01,2013-09-04 21:50:00,
2013-09-04 16:51:00,100.1,67.5,29.91,ESE,111,0.0,2.0,35,0.00,,---,0.00,VWS V14.01,2013-09-04 21:51:00,
2013-09-04 16:52:00,99.8,68.1,29.91,East,89,1.0,3.0,36,0.00,,---,0.00,VWS V14.01,2013-09-04 21:52:00,
2013-09-04 16:53:00,100.1,68.4,29.91,East,84,0.0,2.0,36,0.00,,---,0.00,VWS V14.01,2013-09-04 21:53:00,
2013-09-04 16:54:00,100.0,67.5,29.91,East,84,0.0,2.0,35,0.00,,---,0.00,VWS V14.01,2013-09-04 21:54:00,
2013-09-04 16:55:00,100.0,68.3,29.91,East,82,0.0,1.0,36,0.00,,---,0.00,VWS V14.01,2013-09-04 21:55:00,
2013-09-04 16:56:00,99.9,68.2,29.91,ESE,106,0.0,3.0,36,0.00,,---,0.00,VWS V14.01,2013-09-04 21:56:00,
2013-09-04 16:57:00,99.4,67.8,29.91,ENE,69,0.0,4.0,36,0.00,,---,0.00,VWS V14.01,2013-09-04 21:57:00,
2013-09-04 16:58:00,99.8,68.1,29.91,East,89,1.0,3.0,36,0.00,,---,0.00,VWS V14.01,2013-09-04 21:58:00,
2013-09-04 16:59:00,99.7,68.0,29.91,ENE,72,0.0,3.0,36,0.00,,---,0.00,VWS V14.01,2013-09-04 21:59:00,
2013-09-04 17:00:00,99.7,68.0,29.91,ENE,69,0.0,4.0,36,0.00,,---,0.00,VWS V14.01,2013-09-04 22:00:00,
2013-09-04 17:01:00,99.6,67.9,29.91,ENE,69,0.0,4.0,36,0.00,,---,0.00,VWS V14.01,2013-09-04 22:01:00,
2013-09-04 17:02:00,99.0,68.2,29.91,ENE,64,0.0,2.0,37,0.00,,---,0.00,VWS V14.01,2013-09-04 22:02:00,
2013-09-04 17:03:00,99.4,67.8,29.91,ENE,69,0.0,4.0,36,0.00,,---,0.00,VWS V14.01,2013-09-04 22:03:00,
2013-09-04 17:04:00,99.4,67.8,29.91,ENE,69,2.0,4.0,36,0.00,,---,0.00,VWS V14.01,2013-09-04 22:04:00,
2013-09-04 17:05:00,99.3,68.5,29.91,ENE,67,0.0,2.0,37,0.00,,---,0.00,VWS V14.01,2013-09-04 22:05:00,
2013-09-04 17:06:00,99.2,68.4,29.91,ENE,68,0.0,2.0,37,0.00,,---,0.00,VWS V14.01,2013-09-04 22:06:00,
2013-09-04 17:07:00,98.8,67.2,29.91,ENE,78,0.0,3.0,36,0.00,,---,0.00,VWS V14.01,2013-09-04 22:07:00,
2013-09-04 17:08:00,99.0,68.2,29.91,ENE,64,0.0,2.0,37,0.00,,---,0.00,VWS V14.01,2013-09-04 22:08:00,
2013-09-04 17:09:00,98.9,67.3,29.91,ENE,64,0.0,2.0,36,0.00,,---,0.00,VWS V14.01,2013-09-04 22:09:00,
2013-09-04 17:10:00,98.8,68.0,29.91,ENE,65,0.0,2.0,37,0.00,,---,0.00,VWS V14.01,2013-09-04 22:10:00,
2013-09-04 17:11:00,98.8,67.2,29.91,ESE,109,0.0,2.0,36,0.00,,---,0.00,VWS V14.01,2013-09-04 22:11:00,
2013-09-04 17:12:00,98.8,66.4,29.91,East,94,0.0,1.0,35,0.00,,---,0.00,VWS V14.01,2013-09-04 22:12:00,
2013-09-04 17:13:00,98.8,67.2,29.91,ENE,78,0.0,3.0,36,0.00,,---,0.00,VWS V14.01,2013-09-04 22:13:00,
2013-09-04 17:14:00,98.7,67.1,29.91,ENE,78,0.0,3.0,36,0.00,,---,0.00,VWS V14.01,2013-09-04 22:14:00,
2013-09-04 17:15:00,98.8,67.2,29.91,ENE,78,0.0,3.0,36,0.00,,---,0.00,VWS V14.01,2013-09-04 22:15:00,
2013-09-04 17:16:00,98.8,67.2,29.91,ENE,78,0.0,3.0,36,0.00,,---,0.00,VWS V14.01,2013-09-04 22:16:00,
2013-09-04 17:17:00,98.9,67.3,29.91,ENE,59,4.0,4.0,36,0.00,,---,0.00,VWS V14.01,2013-09-04 22:17:00,
2013-09-04 17:18:00,98.8,66.4,29.91,East,94,0.0,1.0,35,0.00,,---,0.00,VWS V14.01,2013-09-04 22:18:00,
2013-09-04 17:19:00,98.8,66.4,29.91,East,94,0.0,1.0,35,0.00,,---,0.00,VWS V14.01,2013-09-04 22:19:00,
2013-09-04 17:20:00,98.9,67.3,29.91,East,94,0.0,1.0,36,0.00,,---,0.00,VWS V14.01,2013-09-04 22:20:00,
2013-09-04 17:21:00,98.9,66.5,29.91,East,90,0.0,1.0,35,0.00,,---,0.00,VWS V14.01,2013-09-04 22:21:00,
2013-09-04 17:22:00,99.1,67.5,29.91,NE,49,1.0,7.0,36,0.00,,---,0.00,VWS V14.01,2013-09-04 22:22:00,
2013-09-04 17:23:00,98.9,67.3,29.91,ENE,59,4.0,4.0,36,0.00,,---,0.00,VWS V14.01,2013-09-04 22:23:00,
2013-09-04 17:24:00,98.9,67.3,29.91,NE,51,0.0,7.0,36,0.00,,---,0.00,VWS V14.01,2013-09-04 22:24:00,
2013-09-04 17:26:00,99.0,67.4,29.91,NE,49,0.0,7.0,36,0.00,,---,0.00,VWS V14.01,2013-09-04 22:26:00,
2013-09-04 17:27:00,99.4,67.8,29.91,NE,49,0.0,1.0,36,0.00,,---,0.00,VWS V14.01,2013-09-04 22:27:00,
2013-09-04 17:28:00,99.1,67.5,29.91,NE,49,0.0,7.0,36,0.00,,---,0.00,VWS V14.01,2013-09-04 22:28:00,
2013-09-04 17:29:00,99.1,67.5,29.91,NE,49,0.0,4.0,36,0.00,,---,0.00,VWS V14.01,2013-09-04 22:29:00,
2013-09-04 17:30:00,99.2,67.6,29.91,NE,49,0.0,2.0,36,0.00,,---,0.00,VWS V14.01,2013-09-04 22:30:00,
2013-09-04 17:31:00,99.2,67.6,29.91,NE,49,0.0,1.0,36,0.00,,---,0.00,VWS V14.01,2013-09-04 22:31:00,
2013-09-04 17:32:00,99.8,68.1,29.91,NE,49,3.0,4.0,36,0.00,,---,0.00,VWS V14.01,2013-09-04 22:32:00,
2013-09-04 17:33:00,99.4,67.8,29.91,NE,49,0.0,1.0,36,0.00,,---,0.00,VWS V14.01,2013-09-04 22:33:00,
2013-09-04 17:34:00,99.4,67.8,29.91,NE,49,0.0,1.0,36,0.00,,---,0.00,VWS V14.01,2013-09-04 22:34:00,
2013-09-04 17:35:00,99.5,68.6,29.91,NE,49,0.0,1.0,37,0.00,,---,0.00,VWS V14.01,2013-09-04 22:35:00,
2013-09-04 17:36:00,99.6,68.7,29.91,NE,49,0.0,1.0,37,0.00,,---,0.00,VWS V14.01,2013-09-04 22:36:00,
2013-09-04 17:37:00,100.0,66.6,29.91,ENE,62,0.0,4.0,34,0.00,,---,0.00,VWS V14.01,2013-09-04 22:37:00,
2013-09-04 17:38:00,99.8,68.1,29.90,NE,49,0.0,4.0,36,0.00,,---,0.00,VWS V14.01,2013-09-04 22:38:00,
2013-09-04 17:39:00,99.8,68.1,29.91,NE,45,0.0,4.0,36,0.00,,---,0.00,VWS V14.01,2013-09-04 22:39:00,
2013-09-04 17:40:00,99.9,67.4,29.91,NE,53,0.0,4.0,35,0.00,,---,0.00,VWS V14.01,2013-09-04 22:40:00,
2013-09-04 17:42:00,99.9,66.5,29.91,NNE,31,0.0,9.0,34,0.00,,---,0.00,VWS V14.01,2013-09-04 22:42:00,
2013-09-04 17:43:00,100.0,66.6,29.91,ENE,59,0.0,4.0,34,0.00,,---,0.00,VWS V14.01,2013-09-04 22:43:00,
2013-09-04 17:44:00,100.0,66.6,29.91,ENE,62,0.0,3.0,34,0.00,,---,0.00,VWS V14.01,2013-09-04 22:44:00,
2013-09-04 17:45:00,100.0,66.6,29.91,ENE,62,0.0,3.0,34,0.00,,---,0.00,VWS V14.01,2013-09-04 22:45:00,
2013-09-04 17:46:00,100.0,67.5,29.91,ENE,61,1.0,3.0,35,0.00,,---,0.00,VWS V14.01,2013-09-04 22:46:00,
2013-09-04 17:47:00,99.8,66.4,29.91,NNE,31,0.0,0.0,34,0.00,,---,0.00,VWS V14.01,2013-09-04 22:47:00,
2013-09-04 17:48:00,99.9,66.5,29.91,NNE,31,0.0,9.0,34,0.00,,---,0.00,VWS V14.01,2013-09-04 22:48:00,
2013-09-04 17:49:00,99.9,66.5,29.91,NNE,31,0.0,9.0,34,0.00,,---,0.00,VWS V14.01,2013-09-04 22:49:00,
2013-09-04 17:50:00,99.9,66.5,29.91,NNE,31,0.0,9.0,34,0.00,,---,0.00,VWS V14.01,2013-09-04 22:50:00,
2013-09-04 17:51:00,99.8,66.4,29.91,NNE,31,0.0,9.0,34,0.00,,---,0.00,VWS V14.01,2013-09-04 22:51:00,
2013-09-04 17:52:00,99.7,67.2,29.91,NE,34,0.0,2.0,35,0.00,,---,0.00,VWS V14.01,2013-09-04 22:52:00,
2013-09-04 17:53:00,99.8,66.4,29.91,NNE,31,0.0,0.0,34,0.00,,---,0.00,VWS V14.01,2013-09-04 22:53:00,
2013-09-04 17:54:00,99.8,67.3,29.91,NNE,31,0.0,0.0,35,0.00,,---,0.00,VWS V14.01,2013-09-04 22:54:00,
2013-09-04 17:55:00,99.8,66.4,29.91,NNE,31,0.0,0.0,34,0.00,,---,0.00,VWS V14.01,2013-09-04 22:55:00,
2013-09-04 17:56:00,99.7,66.4,29.91,NNE,31,0.0,0.0,34,0.00,,---,0.00,VWS V14.01,2013-09-04 22:56:00,
2013-09-04 17:57:00,99.4,66.9,29.91,NE,34,0.0,5.0,35,0.00,,---,0.00,VWS V14.01,2013-09-04 22:57:00,
2013-09-04 17:58:00,99.7,67.2,29.91,NE,34,0.0,2.0,35,0.00,,---,0.00,VWS V14.01,2013-09-04 22:58:00,
2013-09-04 17:59:00,99.7,66.4,29.91,NE,34,0.0,2.0,34,0.00,,---,0.00,VWS V14.01,2013-09-04 22:59:00,
2013-09-04 18:00:00,99.6,66.3,29.91,NE,34,2.0,5.0,34,0.00,,---,0.00,VWS V14.01,2013-09-04 23:00:00,
2013-09-04 18:01:00,99.6,66.3,29.91,NE,34,0.0,5.0,34,0.00,,---,0.00,VWS V14.01,2013-09-04 23:01:00,
2013-09-04 18:02:00,99.0,66.6,29.91,NE,34,0.0,2.0,35,0.00,,---,0.00,VWS V14.01,2013-09-04 23:02:00,
2013-09-04 18:03:00,99.5,66.2,29.91,NE,34,0.0,5.0,34,0.00,,---,0.00,VWS V14.01,2013-09-04 23:03:00,
2013-09-04 18:04:00,99.4,66.1,29.91,NE,34,0.0,5.0,34,0.00,,---,0.00,VWS V14.01,2013-09-04 23:04:00,
2013-09-04 18:05:00,99.3,66.0,29.91,NE,34,0.0,2.0,34,0.00,,---,0.00,VWS V14.01,2013-09-04 23:05:00,
2013-09-04 18:06:00,99.2,65.9,29.91,NE,34,0.0,1.0,34,0.00,,---,0.00,VWS V14.01,2013-09-04 23:06:00,
2013-09-04 18:07:00,98.8,67.2,29.90,NE,41,0.0,1.0,36,0.00,,---,0.00,VWS V14.01,2013-09-04 23:07:00,
2013-09-04 18:08:00,99.1,66.7,29.91,NE,34,0.0,2.0,35,0.00,,---,0.00,VWS V14.01,2013-09-04 23:08:00,
2013-09-04 18:09:00,99.0,66.6,29.91,NE,34,0.0,2.0,35,0.00,,---,0.00,VWS V14.01,2013-09-04 23:09:00,
2013-09-04 18:10:00,98.9,66.5,29.91,NE,34,0.0,2.0,35,0.00,,---,0.00,VWS V14.01,2013-09-04 23:10:00,
2013-09-04 18:11:00,98.9,66.5,29.91,NE,34,0.0,2.0,35,0.00,,---,0.00,VWS V14.01,2013-09-04 23:11:00,
2013-09-04 18:12:00,98.6,66.2,29.91,NE,48,0.0,1.0,35,0.00,,---,0.00,VWS V14.01,2013-09-04 23:12:00,
2013-09-04 18:13:00,98.8,67.2,29.91,NE,34,1.0,1.0,36,0.00,,---,0.00,VWS V14.01,2013-09-04 23:13:00,
2013-09-04 18:14:00,98.7,67.1,29.90,NE,45,0.0,1.0,36,0.00,,---,0.00,VWS V14.01,2013-09-04 23:14:00,
2013-09-04 18:15:00,98.7,66.3,29.91,NE,45,0.0,1.0,35,0.00,,---,0.00,VWS V14.01,2013-09-04 23:15:00,
2013-09-04 18:16:00,98.6,66.2,29.91,NE,45,0.0,1.0,35,0.00,,---,0.00,VWS V14.01,2013-09-04 23:16:00,
2013-09-04 18:17:00,98.5,66.1,29.91,NE,49,0.0,2.0,35,0.00,,---,0.00,VWS V14.01,2013-09-04 23:17:00,
2013-09-04 18:18:00,98.6,66.2,29.91,NE,48,0.0,1.0,35,0.00,,---,0.00,VWS V14.01,2013-09-04 23:18:00,
2013-09-04 18:19:00,98.5,66.1,29.91,NE,48,0.0,1.0,35,0.00,,---,0.00,VWS V14.01,2013-09-04 23:19:00,
2013-09-04 18:20:00,98.5,66.1,29.91,NE,48,0.0,1.0,35,0.00,,---,0.00,VWS V14.01,2013-09-04 23:20:00,
2013-09-04 18:21:00,98.5,66.1,29.91,NE,48,0.0,0.0,35,0.00,,---,0.00,VWS V14.01,2013-09-04 23:21:00,
2013-09-04 18:22:00,98.3,66.8,29.91,NE,50,0.0,4.0,36,0.00,,---,0.00,VWS V14.01,2013-09-04 23:22:00,
2013-09-04 18:23:00,98.5,66.1,29.91,NE,49,0.0,2.0,35,0.00,,---,0.00,VWS V14.01,2013-09-04 23:23:00,
2013-09-04 18:24:00,98.5,67.0,29.91,NE,49,4.0,4.0,36,0.00,,---,0.00,VWS V14.01,2013-09-04 23:24:00,
2013-09-04 18:25:00,98.5,67.0,29.91,NE,50,0.0,4.0,36,0.00,,---,0.00,VWS V14.01,2013-09-04 23:25:00,
2013-09-04 18:27:00,98.3,66.0,29.91,ENE,74,0.0,2.0,35,0.00,,---,0.00,VWS V14.01,2013-09-04 23:27:00,
2013-09-04 18:28:00,98.4,66.9,29.91,NE,50,0.0,4.0,36,0.00,,---,0.00,VWS V14.01,2013-09-04 23:28:00,
2013-09-04 18:29:00,98.3,66.8,29.91,NE,49,0.0,4.0,36,0.00,,---,0.00,VWS V14.01,2013-09-04 23:29:00,
2013-09-04 18:30:00,98.3,66.0,29.91,NE,50,0.0,1.0,35,0.00,,---,0.00,VWS V14.01,2013-09-04 23:30:00,
2013-09-04 18:31:00,98.3,66.0,29.91,ENE,59,1.0,1.0,35,0.00,,---,0.00,VWS V14.01,2013-09-04 23:31:00,
2013-09-04 18:32:00,98.2,65.9,29.90,East,82,0.0,0.0,35,0.00,,---,0.00,VWS V14.01,2013-09-04 23:32:00,
2013-09-04 18:33:00,98.3,66.0,29.91,ENE,74,0.0,2.0,35,0.00,,---,0.00,VWS V14.01,2013-09-04 23:33:00,
2013-09-04 18:34:00,98.3,66.0,29.91,ENE,74,0.0,2.0,35,0.00,,---,0.00,VWS V14.01,2013-09-04 23:34:00,
2013-09-04 18:35:00,98.3,66.0,29.91,ENE,76,0.0,2.0,35,0.00,,---,0.00,VWS V14.01,2013-09-04 23:35:00,
2013-09-04 18:36:00,98.3,66.0,29.91,East,82,0.0,2.0,35,0.00,,---,0.00,VWS V14.01,2013-09-04 23:36:00,
2013-09-04 18:37:00,98.1,65.8,29.90,ENE,62,3.0,5.0,35,0.00,,---,0.00,VWS V14.01,2013-09-04 23:37:00,
2013-09-04 18:38:00,98.2,65.9,29.91,East,82,0.0,1.0,35,0.00,,---,0.00,VWS V14.01,2013-09-04 23:38:00,
2013-09-04 18:39:00,98.2,65.9,29.90,East,82,0.0,0.0,35,0.00,,---,0.00,VWS V14.01,2013-09-04 23:39:00,
2013-09-04 18:40:00,98.2,65.9,29.90,ENE,77,0.0,2.0,35,0.00,,---,0.00,VWS V14.01,2013-09-04 23:40:00,
2013-09-04 18:41:00,98.2,65.9,29.90,ENE,73,0.0,2.0,35,0.00,,---,0.00,VWS V14.01,2013-09-04 23:41:00,
2013-09-04 18:42:00,97.9,65.6,29.90,ENE,61,0.0,2.0,35,0.00,,---,0.00,VWS V14.01,2013-09-04 23:42:00,
2013-09-04 18:43:00,98.1,65.8,29.90,ENE,67,0.0,4.0,35,0.00,,---,0.00,VWS V14.01,2013-09-04 23:43:00,
2013-09-04 18:44:00,98.1,65.8,29.90,ENE,61,0.0,5.0,35,0.00,,---,0.00,VWS V14.01,2013-09-04 23:44:00,
2013-09-04 18:45:00,98.0,65.7,29.90,ENE,61,0.0,5.0,35,0.00,,---,0.00,VWS V14.01,2013-09-04 23:45:00,
2013-09-04 18:46:00,98.0,65.7,29.90,ENE,61,0.0,5.0,35,0.00,,---,0.00,VWS V14.01,2013-09-04 23:46:00,
2013-09-04 18:47:00,97.7,65.4,29.90,NE,49,0.0,6.0,35,0.00,,---,0.00,VWS V14.01,2013-09-04 23:47:00,
2013-09-04 18:48:00,97.9,65.6,29.90,ENE,61,0.0,5.0,35,0.00,,---,0.00,VWS V14.01,2013-09-04 23:48:00,
2013-09-04 18:49:00,97.9,65.6,29.90,ENE,61,2.0,2.0,35,0.00,,---,0.00,VWS V14.01,2013-09-04 23:49:00,
2013-09-04 18:50:00,97.8,65.5,29.90,NE,49,3.0,6.0,35,0.00,,---,0.00,VWS V14.01,2013-09-04 23:50:00,
2013-09-04 18:51:00,97.8,65.5,29.90,NE,49,0.0,6.0,35,0.00,,---,0.00,VWS V14.01,2013-09-04 23:51:00,
2013-09-04 18:52:00,97.4,65.2,29.90,NE,46,0.0,4.0,35,0.00,,---,0.00,VWS V14.01,2013-09-04 23:52:00,
2013-09-04 18:53:00,97.7,65.4,29.90,NE,49,0.0,6.0,35,0.00,,---,0.00,VWS V14.01,2013-09-04 23:53:00,
2013-09-04 18:54:00,97.7,65.4,29.90,NE,49,0.0,6.0,35,0.00,,---,0.00,VWS V14.01,2013-09-04 23:54:00,
2013-09-04 18:55:00,97.6,65.4,29.90,NE,49,2.0,4.0,35,0.00,,---,0.00,VWS V14.01,2013-09-04 23:55:00,
2013-09-04 18:56:00,97.5,65.3,29.90,NE,49,0.0,4.0,35,0.00,,---,0.00,VWS V14.01,2013-09-04 23:56:00,
2013-09-04 18:57:00,97.2,65.0,29.90,NE,46,0.0,7.0,35,0.00,,---,0.00,VWS V14.01,2013-09-04 23:57:00,
2013-09-04 18:58:00,97.4,65.2,29.90,NE,46,0.0,4.0,35,0.00,,---,0.00,VWS V14.01,2013-09-04 23:58:00,
2013-09-04 18:59:00,97.4,65.2,29.90,NE,46,0.0,4.0,35,0.00,,---,0.00,VWS V14.01,2013-09-04 23:59:00,
2013-09-04 19:00:00,97.3,65.1,29.90,NE,46,0.0,4.0,35,0.00,,---,0.00,VWS V14.01,2013-09-05 00:00:00,
2013-09-04 19:01:00,97.3,65.1,29.90,NE,45,4.0,6.0,35,0.00,,---,0.00,VWS V14.01,2013-09-05 00:01:00,
2013-09-04 19:02:00,96.9,65.6,29.91,NE,42,0.0,5.0,36,0.00,,---,0.00,VWS V14.01,2013-09-05 00:02:00,
2013-09-04 19:03:00,97.2,65.0,29.90,NE,45,1.0,7.0,35,0.00,,---,0.00,VWS V14.01,2013-09-05 00:03:00,
2013-09-04 19:04:00,97.1,65.7,29.90,NE,46,0.0,7.0,36,0.00,,---,0.00,VWS V14.01,2013-09-05 00:04:00,
2013-09-04 19:05:00,97.1,65.7,29.90,NE,45,2.0,7.0,36,0.00,,---,0.00,VWS V14.01,2013-09-05 00:05:00,
2013-09-04 19:06:00,97.0,65.6,29.90,NE,45,0.0,7.0,36,0.00,,---,0.00,VWS V14.01,2013-09-05 00:06:00,
2013-09-04 19:07:00,96.9,65.6,29.90,NE,42,0.0,6.0,36,0.00,,---,0.00,VWS V14.01,2013-09-05 00:07:00,
2013-09-04 19:08:00,96.6,65.3,29.91,NE,44,0.0,5.0,36,0.00,,---,0.00,VWS V14.01,2013-09-05 00:08:00,
2013-09-04 19:09:00,96.8,65.5,29.91,NE,42,1.0,5.0,36,0.00,,---,0.00,VWS V14.01,2013-09-05 00:09:00,
2013-09-04 19:10:00,96.8,65.5,29.91,NE,42,1.0,3.0,36,0.00,,---,0.00,VWS V14.01,2013-09-05 00:10:00,
2013-09-04 19:11:00,96.7,65.4,29.91,NE,44,5.0,5.0,36,0.00,,---,0.00,VWS V14.01,2013-09-05 00:11:00,
2013-09-04 19:12:00,96.7,65.4,29.91,NE,44,0.0,5.0,36,0.00,,---,0.00,VWS V14.01,2013-09-05 00:12:00,
2013-09-04 19:13:00,96.4,65.9,29.90,NE,44,0.0,3.0,37,0.00,,---,0.00,VWS V14.01,2013-09-05 00:13:00,
2013-09-04 19:14:00,96.5,65.2,29.91,NE,44,0.0,5.0,36,0.00,,---,0.00,VWS V14.01,2013-09-05 00:14:00,
2013-09-04 19:15:00,96.5,66.0,29.91,NE,44,0.0,5.0,37,0.00,,---,0.00,VWS V14.01,2013-09-05 00:15:00,
2013-09-04 19:16:00,96.4,65.9,29.91,NE,44,0.0,5.0,37,0.00,,---,0.00,VWS V14.01,2013-09-05 00:16:00,
2013-09-04 19:17:00,96.4,65.9,29.90,NE,44,0.0,3.0,37,0.00,,---,0.00,VWS V14.01,2013-09-05 00:17:00,
2013-09-04 19:18:00,96.1,65.6,29.91,NE,44,0.0,0.0,37,0.00,,---,0.00,VWS V14.01,2013-09-05 00:18:00,
2013-09-04 19:21:00,96.2,65.7,29.91,NE,44,0.0,1.0,37,0.00,,---,0.00,VWS V14.01,2013-09-05 00:21:00,
2013-09-04 19:22:00,96.2,65.7,29.90,NE,44,0.0,1.0,37,0.00,,---,0.00,VWS V14.01,2013-09-05 00:22:00,
2013-09-04 19:23:00,95.9,65.5,29.91,NE,44,0.0,1.0,37,0.00,,---,0.00,VWS V14.01,2013-09-05 00:23:00,
2013-09-04 19:24:00,96.1,65.6,29.91,NE,44,0.0,0.0,37,0.00,,---,0.00,VWS V14.01,2013-09-05 00:24:00,
2013-09-04 19:25:00,96.1,65.6,29.91,NE,44,1.0,1.0,37,0.00,,---,0.00,VWS V14.01,2013-09-05 00:25:00,
2013-09-04 19:26:00,96.0,65.6,29.91,NE,44,0.0,1.0,37,0.00,,---,0.00,VWS V14.01,2013-09-05 00:26:00,
2013-09-04 19:27:00,96.0,65.6,29.91,NE,44,0.0,1.0,37,0.00,,---,0.00,VWS V14.01,2013-09-05 00:27:00,
2013-09-04 19:28:00,95.7,66.1,29.91,NE,44,0.0,1.0,38,0.00,,---,0.00,VWS V14.01,2013-09-05 00:28:00,
2013-09-04 19:29:00,95.9,65.5,29.91,NE,44,0.0,1.0,37,0.00,,---,0.00,VWS V14.01,2013-09-05 00:29:00,
2013-09-04 19:31:00,95.8,66.1,29.91,NE,44,0.0,0.0,38,0.00,,---,0.00,VWS V14.01,2013-09-05 00:31:00,
2013-09-04 19:32:00,95.8,66.1,29.91,NE,44,0.0,1.0,38,0.00,,---,0.00,VWS V14.01,2013-09-05 00:32:00,
2013-09-04 19:33:00,95.4,65.8,29.91,NE,46,0.0,2.0,38,0.00,,---,0.00,VWS V14.01,2013-09-05 00:33:00,
2013-09-04 19:34:00,95.7,66.1,29.91,NE,44,0.0,1.0,38,0.00,,---,0.00,VWS V14.01,2013-09-05 00:34:00,
2013-09-04 19:35:00,95.6,66.0,29.91,NE,44,0.0,1.0,38,0.00,,---,0.00,VWS V14.01,2013-09-05 00:35:00,
2013-09-04 19:36:00,95.5,65.9,29.91,NE,44,0.0,2.0,38,0.00,,---,0.00,VWS V14.01,2013-09-05 00:36:00,
2013-09-04 19:37:00,95.5,65.9,29.91,NE,44,0.0,2.0,38,0.00,,---,0.00,VWS V14.01,2013-09-05 00:37:00,
2013-09-04 19:38:00,95.2,66.4,29.91,NE,46,0.0,1.0,39,0.00,,---,0.00,VWS V14.01,2013-09-05 00:38:00,
2013-09-04 19:39:00,95.4,65.8,29.91,NE,46,0.0,2.0,38,0.00,,---,0.00,VWS V14.01,2013-09-05 00:39:00,
2013-09-04 19:40:00,95.4,65.8,29.91,NE,46,1.0,2.0,38,0.00,,---,0.00,VWS V14.01,2013-09-05 00:40:00,
2013-09-04 19:41:00,95.3,66.4,29.91,NE,46,0.0,1.0,39,0.00,,---,0.00,VWS V14.01,2013-09-05 00:41:00,
2013-09-04 19:42:00,95.3,66.4,29.91,NE,46,0.0,1.0,39,0.00,,---,0.00,VWS V14.01,2013-09-05 00:42:00,
2013-09-04 19:43:00,94.9,66.1,29.91,NE,46,0.0,1.0,39,0.00,,---,0.00,VWS V14.01,2013-09-05 00:43:00,
2013-09-04 19:44:00,95.2,66.4,29.91,NE,46,1.0,1.0,39,0.00,,---,0.00,VWS V14.01,2013-09-05 00:44:00,
2013-09-04 19:45:00,95.1,66.3,29.91,NE,46,1.0,1.0,39,0.00,,---,0.00,VWS V14.01,2013-09-05 00:45:00,
2013-09-04 19:46:00,95.1,66.3,29.91,NE,46,0.0,1.0,39,0.00,,---,0.00,VWS V14.01,2013-09-05 00:46:00,
2013-09-04 19:47:00,95.0,66.2,29.91,NE,46,0.0,1.0,39,0.00,,---,0.00,VWS V14.01,2013-09-05 00:47:00,
2013-09-04 19:48:00,94.7,66.6,29.91,NE,44,0.0,4.0,40,0.00,,---,0.00,VWS V14.01,2013-09-05 00:48:00,
2013-09-04 19:49:00,94.9,66.1,29.91,NE,46,0.0,1.0,39,0.00,,---,0.00,VWS V14.01,2013-09-05 00:49:00,
2013-09-04 19:50:00,94.9,66.1,29.91,NE,46,1.0,1.0,39,0.00,,---,0.00,VWS V14.01,2013-09-05 00:50:00,
2013-09-04 19:51:00,94.8,66.0,29.91,NE,44,0.0,4.0,39,0.00,,---,0.00,VWS V14.01,2013-09-05 00:51:00,
2013-09-04 19:52:00,94.8,66.7,29.91,NE,44,0.0,4.0,40,0.00,,---,0.00,VWS V14.01,2013-09-05 00:52:00,
2013-09-04 19:53:00,94.4,66.4,29.91,NE,47,3.0,3.0,40,0.00,,---,0.00,VWS V14.01,2013-09-05 00:53:00,
2013-09-04 19:54:00,94.7,66.6,29.91,NE,44,0.0,4.0,40,0.00,,---,0.00,VWS V14.01,2013-09-05 00:54:00,
2013-09-04 19:55:00,94.6,66.6,29.91,NE,44,0.0,4.0,40,0.00,,---,0.00,VWS V14.01,2013-09-05 00:55:00,
2013-09-04 19:57:00,94.5,66.5,29.91,NE,45,0.0,2.0,40,0.00,,---,0.00,VWS V14.01,2013-09-05 00:57:00,
2013-09-04 19:58:00,94.1,66.8,29.91,NE,53,0.0,3.0,41,0.00,,---,0.00,VWS V14.01,2013-09-05 00:58:00,
2013-09-04 19:59:00,94.4,66.4,29.91,NE,47,3.0,3.0,40,0.00,,---,0.00,VWS V14.01,2013-09-05 00:59:00,
2013-09-04 20:00:00,94.3,66.3,29.91,NE,47,0.0,3.0,40,0.00,,---,0.00,VWS V14.01,2013-09-05 01:00:00,
2013-09-04 20:01:00,94.2,66.9,29.91,NE,48,1.0,3.0,41,0.00,,---,0.00,VWS V14.01,2013-09-05 01:01:00,
2013-09-04 20:03:00,93.9,66.6,29.91,ENE,61,0.0,3.0,41,0.00,,---,0.00,VWS V14.01,2013-09-05 01:03:00,
2013-09-04 20:04:00,94.1,66.8,29.91,ENE,58,1.0,2.0,41,0.00,,---,0.00,VWS V14.01,2013-09-05 01:04:00,
2013-09-04 20:05:00,94.0,66.7,29.91,ENE,57,0.0,3.0,41,0.00,,---,0.00,VWS V14.01,2013-09-05 01:05:00,
2013-09-04 20:06:00,94.0,66.7,29.91,ENE,58,0.0,3.0,41,0.00,,---,0.00,VWS V14.01,2013-09-05 01:06:00,
2013-09-04 20:07:00,93.9,66.6,29.91,ENE,58,0.0,3.0,41,0.00,,---,0.00,VWS V14.01,2013-09-05 01:07:00,
2013-09-04 20:08:00,93.7,67.2,29.92,ENE,69,0.0,1.0,42,0.00,,---,0.00,VWS V14.01,2013-09-05 01:08:00,
2013-09-04 20:09:00,93.8,66.6,29.91,ENE,64,0.0,3.0,41,0.00,,---,0.00,VWS V14.01,2013-09-05 01:09:00,
2013-09-04 20:10:00,93.8,66.6,29.91,ENE,65,0.0,3.0,41,0.00,,---,0.00,VWS V14.01,2013-09-05 01:10:00,
2013-09-04 20:11:00,93.8,66.6,29.92,ENE,67,0.0,3.0,41,0.00,,---,0.00,VWS V14.01,2013-09-05 01:11:00,
2013-09-04 20:12:00,93.7,66.5,29.92,ENE,69,0.0,3.0,41,0.00,,---,0.00,VWS V14.01,2013-09-05 01:12:00,
2013-09-04 20:13:00,93.5,67.0,29.92,ENE,78,0.0,1.0,42,0.00,,---,0.00,VWS V14.01,2013-09-05 01:13:00,
2013-09-04 20:14:00,93.7,67.2,29.92,ENE,69,0.0,1.0,42,0.00,,---,0.00,VWS V14.01,2013-09-05 01:14:00,
2013-09-04 20:15:00,93.6,66.4,29.92,ENE,69,0.0,1.0,41,0.00,,---,0.00,VWS V14.01,2013-09-05 01:15:00,
2013-09-04 20:16:00,93.6,67.1,29.92,ENE,69,0.0,1.0,42,0.00,,---,0.00,VWS V14.01,2013-09-05 01:16:00,
2013-09-04 20:17:00,93.6,67.1,29.92,ENE,78,0.0,1.0,42,0.00,,---,0.00,VWS V14.01,2013-09-05 01:17:00,
2013-09-04 20:18:00,93.4,66.9,29.93,ENE,77,0.0,2.0,42,0.00,,---,0.00,VWS V14.01,2013-09-05 01:18:00,
2013-09-04 20:19:00,93.5,67.0,29.92,ENE,78,0.0,1.0,42,0.00,,---,0.00,VWS V14.01,2013-09-05 01:19:00,
2013-09-04 20:20:00,93.5,67.0,29.92,East,82,0.0,1.0,42,0.00,,---,0.00,VWS V14.01,2013-09-05 01:20:00,
2013-09-04 20:21:00,93.4,66.9,29.92,East,82,0.0,1.0,42,0.00,,---,0.00,VWS V14.01,2013-09-05 01:21:00,
2013-09-04 20:22:00,93.4,66.9,29.92,East,82,0.0,1.0,42,0.00,,---,0.00,VWS V14.01,2013-09-05 01:22:00,
2013-09-04 20:23:00,93.3,66.8,29.93,East,87,0.0,3.0,42,0.00,,---,0.00,VWS V14.01,2013-09-05 01:23:00,
2013-09-04 20:24:00,93.4,66.9,29.93,ENE,77,0.0,2.0,42,0.00,,---,0.00,VWS V14.01,2013-09-05 01:24:00,
2013-09-04 20:25:00,93.3,66.8,29.93,ENE,76,0.0,2.0,42,0.00,,---,0.00,VWS V14.01,2013-09-05 01:25:00,
2013-09-04 20:26:00,93.3,66.8,29.93,ENE,77,0.0,2.0,42,0.00,,---,0.00,VWS V14.01,2013-09-05 01:26:00,
2013-09-04 20:27:00,93.3,66.8,29.93,East,79,0.0,3.0,42,0.00,,---,0.00,VWS V14.01,2013-09-05 01:27:00,
2013-09-04 20:28:00,93.1,66.6,29.93,ENE,61,0.0,7.0,42,0.00,,---,0.00,VWS V14.01,2013-09-05 01:28:00,
2013-09-04 20:29:00,93.2,66.7,29.93,East,87,0.0,3.0,42,0.00,,---,0.00,VWS V14.01,2013-09-05 01:29:00,
2013-09-04 20:30:00,93.2,66.7,29.93,East,92,0.0,3.0,42,0.00,,---,0.00,VWS V14.01,2013-09-05 01:30:00,
2013-09-04 20:31:00,93.2,66.7,29.93,East,92,0.0,3.0,42,0.00,,---,0.00,VWS V14.01,2013-09-05 01:31:00,
2013-09-04 20:32:00,93.2,66.7,29.93,East,92,0.0,2.0,42,0.00,,---,0.00,VWS V14.01,2013-09-05 01:32:00,
2013-09-04 20:33:00,93.0,67.2,29.93,ENE,68,0.0,1.0,43,0.00,,---,0.00,VWS V14.01,2013-09-05 01:33:00,
2013-09-04 20:34:00,93.1,66.6,29.93,ENE,61,0.0,7.0,42,0.00,,---,0.00,VWS V14.01,2013-09-05 01:34:00,
2013-09-04 20:35:00,93.1,66.6,29.93,ENE,63,0.0,7.0,42,0.00,,---,0.00,VWS V14.01,2013-09-05 01:35:00,
2013-09-04 20:36:00,93.1,66.6,29.93,ENE,63,0.0,7.0,42,0.00,,---,0.00,VWS V14.01,2013-09-05 01:36:00,
2013-09-04 20:38:00,92.9,67.1,29.94,East,87,0.0,2.0,43,0.00,,---,0.00,VWS V14.01,2013-09-05 01:38:00,
2013-09-04 20:39:00,93.0,67.2,29.93,ENE,69,0.0,1.0,43,0.00,,---,0.00,VWS V14.01,2013-09-05 01:39:00,
2013-09-04 20:40:00,93.0,66.5,29.93,ENE,69,0.0,1.0,42,0.00,,---,0.00,VWS V14.01,2013-09-05 01:40:00,
2013-09-04 20:41:00,92.9,67.1,29.93,ENE,69,0.0,1.0,43,0.00,,---,0.00,VWS V14.01,2013-09-05 01:41:00,
2013-09-04 20:42:00,92.9,67.1,29.93,ENE,73,0.0,0.0,43,0.00,,---,0.00,VWS V14.01,2013-09-05 01:42:00,
2013-09-04 20:43:00,92.8,67.0,29.94,East,94,0.0,2.0,43,0.00,,---,0.00,VWS V14.01,2013-09-05 01:43:00,
2013-09-04 20:44:00,92.9,67.1,29.94,East,93,0.0,2.0,43,0.00,,---,0.00,VWS V14.01,2013-09-05 01:44:00,
2013-09-04 20:45:00,92.8,67.0,29.94,East,91,0.0,2.0,43,0.00,,---,0.00,VWS V14.01,2013-09-05 01:45:00,
2013-09-04 20:46:00,92.8,67.0,29.94,East,91,0.0,2.0,43,0.00,,---,0.00,VWS V14.01,2013-09-05 01:46:00,
2013-09-04 20:47:00,92.8,67.0,29.94,East,90,0.0,2.0,43,0.00,,---,0.00,VWS V14.01,2013-09-05 01:47:00,
2013-09-04 20:48:00,92.6,66.9,29.94,East,93,0.0,3.0,43,0.00,,---,0.00,VWS V14.01,2013-09-05 01:48:00,
2013-09-04 20:49:00,92.8,67.0,29.94,East,94,0.0,2.0,43,0.00,,---,0.00,VWS V14.01,2013-09-05 01:49:00,
2013-09-04 20:50:00,92.7,66.9,29.94,East,94,0.0,2.0,43,0.00,,---,0.00,VWS V14.01,2013-09-05 01:50:00,
2013-09-04 20:51:00,92.7,66.9,29.94,East,84,0.0,2.0,43,0.00,,---,0.00,VWS V14.01,2013-09-05 01:51:00,
2013-09-04 20:52:00,92.7,66.9,29.94,East,84,0.0,2.0,43,0.00,,---,0.00,VWS V14.01,2013-09-05 01:52:00,
2013-09-04 20:53:00,92.5,66.8,29.94,East,83,0.0,1.0,43,0.00,,---,0.00,VWS V14.01,2013-09-05 01:53:00,
2013-09-04 20:54:00,92.6,66.9,29.94,East,93,0.0,3.0,43,0.00,,---,0.00,VWS V14.01,2013-09-05 01:54:00,
2013-09-04 20:55:00,92.6,66.9,29.94,East,92,0.0,3.0,43,0.00,,---,0.00,VWS V14.01,2013-09-05 01:55:00,
2013-09-04 20:56:00,92.6,66.9,29.94,East,84,0.0,3.0,43,0.00,,---,0.00,VWS V14.01,2013-09-05 01:56:00,
2013-09-04 20:57:00,92.6,66.9,29.94,East,83,0.0,3.0,43,0.00,,---,0.00,VWS V14.01,2013-09-05 01:57:00,
2013-09-04 20:58:00,92.4,67.3,29.94,East,89,1.0,1.0,44,0.00,,---,0.00,VWS V14.01,2013-09-05 01:58:00,
2013-09-04 20:59:00,92.5,66.8,29.94,East,83,0.0,1.0,43,0.00,,---,0.00,VWS V14.01,2013-09-05 01:59:00,
2013-09-04 21:00:00,92.5,66.8,29.94,East,83,0.0,1.0,43,0.00,,---,0.00,VWS V14.01,2013-09-05 02:00:00,
2013-09-04 21:01:00,92.4,66.7,29.94,East,83,0.0,0.0,43,0.00,,---,0.00,VWS V14.01,2013-09-05 02:01:00,
2013-09-04 21:02:00,92.4,66.7,29.94,East,87,0.0,0.0,43,0.00,,---,0.00,VWS V14.01,2013-09-05 02:02:00,
2013-09-04 21:03:00,92.2,66.5,29.95,East,82,0.0,1.0,43,0.00,,---,0.00,VWS V14.01,2013-09-05 02:03:00,
2013-09-04 21:04:00,92.4,67.3,29.94,East,89,1.0,1.0,44,0.00,,---,0.00,VWS V14.01,2013-09-05 02:04:00,
2013-09-04 21:05:00,92.3,66.6,29.94,East,89,0.0,1.0,43,0.00,,---,0.00,VWS V14.01,2013-09-05 02:05:00,
2013-09-04 21:06:00,92.3,66.6,29.94,East,84,0.0,1.0,43,0.00,,---,0.00,VWS V14.01,2013-09-05 02:06:00,
2013-09-04 21:07:00,92.3,66.6,29.94,East,83,0.0,1.0,43,0.00,,---,0.00,VWS V14.01,2013-09-05 02:07:00,
2013-09-04 21:08:00,92.2,67.2,29.95,East,87,0.0,0.0,44,0.00,,---,0.00,VWS V14.01,2013-09-05 02:08:00,
2013-09-04 21:09:00,92.2,66.5,29.95,East,82,0.0,1.0,43,0.00,,---,0.00,VWS V14.01,2013-09-05 02:09:00,
2013-09-04 21:10:00,92.2,66.5,29.95,East,82,0.0,0.0,43,0.00,,---,0.00,VWS V14.01,2013-09-05 02:10:00,
2013-09-04 21:11:00,92.2,67.2,29.95,East,82,0.0,0.0,44,0.00,,---,0.00,VWS V14.01,2013-09-05 02:11:00,
2013-09-04 21:12:00,92.2,67.2,29.95,East,82,0.0,0.0,44,0.00,,---,0.00,VWS V14.01,2013-09-05 02:12:00,
2013-09-04 21:13:00,92.0,67.0,29.95,East,86,0.0,1.0,44,0.00,,---,0.00,VWS V14.01,2013-09-05 02:13:00,
2013-09-04 21:14:00,92.2,67.2,29.95,East,87,0.0,0.0,44,0.00,,---,0.00,VWS V14.01,2013-09-05 02:14:00,
2013-09-04 21:15:00,92.1,67.1,29.95,East,87,0.0,0.0,44,0.00,,---,0.00,VWS V14.01,2013-09-05 02:15:00,
2013-09-04 21:16:00,92.1,67.1,29.95,East,86,0.0,0.0,44,0.00,,---,0.00,VWS V14.01,2013-09-05 02:16:00,
2013-09-04 21:17:00,92.1,67.1,29.95,East,86,0.0,1.0,44,0.00,,---,0.00,VWS V14.01,2013-09-05 02:17:00,
2013-09-04 21:18:00,91.8,67.4,29.95,East,82,0.0,2.0,45,0.00,,---,0.00,VWS V14.01,2013-09-05 02:18:00,
2013-09-04 21:19:00,92.0,67.0,29.95,East,86,0.0,1.0,44,0.00,,---,0.00,VWS V14.01,2013-09-05 02:19:00,
2013-09-04 21:20:00,92.0,67.0,29.95,East,86,0.0,1.0,44,0.00,,---,0.00,VWS V14.01,2013-09-05 02:20:00,
2013-09-04 21:21:00,91.9,66.9,29.95,East,83,0.0,1.0,44,0.00,,---,0.00,VWS V14.01,2013-09-05 02:21:00,
2013-09-04 21:22:00,91.9,66.9,29.95,East,82,0.0,2.0,44,0.00,,---,0.00,VWS V14.01,2013-09-05 02:22:00,
2013-09-04 21:23:00,91.6,67.3,29.96,East,90,0.0,2.0,45,0.00,,---,0.00,VWS V14.01,2013-09-05 02:23:00,
2013-09-04 21:24:00,91.8,67.4,29.95,East,82,0.0,2.0,45,0.00,,---,0.00,VWS V14.01,2013-09-05 02:24:00,
2013-09-04 21:25:00,91.8,67.4,29.95,East,82,0.0,2.0,45,0.00,,---,0.00,VWS V14.01,2013-09-05 02:25:00,
2013-09-04 21:26:00,91.8,67.4,29.96,East,82,0.0,2.0,45,0.00,,---,0.00,VWS V14.01,2013-09-05 02:26:00,
2013-09-04 21:27:00,91.7,67.4,29.96,East,82,0.0,0.0,45,0.00,,---,0.00,VWS V14.01,2013-09-05 02:27:00,
2013-09-04 21:28:00,91.5,67.2,29.96,East,88,0.0,1.0,45,0.00,,---,0.00,VWS V14.01,2013-09-05 02:28:00,
2013-09-04 21:29:00,91.6,67.3,29.96,East,90,0.0,2.0,45,0.00,,---,0.00,VWS V14.01,2013-09-05 02:29:00,
2013-09-04 21:30:00,91.6,67.3,29.96,East,90,0.0,2.0,45,0.00,,---,0.00,VWS V14.01,2013-09-05 02:30:00,
2013-09-04 21:31:00,91.6,67.3,29.96,East,90,0.0,2.0,45,0.00,,---,0.00,VWS V14.01,2013-09-05 02:31:00,
2013-09-04 21:32:00,91.5,67.2,29.96,East,90,0.0,2.0,45,0.00,,---,0.00,VWS V14.01,2013-09-05 02:32:00,
2013-09-04 21:33:00,91.3,67.0,29.97,ENE,78,0.0,2.0,45,0.00,,---,0.00,VWS V14.01,2013-09-05 02:33:00,
2013-09-04 21:34:00,91.5,67.2,29.96,East,88,0.0,1.0,45,0.00,,---,0.00,VWS V14.01,2013-09-05 02:34:00,
2013-09-04 21:35:00,91.4,67.1,29.96,East,86,0.0,1.0,45,0.00,,---,0.00,VWS V14.01,2013-09-05 02:35:00,
2013-09-04 21:36:00,91.4,67.1,29.96,East,83,1.0,1.0,45,0.00,,---,0.00,VWS V14.01,2013-09-05 02:36:00,
2013-09-04 21:37:00,91.4,67.1,29.96,East,83,0.0,2.0,45,0.00,,---,0.00,VWS V14.01,2013-09-05 02:37:00,
2013-09-04 21:38:00,91.2,66.9,29.97,ENE,78,0.0,1.0,45,0.00,,---,0.00,VWS V14.01,2013-09-05 02:38:00,
2013-09-04 21:39:00,91.3,67.0,29.97,ENE,78,0.0,2.0,45,0.00,,---,0.00,VWS V14.01,2013-09-05 02:39:00,
2013-09-04 21:40:00,91.3,67.0,29.97,ENE,78,0.0,2.0,45,0.00,,---,0.00,VWS V14.01,2013-09-05 02:40:00,
2013-09-04 21:41:00,91.3,67.0,29.97,ENE,78,1.0,2.0,45,0.00,,---,0.00,VWS V14.01,2013-09-05 02:41:00,
2013-09-04 21:42:00,91.3,67.0,29.97,ENE,78,0.0,2.0,45,0.00,,---,0.00,VWS V14.01,2013-09-05 02:42:00,
2013-09-04 21:43:00,91.1,66.8,29.97,ENE,76,2.0,2.0,45,0.00,,---,0.00,VWS V14.01,2013-09-05 02:43:00,
2013-09-04 21:44:00,91.2,66.9,29.97,ENE,78,0.0,1.0,45,0.00,,---,0.00,VWS V14.01,2013-09-05 02:44:00,
2013-09-04 21:45:00,91.2,66.9,29.97,ENE,78,0.0,1.0,45,0.00,,---,0.00,VWS V14.01,2013-09-05 02:45:00,
2013-09-04 21:46:00,91.2,66.9,29.97,East,88,0.0,1.0,45,0.00,,---,0.00,VWS V14.01,2013-09-05 02:46:00,
2013-09-04 21:47:00,91.2,66.9,29.97,East,88,0.0,1.0,45,0.00,,---,0.00,VWS V14.01,2013-09-05 02:47:00,
2013-09-04 21:48:00,91.1,66.8,29.97,East,80,0.0,2.0,45,0.00,,---,0.00,VWS V14.01,2013-09-05 02:48:00,
2013-09-04 21:49:00,91.1,66.8,29.97,ENE,78,1.0,1.0,45,0.00,,---,0.00,VWS V14.01,2013-09-05 02:49:00,
2013-09-04 21:50:00,91.2,66.9,29.97,ENE,77,0.0,2.0,45,0.00,,---,0.00,VWS V14.01,2013-09-05 02:50:00,
2013-09-04 21:51:00,91.1,66.8,29.97,ENE,76,0.0,2.0,45,0.00,,---,0.00,VWS V14.01,2013-09-05 02:51:00,
2013-09-04 21:52:00,91.1,66.8,29.97,ENE,76,0.0,2.0,45,0.00,,---,0.00,VWS V14.01,2013-09-05 02:52:00,
2013-09-04 21:53:00,91.0,67.4,29.97,East,84,0.0,1.0,46,0.00,,---,0.00,VWS V14.01,2013-09-05 02:53:00,
2013-09-04 21:54:00,91.1,66.8,29.97,East,80,0.0,2.0,45,0.00,,---,0.00,VWS V14.01,2013-09-05 02:54:00,
2013-09-04 21:55:00,91.1,66.8,29.97,East,86,0.0,0.0,45,0.00,,---,0.00,VWS V14.01,2013-09-05 02:55:00,
2013-09-04 21:56:00,91.1,66.8,29.97,East,85,0.0,1.0,45,0.00,,---,0.00,VWS V14.01,2013-09-05 02:56:00,
2013-09-04 21:57:00,91.1,66.8,29.97,East,82,0.0,1.0,45,0.00,,---,0.00,VWS V14.01,2013-09-05 02:57:00,
2013-09-04 21:58:00,90.9,67.3,29.98,East,88,0.0,1.0,46,0.00,,---,0.00,VWS V14.01,2013-09-05 02:58:00,
2013-09-04 21:59:00,91.0,67.4,29.98,East,84,0.0,1.0,46,0.00,,---,0.00,VWS V14.01,2013-09-05 02:59:00,
2013-09-04 22:00:00,91.0,67.4,29.97,East,84,0.0,1.0,46,0.00,,---,0.00,VWS V14.01,2013-09-05 03:00:00,
2013-09-04 22:01:00,91.0,67.4,29.98,East,84,0.0,0.0,46,0.00,,---,0.00,VWS V14.01,2013-09-05 03:01:00,
2013-09-04 22:02:00,91.0,67.4,29.97,East,84,0.0,0.0,46,0.00,,---,0.00,VWS V14.01,2013-09-05 03:02:00,
2013-09-04 22:03:00,90.8,67.2,29.98,East,98,0.0,1.0,46,0.00,,---,0.00,VWS V14.01,2013-09-05 03:03:00,
2013-09-04 22:04:00,90.9,67.3,29.98,East,88,0.0,1.0,46,0.00,,---,0.00,VWS V14.01,2013-09-05 03:04:00,
2013-09-04 22:05:00,90.9,67.3,29.98,East,88,0.0,1.0,46,0.00,,---,0.00,VWS V14.01,2013-09-05 03:05:00,
2013-09-04 22:06:00,90.8,67.2,29.98,East,88,0.0,1.0,46,0.00,,---,0.00,VWS V14.01,2013-09-05 03:06:00,
2013-09-04 22:07:00,90.8,67.2,29.98,East,92,0.0,1.0,46,0.00,,---,0.00,VWS V14.01,2013-09-05 03:07:00,
2013-09-04 22:08:00,90.6,67.0,29.98,East,99,0.0,1.0,46,0.00,,---,0.00,VWS V14.01,2013-09-05 03:08:00,
2013-09-04 22:09:00,90.7,67.1,29.98,East,98,0.0,1.0,46,0.00,,---,0.00,VWS V14.01,2013-09-05 03:09:00,
2013-09-04 22:10:00,90.7,67.1,29.98,East,98,0.0,1.0,46,0.00,,---,0.00,VWS V14.01,2013-09-05 03:10:00,
2013-09-04 22:11:00,90.7,67.1,29.98,East,96,0.0,1.0,46,0.00,,---,0.00,VWS V14.01,2013-09-05 03:11:00,
2013-09-04 22:12:00,90.7,67.1,29.98,East,96,0.0,1.0,46,0.00,,---,0.00,VWS V14.01,2013-09-05 03:12:00,
2013-09-04 22:13:00,90.5,66.9,29.98,East,89,0.0,1.0,46,0.00,,---,0.00,VWS V14.01,2013-09-05 03:13:00,
2013-09-04 22:14:00,90.6,67.0,29.98,East,98,0.0,1.0,46,0.00,,---,0.00,VWS V14.01,2013-09-05 03:14:00,
2013-09-04 22:15:00,90.6,67.0,29.98,East,93,0.0,1.0,46,0.00,,---,0.00,VWS V14.01,2013-09-05 03:15:00,
2013-09-04 22:16:00,90.6,67.0,29.98,East,93,0.0,1.0,46,0.00,,---,0.00,VWS V14.01,2013-09-05 03:16:00,
2013-09-04 22:17:00,90.5,67.5,29.98,East,93,0.0,1.0,47,0.00,,---,0.00,VWS V14.01,2013-09-05 03:17:00,
2013-09-04 22:18:00,90.4,66.8,29.98,East,83,0.0,4.0,46,0.00,,---,0.00,VWS V14.01,2013-09-05 03:18:00,
2013-09-04 22:19:00,90.5,66.9,29.98,East,88,0.0,1.0,46,0.00,,---,0.00,VWS V14.01,2013-09-05 03:19:00,
2013-09-04 22:21:00,90.5,67.5,29.98,East,87,0.0,1.0,47,0.00,,---,0.00,VWS V14.01,2013-09-05 03:21:00,
2013-09-04 22:22:00,90.4,66.8,29.98,East,80,0.0,4.0,46,0.00,,---,0.00,VWS V14.01,2013-09-05 03:22:00,
2013-09-04 22:23:00,90.3,67.3,29.98,East,84,0.0,0.0,47,0.00,,---,0.00,VWS V14.01,2013-09-05 03:23:00,
2013-09-04 22:24:00,90.4,66.8,29.98,East,83,0.0,4.0,46,0.00,,---,0.00,VWS V14.01,2013-09-05 03:24:00,
2013-09-04 22:25:00,90.4,67.4,29.98,East,83,0.0,4.0,47,0.00,,---,0.00,VWS V14.01,2013-09-05 03:25:00,
2013-09-04 22:26:00,90.4,67.4,29.98,East,83,0.0,4.0,47,0.00,,---,0.00,VWS V14.01,2013-09-05 03:26:00,
2013-09-04 22:27:00,90.4,67.4,29.98,East,83,0.0,0.0,47,0.00,,---,0.00,VWS V14.01,2013-09-05 03:27:00,
2013-09-04 22:28:00,90.2,67.3,29.98,East,84,0.0,1.0,47,0.00,,---,0.00,VWS V14.01,2013-09-05 03:28:00,
2013-09-04 22:29:00,90.3,67.3,29.98,East,84,0.0,0.0,47,0.00,,---,0.00,VWS V14.01,2013-09-05 03:29:00,
2013-09-04 22:31:00,90.3,67.3,29.98,East,86,0.0,1.0,47,0.00,,---,0.00,VWS V14.01,2013-09-05 03:31:00,
2013-09-04 22:32:00,90.2,67.3,29.98,East,84,0.0,1.0,47,0.00,,---,0.00,VWS V14.01,2013-09-05 03:32:00,
2013-09-04 22:33:00,90.1,67.2,29.98,East,83,0.0,0.0,47,0.00,,---,0.00,VWS V14.01,2013-09-05 03:33:00,
2013-09-04 22:34:00,90.2,67.3,29.98,East,84,0.0,1.0,47,0.00,,---,0.00,VWS V14.01,2013-09-05 03:34:00,
2013-09-04 22:35:00,90.2,67.3,29.98,East,83,0.0,0.0,47,0.00,,---,0.00,VWS V14.01,2013-09-05 03:35:00,
2013-09-04 22:36:00,90.2,67.3,29.98,East,83,0.0,0.0,47,0.00,,---,0.00,VWS V14.01,2013-09-05 03:36:00,
2013-09-04 22:37:00,90.2,67.3,29.98,East,83,0.0,0.0,47,0.00,,---,0.00,VWS V14.01,2013-09-05 03:37:00,
2013-09-04 22:38:00,90.0,67.1,29.98,East,80,0.0,1.0,47,0.00,,---,0.00,VWS V14.01,2013-09-05 03:38:00,
2013-09-04 22:39:00,90.1,67.2,29.98,East,83,0.0,0.0,47,0.00,,---,0.00,VWS V14.01,2013-09-05 03:39:00,
2013-09-04 22:40:00,90.1,67.2,29.98,East,83,0.0,0.0,47,0.00,,---,0.00,VWS V14.01,2013-09-05 03:40:00,
2013-09-04 22:41:00,90.1,67.2,29.98,East,83,0.0,0.0,47,0.00,,---,0.00,VWS V14.01,2013-09-05 03:41:00,
2013-09-04 22:42:00,90.1,67.2,29.98,ENE,78,1.0,1.0,47,0.00,,---,0.00,VWS V14.01,2013-09-05 03:42:00,
2013-09-04 22:43:00,89.8,67.5,29.98,East,90,0.0,1.0,48,0.00,,---,0.00,VWS V14.01,2013-09-05 03:43:00,
2013-09-04 22:44:00,90.0,67.1,29.98,East,80,0.0,1.0,47,0.00,,---,0.00,VWS V14.01,2013-09-05 03:44:00,
2013-09-04 22:45:00,90.0,67.7,29.98,ENE,78,0.0,1.0,48,0.00,,---,0.00,VWS V14.01,2013-09-05 03:45:00,
2013-09-04 22:46:00,89.9,67.6,29.99,East,83,0.0,1.0,48,0.00,,---,0.00,VWS V14.01,2013-09-05 03:46:00,
2013-09-04 22:47:00,89.9,67.6,29.99,East,83,0.0,1.0,48,0.00,,---,0.00,VWS V14.01,2013-09-05 03:47:00,
2013-09-04 22:48:00,89.7,67.4,29.98,East,89,0.0,0.0,48,0.00,,---,0.00,VWS V14.01,2013-09-05 03:48:00,
2013-09-04 22:49:00,89.8,67.5,29.98,East,88,0.0,1.0,48,0.00,,---,0.00,VWS V14.01,2013-09-05 03:49:00,
2013-09-04 22:50:00,89.8,67.5,29.98,East,90,0.0,1.0,48,0.00,,---,0.00,VWS V14.01,2013-09-05 03:50:00,
2013-09-04 22:51:00,89.8,67.5,29.98,East,90,0.0,1.0,48,0.00,,---,0.00,VWS V14.01,2013-09-05 03:51:00,
2013-09-04 22:52:00,89.8,67.5,29.98,East,90,0.0,1.0,48,0.00,,---,0.00,VWS V14.01,2013-09-05 03:52:00,
2013-09-04 22:53:00,89.6,67.3,29.98,East,89,0.0,0.0,48,0.00,,---,0.00,VWS V14.01,2013-09-05 03:53:00,
2013-09-04 22:54:00,89.7,67.4,29.98,East,89,0.0,0.0,48,0.00,,---,0.00,VWS V14.01,2013-09-05 03:54:00,
2013-09-04 22:55:00,89.7,67.4,29.98,East,89,0.0,0.0,48,0.00,,---,0.00,VWS V14.01,2013-09-05 03:55:00,
2013-09-04 22:56:00,89.7,67.4,29.98,East,89,0.0,0.0,48,0.00,,---,0.00,VWS V14.01,2013-09-05 03:56:00,
2013-09-04 22:57:00,89.7,67.4,29.98,East,89,0.0,0.0,48,0.00,,---,0.00,VWS V14.01,2013-09-05 03:57:00,
2013-09-04 22:58:00,89.4,67.7,29.99,East,89,0.0,0.0,49,0.00,,---,0.00,VWS V14.01,2013-09-05 03:58:00,
2013-09-04 22:59:00,89.6,67.3,29.98,East,89,0.0,0.0,48,0.00,,---,0.00,VWS V14.01,2013-09-05 03:59:00,
2013-09-04 23:00:00,89.6,67.3,29.98,East,89,0.0,0.0,48,0.00,,---,0.00,VWS V14.01,2013-09-05 04:00:00,
2013-09-04 23:01:00,89.3,67.7,29.99,East,89,0.0,0.0,49,0.00,,---,0.00,VWS V14.01,2013-09-05 04:01:00,
2013-09-04 23:02:00,89.5,67.2,29.98,East,89,0.0,0.0,48,0.00,,---,0.00,VWS V14.01,2013-09-05 04:02:00,
2013-09-04 23:03:00,89.2,67.6,29.99,East,91,0.0,1.0,49,0.00,,---,0.00,VWS V14.01,2013-09-05 04:03:00,
2013-09-04 23:04:00,89.4,67.7,29.99,East,89,0.0,0.0,49,0.00,,---,0.00,VWS V14.01,2013-09-05 04:04:00,
2013-09-04 23:05:00,89.4,67.7,29.99,East,89,0.0,0.0,49,0.00,,---,0.00,VWS V14.01,2013-09-05 04:05:00,
2013-09-04 23:06:00,89.3,67.7,29.99,East,89,0.0,0.0,49,0.00,,---,0.00,VWS V14.01,2013-09-05 04:06:00,
2013-09-04 23:07:00,89.3,67.7,29.99,East,91,0.0,1.0,49,0.00,,---,0.00,VWS V14.01,2013-09-05 04:07:00,
2013-09-04 23:08:00,89.0,68.0,29.98,East,94,0.0,1.0,50,0.00,,---,0.00,VWS V14.01,2013-09-05 04:08:00,
2013-09-04 23:09:00,89.2,67.6,29.99,East,91,0.0,1.0,49,0.00,,---,0.00,VWS V14.01,2013-09-05 04:09:00,
2013-09-04 23:10:00,89.2,67.6,29.99,East,94,0.0,1.0,49,0.00,,---,0.00,VWS V14.01,2013-09-05 04:10:00,
2013-09-04 23:11:00,89.2,67.6,29.98,East,94,0.0,1.0,49,0.00,,---,0.00,VWS V14.01,2013-09-05 04:11:00,
2013-09-04 23:12:00,89.1,67.5,29.98,East,94,0.0,1.0,49,0.00,,---,0.00,VWS V14.01,2013-09-05 04:12:00,
2013-09-04 23:13:00,88.8,67.8,29.99,East,101,0.0,3.0,50,0.00,,---,0.00,VWS V14.01,2013-09-05 04:13:00,
2013-09-04 23:14:00,89.0,68.0,29.98,East,94,0.0,1.0,50,0.00,,---,0.00,VWS V14.01,2013-09-05 04:14:00,
2013-09-04 23:15:00,89.0,68.0,29.99,East,94,0.0,1.0,50,0.00,,---,0.00,VWS V14.01,2013-09-05 04:15:00,
2013-09-04 23:16:00,88.9,67.9,29.99,East,94,1.0,1.0,50,0.00,,---,0.00,VWS V14.01,2013-09-05 04:16:00,
2013-09-04 23:17:00,88.9,67.9,29.99,East,94,0.0,1.0,50,0.00,,---,0.00,VWS V14.01,2013-09-05 04:17:00,
2013-09-04 23:18:00,88.7,67.7,29.99,ESE,103,0.0,1.0,50,0.00,,---,0.00,VWS V14.01,2013-09-05 04:18:00,
2013-09-04 23:19:00,88.8,67.8,29.99,East,101,0.0,3.0,50,0.00,,---,0.00,VWS V14.01,2013-09-05 04:19:00,
2013-09-04 23:20:00,88.8,67.8,29.99,East,96,0.0,3.0,50,0.00,,---,0.00,VWS V14.01,2013-09-05 04:20:00,
2013-09-04 23:21:00,88.8,67.8,29.99,ESE,102,0.0,3.0,50,0.00,,---,0.00,VWS V14.01,2013-09-05 04:21:00,
2013-09-04 23:22:00,88.7,67.7,29.99,ESE,103,0.0,3.0,50,0.00,,---,0.00,VWS V14.01,2013-09-05 04:22:00,
2013-09-04 23:23:00,88.5,68.1,29.99,ESE,110,0.0,3.0,51,0.00,,---,0.00,VWS V14.01,2013-09-05 04:23:00,
2013-09-04 23:24:00,88.7,67.7,29.99,ESE,103,0.0,1.0,50,0.00,,---,0.00,VWS V14.01,2013-09-05 04:24:00,
2013-09-04 23:25:00,88.6,67.6,29.99,ESE,108,2.0,2.0,50,0.00,,---,0.00,VWS V14.01,2013-09-05 04:25:00,
2013-09-04 23:26:00,88.6,67.6,29.99,ESE,110,0.0,3.0,50,0.00,,---,0.00,VWS V14.01,2013-09-05 04:26:00,
2013-09-04 23:27:00,88.6,67.6,29.99,ESE,110,0.0,3.0,50,0.00,,---,0.00,VWS V14.01,2013-09-05 04:27:00,
2013-09-04 23:28:00,88.4,68.0,29.99,ESE,103,0.0,2.0,51,0.00,,---,0.00,VWS V14.01,2013-09-05 04:28:00,
2013-09-04 23:29:00,88.5,68.1,29.99,ESE,110,0.0,3.0,51,0.00,,---,0.00,VWS V14.01,2013-09-05 04:29:00,
2013-09-04 23:30:00,88.5,68.1,29.99,ESE,110,0.0,3.0,51,0.00,,---,0.00,VWS V14.01,2013-09-05 04:30:00,
2013-09-04 23:31:00,88.5,68.1,29.99,ESE,110,0.0,1.0,51,0.00,,---,0.00,VWS V14.01,2013-09-05 04:31:00,
2013-09-04 23:32:00,88.5,68.1,29.99,East,100,2.0,2.0,51,0.00,,---,0.00,VWS V14.01,2013-09-05 04:32:00,
2013-09-04 23:33:00,88.3,67.9,29.99,ESE,109,0.0,2.0,51,0.00,,---,0.00,VWS V14.01,2013-09-05 04:33:00,
2013-09-04 23:34:00,88.4,68.0,29.99,ESE,103,0.0,2.0,51,0.00,,---,0.00,VWS V14.01,2013-09-05 04:34:00,
2013-09-04 23:35:00,88.4,68.0,29.99,ESE,105,0.0,2.0,51,0.00,,---,0.00,VWS V14.01,2013-09-05 04:35:00,
2013-09-04 23:36:00,88.4,68.0,29.99,ESE,109,0.0,2.0,51,0.00,,---,0.00,VWS V14.01,2013-09-05 04:36:00,
2013-09-04 23:37:00,88.4,68.0,29.99,ESE,109,0.0,2.0,51,0.00,,---,0.00,VWS V14.01,2013-09-05 04:37:00,
2013-09-04 23:38:00,88.3,67.9,29.99,ESE,108,0.0,1.0,51,0.00,,---,0.00,VWS V14.01,2013-09-05 04:38:00,
2013-09-04 23:39:00,88.3,67.9,29.99,ESE,109,0.0,2.0,51,0.00,,---,0.00,VWS V14.01,2013-09-05 04:39:00,
2013-09-04 23:40:00,88.3,67.9,29.99,ESE,109,0.0,2.0,51,0.00,,---,0.00,VWS V14.01,2013-09-05 04:40:00,
2013-09-04 23:43:00,88.1,67.7,29.99,ESE,112,0.0,3.0,51,0.00,,---,0.00,VWS V14.01,2013-09-05 04:43:00,
2013-09-04 23:44:00,88.3,67.9,29.99,ESE,108,0.0,1.0,51,0.00,,---,0.00,VWS V14.01,2013-09-05 04:44:00,
2013-09-04 23:45:00,88.2,67.8,29.99,ESE,107,0.0,1.0,51,0.00,,---,0.00,VWS V14.01,2013-09-05 04:45:00,
2013-09-04 23:46:00,88.2,67.8,29.99,ESE,112,0.0,3.0,51,0.00,,---,0.00,VWS V14.01,2013-09-05 04:46:00,
2013-09-04 23:47:00,88.2,67.8,29.99,ESE,111,0.0,3.0,51,0.00,,---,0.00,VWS V14.01,2013-09-05 04:47:00,
2013-09-04 23:48:00,88.1,68.3,29.99,ESE,113,0.0,1.0,52,0.00,,---,0.00,VWS V14.01,2013-09-05 04:48:00,
2013-09-04 23:49:00,88.1,67.7,29.99,ESE,112,0.0,3.0,51,0.00,,---,0.00,VWS V14.01,2013-09-05 04:49:00,
2013-09-04 23:50:00,88.1,68.3,29.99,ESE,112,0.0,3.0,52,0.00,,---,0.00,VWS V14.01,2013-09-05 04:50:00,
2013-09-04 23:51:00,88.1,68.3,29.99,ESE,112,0.0,1.0,52,0.00,,---,0.00,VWS V14.01,2013-09-05 04:51:00,
2013-09-04 23:52:00,88.1,68.3,29.99,ESE,112,0.0,1.0,52,0.00,,---,0.00,VWS V14.01,2013-09-05 04:52:00,
2013-09-04 23:53:00,87.9,68.1,29.99,ESE,112,0.0,3.0,52,0.00,,---,0.00,VWS V14.01,2013-09-05 04:53:00,
2013-09-04 23:54:00,88.1,68.3,29.99,ESE,113,0.0,1.0,52,0.00,,---,0.00,VWS V14.01,2013-09-05 04:54:00,
2013-09-04 23:55:00,88.1,68.3,29.99,ESE,113,0.0,1.0,52,0.00,,---,0.00,VWS V14.01,2013-09-05 04:55:00,
2013-09-04 23:56:00,88.0,68.2,29.99,ESE,114,0.0,3.0,52,0.00,,---,0.00,VWS V14.01,2013-09-05 04:56:00,
2013-09-04 23:57:00,88.0,68.2,29.99,ESE,113,0.0,3.0,52,0.00,,---,0.00,VWS V14.01,2013-09-05 04:57:00,
2013-09-04 23:58:00,87.8,68.6,29.99,ESE,108,0.0,0.0,53,0.00,,---,0.00,VWS V14.01,2013-09-05 04:58:00,
2013-09-04 23:59:00,87.9,68.1,29.99,ESE,112,0.0,3.0,52,0.00,,---,0.00,VWS V14.01,2013-09-05 04:59:00,